[[{"header":{"parameterUnit":"m.s-1","parameterCategory":1,"la1":30.6,"la2":29.2853,"lo1":-89.7004,"lo2":-87.6739,"dy":0.0162,"dx":0.0183,"nx":112,"ny":82,"refTime":"2023-08-26T12:00:00:Z","depth":0,"parameterNumber":2,"parameterNumberName":"U-component_of_WINDS"},"data":[0.0,0.0,0.0,0.0,0.0,0.0,0.0,0.0,0.0,0.0,0.0,0.0,0.0,0.0,0.0,0.0,0.0,0.0,0.0,0.0,0.0,0.0,0.0,0.0,0.0,0.0,0.0,0.0,0.0,0.0,0.0,0.0,0.0,0.0,0.0,0.0,0.0,0.0,0.0,0.0,0.0,0.0,0.0,0.0,0.0,0.0,0.0,0.0,0.0,0.0,0.0,0.0,0.0,0.0,0.0,0.0,0.0,0.0,0.0,0.0,0.0,0.0,0.0,0.0,0.0,0.0,0.0,0.0,0.0,0.0,0.0,0.0,0.0,0.0,0.0,0.0,0.0,0.0,0.0,0.0,0.0,0.0,0.0,0.0,0.0,0.0,0.0,0.0,0.0,0.0,0.9031,0.9689,0.9723,0.9684,0.9622,0.9591,0.9513,0.9409,0.0,0.0,0.0,0.0,0.0,0.0,0.0,0.0,0.0,0.0,0.0,0.0,0.0,0.0,0.0,0.0,0.0,0.0,0.0,0.0,0.0,0.0,0.0,0.0,0.0,0.0,0.0,0.0,0.0,0.0,0.0,0.0,0.0,0.0,0.0,0.0,0.0,0.0,0.0,0.0,0.0,0.0,0.0,0.0,0.0,0.0,0.0,0.0,0.0,0.0,0.0,0.0,0.0,0.0,0.0,0.0,0.0,0.0,0.0,0.0,0.0,0.0,0.0,0.0,0.0,0.0,0.0,0.0,0.0,0.0,0.0,0.0,0.0,0.0,0.0,0.0,0.0,0.0,0.0,0.0,0.0,0.0,0.0,0.0,0.0,0.0,0.0,0.0,0.0,0.0,0.0,0.0,0.0,0.0,0.0,0.0,0.0,0.0,0.0,0.0,0.0,0.0,0.0,0.0,0.8148,0.9042,0.9222,0.9403,0.9657,0.9524,0.9532,0.9789,0.0,0.0,0.0,0.0,0.0,0.0,0.0,0.0,0.0,0.0,0.0,0.0,0.0,0.0,0.0,0.0,0.0,0.0,0.0,0.0,0.0,0.0,0.0,0.0,0.0,0.0,0.0,0.0,0.0,0.0,0.0,0.0,0.0,0.0,0.0,0.0,0.0,0.0,0.0,0.0,0.0,0.0,0.0,0.0,0.0,0.0,0.0,0.0,0.0,0.0,0.0,0.0,0.0,0.0,0.0,0.0,0.0,0.0,0.0,0.0,0.0,0.0,0.0,0.0,0.0,0.0,0.0,0.0,0.0,0.0,0.0,0.0,0.0,0.0,0.0,0.0,0.0,0.0,0.0,0.0,0.0,0.0,0.0,0.0,0.0,0.0,0.0,0.0,0.0,0.0,0.0,0.0,0.0,0.0,0.0,0.0,0.0,0.0,0.0,0.0,0.0,0.0,0.0,0.8714,0.8792,0.9089,0.9355,0.9464,0.9341,0.944,0.9445,0.926,0.9208,0.0,0.0,0.0,0.0,0.0,0.0,0.0,0.0,0.0,0.0,0.0,0.0,0.0,0.0,0.0,0.0,0.0,0.0,0.0,0.0,0.0,0.0,0.0,0.0,0.0,0.0,0.0,0.0,0.0,0.0,0.0,0.0,0.0,0.0,0.0,0.0,0.0,0.0,0.0,0.0,0.0,0.0,0.0,0.0,0.0,0.0,0.0,0.0,0.0,0.0,0.0,0.0,0.0,0.0,0.0,0.0,0.0,0.0,0.0,0.0,0.0,0.0,0.0,0.0,0.0,0.0,0.0,0.0,0.0,0.0,0.0,0.0,0.0,0.0,0.0,0.0,0.0,0.0,0.0,0.0,0.0,0.0,0.0,0.0,0.0,0.0,0.0,0.0,0.0,0.0,0.0,0.0,0.0,0.0,0.0,0.0,0.0,0.0,0.0,0.0,0.0,0.0,0.9168,0.9428,0.9222,0.9472,0.9529,0.9191,0.93,0.9247,0.8886,0.8911,0.0,0.0,0.0,0.0,0.0,0.0,0.0,0.0,0.0,0.0,0.0,0.0,0.0,0.0,0.0,0.0,0.0,0.0,0.0,0.0,0.0,0.0,0.0,0.0,0.0,0.0,0.0,0.0,0.0,0.0,0.0,0.0,0.0,0.0,0.0,0.0,0.0,0.0,0.0,0.0,0.0,0.0,0.0,0.0,0.0,0.0,0.0,0.0,0.0,0.0,0.0,0.0,0.0,0.0,0.0,0.0,0.0,0.0,0.0,0.0,0.0,0.0,0.0,0.0,0.0,0.0,0.0,0.0,0.0,0.0,0.0,0.0,0.0,0.0,0.0,0.0,0.0,0.0,0.0,0.0,0.0,0.0,0.0,0.0,0.0,0.0,0.0,0.0,0.0,0.0,0.0,0.0,0.0,0.0,0.0,0.0,0.0,0.0,0.0,0.0,0.0,0.0,0.8737,0.9222,0.9211,0.9224,0.935,0.9631,0.91,0.8927,0.9324,0.8609,0.0,0.0,0.0,0.0,0.0,0.0,0.0,0.0,0.0,0.0,0.0,0.0,0.0,0.0,0.0,0.0,0.0,0.0,0.0,0.0,0.0,0.0,0.0,0.0,0.0,0.0,0.0,0.0,0.0,0.0,0.0,0.0,0.0,0.0,0.0,0.0,0.0,0.0,0.0,0.0,0.0,0.0,0.0,0.0,0.0,0.0,0.0,0.0,0.0,0.0,0.0,0.0,0.0,0.0,0.0,0.0,0.0,0.0,0.0,0.0,0.0,0.0,0.0,0.0,0.0,0.0,0.0,0.0,0.0,0.0,0.0,0.0,0.0,0.0,0.0,0.0,0.0,0.0,0.0,0.0,0.0,0.0,0.0,0.0,0.0,0.0,0.0,0.0,0.0,0.0,0.0,0.0,0.0,0.0,0.0,0.0,0.0,0.0,0.0,0.0,0.0,0.0,0.9127,0.9505,0.9625,0.964,0.9571,0.9406,0.9156,0.8879,0.8602,0.0,0.0,0.0,0.0,0.0,0.0,0.0,0.0,0.0,0.0,0.0,0.0,0.0,0.0,0.0,0.0,0.0,0.0,0.0,0.0,0.0,0.0,0.0,0.0,0.0,0.0,0.0,0.0,0.0,0.0,0.0,0.0,0.0,0.0,0.0,0.0,0.0,0.0,0.0,0.0,0.0,0.0,0.0,0.0,0.0,0.0,0.0,0.0,0.0,0.0,0.0,0.0,0.0,0.0,0.0,0.0,0.0,0.0,0.0,0.0,0.0,0.0,0.0,0.0,0.0,0.0,0.0,0.0,0.0,0.0,0.0,0.0,0.0,0.0,0.0,0.0,0.0,0.0,0.0,0.0,0.0,0.0,0.0,0.0,0.0,0.0,0.0,0.0,0.0,0.0,0.0,0.0,0.0,0.0,0.0,0.0,0.0,0.0,0.0,0.0,0.0,0.0,0.889,0.934,0.9649,0.9787,0.9722,0.9542,0.9225,0.9062,0.8734,0.814,0.0,0.0,0.0,0.0,0.0,0.0,0.0,0.0,0.0,0.0,0.0,0.0,0.0,0.0,0.0,0.0,0.0,0.0,0.0,0.0,0.0,0.0,0.0,0.0,0.0,0.0,0.0,0.0,0.0,0.0,0.0,0.0,0.0,0.0,0.0,0.0,0.0,0.0,0.0,0.0,0.0,0.0,0.0,0.0,0.0,0.0,0.0,0.0,0.0,0.0,0.0,0.0,0.0,0.0,0.0,0.0,0.0,0.0,0.0,0.0,0.0,0.0,0.0,0.0,0.0,0.0,0.0,0.0,0.0,0.0,0.0,0.0,0.0,0.0,0.0,0.0,0.0,0.0,0.0,0.0,0.0,0.0,0.0,0.0,0.0,0.0,0.0,0.0,0.0,0.0,0.0,0.0,0.0,0.0,0.0,0.0,0.0,0.0,0.0,0.0,0.0,0.0,0.8715,0.9233,0.9601,0.9601,0.9368,0.9198,0.9198,0.8766,0.8378,0.0,0.0,0.0,0.0,0.0,0.0,0.0,0.0,0.0,0.0,0.0,0.0,0.0,0.0,0.0,0.0,0.0,0.0,0.0,0.0,0.0,0.0,0.0,0.0,0.0,0.0,0.0,0.0,0.0,0.0,0.0,0.0,0.0,0.0,0.0,0.0,0.0,0.0,0.0,0.0,0.0,0.0,0.0,0.0,0.0,0.0,0.0,0.0,0.0,0.0,0.0,0.0,0.0,0.0,0.0,0.0,0.0,0.0,0.0,0.0,0.0,0.0,0.0,0.0,0.0,0.0,0.0,0.0,0.0,0.0,0.0,0.0,0.0,0.0,0.0,0.0,0.0,0.0,0.0,0.0,0.0,0.0,0.0,0.0,0.0,0.0,0.0,0.0,0.0,0.0,0.0,0.0,0.0,0.0,0.0,0.0,0.0,0.0,0.0,0.0,0.0,0.0,0.0,0.9024,0.9492,0.9817,0.9817,0.9655,0.9409,0.9095,0.8855,0.8533,0.8116,0.0,0.0,0.0,0.0,0.0,0.0,0.0,0.0,0.0,0.0,0.0,0.0,0.0,0.0,0.0,0.0,0.0,0.0,0.0,0.0,0.0,0.0,0.0,0.0,0.0,0.0,0.0,0.0,0.0,0.0,0.0,0.0,0.0,0.0,0.0,0.0,0.0,0.0,0.0,0.0,0.0,0.0,0.0,0.0,0.0,0.0,0.0,0.0,0.0,0.0,0.0,0.0,0.0,0.0,0.0,0.0,0.0,0.0,0.0,0.0,0.0,0.0,0.0,0.0,0.0,0.0,0.0,0.0,0.0,0.0,0.0,0.0,0.0,0.0,0.0,0.0,0.0,0.0,0.0,0.0,0.0,0.0,0.0,0.0,0.0,0.0,0.0,0.0,0.0,0.0,0.0,0.0,0.0,0.0,0.0,0.0,0.0,0.0,0.0,0.0,0.0,0.0,0.9045,0.9431,0.9749,0.9892,0.9824,0.9615,0.92,0.9111,0.8855,0.8331,0.0,0.0,0.0,0.0,0.0,0.0,0.0,0.0,0.0,0.0,0.0,0.0,0.0,0.0,0.0,0.0,0.0,0.0,0.0,0.0,0.0,0.0,0.0,0.0,0.0,0.0,0.0,0.0,0.0,0.0,0.0,0.0,0.0,0.0,0.0,0.0,0.0,0.0,0.0,0.0,0.0,0.0,0.0,0.0,0.0,0.0,0.0,0.0,0.0,0.0,0.0,0.0,0.0,0.0,0.0,0.0,0.0,0.0,0.0,0.0,0.0,0.0,0.0,0.0,0.0,0.0,0.0,0.0,0.0,0.0,0.0,0.0,0.0,0.0,0.0,0.0,0.0,0.0,0.0,0.0,0.0,0.0,0.0,0.0,0.0,0.0,0.0,0.0,0.0,0.0,0.0,0.0,0.0,0.0,0.0,0.0,0.0,0.0,0.0,0.0,0.0,0.0,0.895,0.9251,0.9578,0.9921,0.9936,0.9794,0.9468,0.9493,0.9261,0.8671,0.0,0.0,0.0,0.0,0.0,0.0,0.0,0.0,0.0,0.0,0.0,0.0,0.0,0.0,0.0,0.0,0.0,0.0,0.0,0.0,0.0,0.0,0.0,0.0,0.0,0.0,0.0,0.0,0.0,0.0,0.0,0.0,0.0,0.0,0.0,0.0,0.0,0.0,0.0,0.0,0.0,0.0,0.0,0.0,0.0,0.0,0.0,0.0,0.0,0.0,0.0,0.0,0.0,0.0,0.0,0.0,0.0,0.0,0.0,0.0,1.8785,1.8637,0.0,0.0,0.0,0.0,0.0,0.0,0.0,0.0,0.0,0.0,0.0,0.0,0.0,0.0,0.0,0.0,0.0,0.0,0.0,0.0,0.0,0.0,0.0,0.0,0.0,0.0,0.0,0.0,0.0,0.0,0.0,0.0,0.0,0.0,0.0,0.0,0.0,0.0,0.0,0.0,0.9418,0.9658,0.9921,1.0265,1.0151,0.9995,0.9798,0.971,0.9451,0.8934,0.8272,0.0,0.0,0.0,0.0,0.0,0.0,0.0,0.0,0.0,0.0,0.0,0.0,0.0,0.0,0.0,0.0,0.0,0.0,0.0,0.0,0.0,0.0,0.0,0.0,0.0,0.0,0.0,0.0,0.0,0.0,0.0,0.0,0.0,0.0,0.0,0.0,0.0,0.0,0.0,0.0,0.0,0.0,0.0,0.0,0.0,0.0,0.0,0.0,0.0,0.0,0.0,0.0,0.0,0.0,0.0,0.0,0.0,0.0,0.0,1.9861,1.9136,0.0,0.0,0.0,0.0,0.0,0.0,0.0,0.0,0.0,0.0,0.0,0.0,0.0,0.0,0.0,0.0,0.0,0.0,0.0,0.0,0.0,0.0,0.0,0.0,0.0,0.0,0.0,0.0,0.0,0.0,0.0,0.0,0.0,0.0,0.0,0.0,0.0,0.0,0.0,0.0,0.9713,0.9976,1.0222,1.0478,1.0462,1.0318,1.0019,1.0012,0.9859,0.9453,0.871,0.0,0.0,0.0,0.0,0.0,0.0,0.0,0.0,0.0,0.0,0.0,0.0,0.0,0.0,0.0,0.0,0.0,0.0,0.0,0.0,0.0,0.0,0.0,0.0,0.0,0.0,0.0,0.0,0.0,0.0,0.0,0.0,0.0,0.0,0.0,0.0,0.0,0.0,0.0,0.0,0.0,0.0,0.0,0.0,0.0,0.0,0.0,0.0,0.0,0.0,0.0,0.0,0.0,2.3419,2.359,2.2927,2.3931,2.4327,2.4028,2.0958,1.9871,2.0252,2.0125,0.0,0.0,0.0,0.0,0.0,0.0,0.0,0.0,0.0,0.0,0.0,0.0,0.0,0.0,0.0,0.0,0.0,0.0,0.0,0.0,0.0,0.0,1.44,1.458,1.4738,1.4312,1.2403,0.0,0.0,0.0,0.0,0.0,0.0,0.0,0.0,0.0,0.0,0.0,1.0163,1.0394,1.0609,1.0799,1.0846,1.0689,1.0258,1.0347,1.03,0.9956,0.9167,0.8669,0.0,0.0,0.0,0.0,0.0,0.0,0.0,0.0,0.0,0.0,0.0,0.0,0.0,0.0,0.0,0.0,0.0,0.0,0.0,0.0,0.0,0.0,0.0,0.0,0.0,0.0,0.0,0.0,0.0,0.0,0.0,0.0,2.1899,2.2018,0.0,0.0,0.0,0.0,0.0,0.0,0.0,0.0,0.0,0.0,0.0,0.0,0.0,2.2837,2.35,2.4016,2.3902,2.323,2.4436,2.4545,2.3757,2.4431,2.4543,2.4188,2.3557,0.0,2.3678,2.2914,0.0,0.0,0.0,0.0,0.0,0.0,0.0,0.0,0.0,0.0,0.0,0.0,0.0,0.0,0.0,0.0,0.0,0.0,0.0,0.0,0.0,0.0,1.6185,1.5932,1.6048,1.5893,1.4617,1.3295,1.2263,1.1943,1.1328,1.077,0.0,0.0,0.0,0.0,0.0,0.0,1.1312,1.1165,1.1162,1.1596,1.1284,1.0959,1.0731,1.0631,1.0427,1.0089,0.9729,0.9368,0.8946,0.8329,0.0,0.0,0.0,0.0,0.0,0.0,0.0,0.0,0.0,0.0,0.0,0.0,0.0,0.0,0.0,0.0,0.0,0.0,0.0,0.0,0.0,0.0,0.0,0.0,0.0,0.0,0.0,0.0,0.0,2.2544,2.3263,2.3094,2.3356,2.3223,0.0,0.0,0.0,0.0,0.0,0.0,0.0,0.0,0.0,2.4684,2.4167,2.4288,2.5149,2.5384,2.5381,2.515,2.6003,2.6151,2.5621,2.6195,2.6443,2.6391,2.6204,2.632,2.6475,2.4292,2.3273,2.3047,0.0,0.0,0.0,0.0,2.1803,2.1619,2.2189,2.1792,2.1036,2.1039,0.0,0.0,0.0,0.0,0.0,0.0,0.0,1.6982,1.7764,1.7655,1.7376,1.7514,1.7482,1.7202,1.6472,1.5501,1.4442,1.333,1.293,1.247,1.1567,1.1632,0.0,0.0,0.0,1.1857,1.1985,1.2027,1.2064,1.2092,1.1893,1.1692,1.1495,1.133,1.1043,1.0635,1.0257,0.9783,0.9252,0.8725,0.832,0.0,0.0,0.0,0.0,0.0,0.0,0.0,0.0,0.0,0.0,0.0,0.0,0.0,0.0,0.0,0.0,0.0,0.0,0.0,0.0,0.0,0.0,0.0,0.0,0.0,0.0,0.0,0.0,2.3943,2.4475,2.4228,2.4673,2.4595,0.0,0.0,0.0,0.0,0.0,0.0,2.4941,2.5201,2.573,2.6537,2.6088,2.6205,2.6975,2.6915,2.6788,2.6611,2.7204,2.7243,2.6784,2.7502,2.7875,2.7979,2.7915,2.8025,2.8048,2.5563,2.4378,2.407,2.392,2.4009,2.4221,2.4067,2.3774,2.3579,2.4667,2.4222,2.3199,2.3215,2.2735,2.1855,2.0488,0.0,0.0,0.0,0.0,1.8464,1.9089,1.8802,1.8405,1.8636,1.8396,1.7984,1.7576,1.7031,1.6203,1.4848,1.4563,1.4164,1.2959,1.29,0.0,1.2089,1.2363,1.2615,1.2492,1.2574,1.2601,1.2484,1.2341,1.2164,1.1992,1.1837,1.1529,1.1049,1.0673,1.02,0.9634,0.9117,0.8741,0.8506,0.0,0.0,0.0,0.0,0.0,0.0,0.0,0.0,0.0,0.0,0.0,0.0,0.0,0.0,0.0,0.0,0.0,0.0,0.0,0.0,0.0,0.0,0.0,0.0,0.0,0.0,0.0,0.0,0.0,2.5504,2.6965,0.0,0.0,0.0,0.0,2.6329,2.5883,2.605,2.6999,2.7067,2.7571,2.8623,2.917,2.9307,2.9057,2.9057,2.8311,2.6892,2.7505,2.7282,2.6479,2.7387,2.7726,2.7644,2.7954,2.8005,2.7797,2.7315,2.7004,2.6742,2.6161,2.5842,2.5686,2.5669,2.5899,2.616,2.5857,2.5583,2.533,2.5272,2.4119,2.2693,2.2502,2.1179,0.0,0.0,2.0153,1.959,2.0306,2.0022,1.9373,1.8822,1.8399,1.7984,1.7591,1.7033,1.6578,1.6483,1.5906,1.5233,1.4661,0.0,1.3867,1.3136,1.2887,1.2835,1.2956,1.253,1.2383,1.2817,1.2406,1.205,1.1921,1.1904,1.1664,1.1131,1.0951,1.067,1.0176,0.9588,0.9033,0.8519,0.835,0.0,0.0,0.0,0.0,0.0,0.0,0.0,0.0,0.0,0.0,0.0,0.0,0.0,0.0,0.0,0.0,0.0,0.0,0.0,0.0,0.0,0.0,0.0,0.0,0.0,0.0,0.0,0.0,2.7071,2.7584,0.0,2.6526,2.7193,2.7507,2.6988,2.79,2.8631,2.8982,2.9115,2.9378,2.9746,2.9393,2.9186,2.9197,2.8947,2.8548,2.7997,2.8698,2.8495,2.7508,2.8196,2.8348,2.8077,2.8176,2.8398,2.8617,2.8496,2.8002,2.7286,2.6944,2.6975,2.7145,2.6681,2.6751,2.6995,2.6728,2.6383,2.6,2.5596,2.4728,2.3793,2.3621,2.3007,2.2421,2.2571,2.2125,2.1641,2.179,2.1034,2.0131,1.9654,1.8915,1.8169,1.7714,1.7361,1.7073,1.694,1.6223,1.5472,1.4984,1.4759,1.4365,1.355,1.3638,1.3752,1.3549,1.3353,1.3189,1.3098,1.2922,1.2685,1.2381,1.2344,1.1962,1.1033,1.0852,1.0378,0.9465,0.923,0.8979,0.8697,0.8554,0.8329,0.0,0.0,0.0,0.0,0.0,0.0,0.0,0.0,0.0,0.0,0.0,0.0,0.0,0.0,0.0,0.0,0.0,0.0,0.0,0.0,0.0,0.0,0.0,0.0,0.0,2.6631,2.7428,2.806,2.8512,2.8515,2.7797,2.8533,2.8951,2.8683,2.9553,3.0172,3.034,3.0404,3.0367,3.0227,3.0007,2.9705,2.9302,2.9228,2.8928,2.8442,2.9112,2.8985,2.8176,2.8771,2.8938,2.8821,2.8587,2.8782,2.9238,2.9007,2.848,2.7827,2.7688,2.7811,2.8019,2.7527,2.7429,2.7518,2.7162,2.6723,2.624,2.5713,2.5207,2.4742,2.4347,2.4042,2.3799,2.3738,2.3226,2.2635,2.237,2.1461,2.0428,1.9812,1.903,1.8293,1.789,1.7687,1.747,1.7155,1.6593,1.6008,1.5481,1.5225,1.4828,1.4173,1.4146,1.4188,1.4092,1.3933,1.3811,1.374,1.3612,1.3347,1.2983,1.2722,1.2178,1.1227,1.0936,1.0395,0.9511,0.9336,0.9157,0.8903,0.8722,0.8567,0.844,0.0,0.0,0.0,0.0,0.0,0.0,0.0,0.0,0.0,0.0,0.0,0.0,0.0,0.0,0.0,0.0,0.0,0.0,0.0,0.0,0.0,0.0,0.0,2.7173,2.7973,2.8637,2.8527,2.9924,3.0698,3.0124,3.0582,3.111,3.1478,3.0779,3.0533,3.0985,3.0833,3.0518,3.0145,3.1152,3.1014,2.9537,3.003,2.9561,2.8154,2.8687,2.873,2.8355,2.8927,2.9451,2.9816,2.9166,2.9145,2.948,2.8775,2.8502,2.8478,2.8502,2.8359,2.8199,2.8199,2.8062,2.7783,2.7108,2.6593,2.6137,2.5717,2.5591,2.5463,2.4742,2.42,2.3867,2.4138,2.3392,2.243,2.2039,2.1277,2.0348,1.9297,1.8709,1.831,1.8049,1.7928,1.7725,1.7179,1.7094,1.6863,1.6289,1.5744,1.5293,1.5041,1.4371,0.0,1.4545,1.4191,1.4138,1.4723,1.4383,1.3961,1.3606,1.2916,1.2265,1.1726,1.1246,1.0809,1.0401,1.0002,0.9558,0.9097,0.8832,0.8695,0.8684,0.0,0.0,0.0,0.0,0.0,0.0,0.0,0.0,0.0,0.0,0.0,0.0,0.0,0.0,0.0,0.0,0.0,0.0,0.0,0.0,0.0,2.8012,2.8932,2.869,2.9411,3.0203,3.0799,3.1137,3.1377,3.1519,3.1585,3.1604,3.1503,3.1342,3.1305,3.1429,3.1117,3.0868,3.0764,3.0336,3.0054,2.9955,2.9656,2.9347,2.9048,2.964,2.95,2.8699,2.9101,2.9055,2.8655,2.8474,2.8373,2.8353,2.831,2.8199,2.8082,2.8219,2.8259,2.8179,2.8042,2.7871,2.7544,2.6685,2.642,2.6365,2.5572,2.5402,2.5419,2.4881,2.4536,2.4317,2.4383,2.3691,2.2922,2.2795,2.1864,2.0774,2.0035,1.9067,1.8236,1.8004,1.7527,1.7138,1.698,1.6691,1.6359,1.6037,1.549,1.5059,1.4884,1.4531,1.4349,1.4634,1.4357,1.4207,1.448,1.4389,1.4003,1.3236,1.2934,1.235,1.1328,1.0864,1.045,0.9979,0.9583,0.9167,0.8754,0.8763,0.8629,0.0,0.0,0.0,0.0,0.0,0.0,0.0,0.0,0.0,0.0,0.0,0.0,0.0,0.0,0.0,0.0,0.0,0.0,0.0,0.0,0.0,0.0,2.9485,3.0284,3.0102,3.0555,3.1053,3.1424,3.1783,3.2073,3.2223,3.2361,3.2321,3.1905,3.2087,3.2038,3.1687,3.1613,3.1493,3.13,3.0714,3.0462,3.0516,3.017,2.9929,2.9839,3.0298,3.0085,2.9355,2.969,2.959,2.9154,2.8886,2.8782,2.8845,2.863,2.8536,2.8492,0.0,0.0,0.0,0.0,2.7474,2.7224,2.66,2.6292,2.6108,2.5637,2.5441,2.53,2.4815,2.446,2.4175,2.3974,2.3384,2.2736,2.2498,2.1705,2.0724,1.9745,1.8897,1.82,1.7861,1.7594,1.7327,1.7032,1.6874,0.0,1.6028,1.5387,1.4909,1.4766,1.4625,1.4638,1.4899,1.4811,1.4786,1.4967,1.4798,1.4379,1.3724,1.3139,0.0,0.0,0.0,1.0399,0.9859,0.9456,0.0,0.0,0.0,0.8845,0.8528,0.8863,0.0,0.0,0.9171,0.9161,0.0,0.0,0.0,0.0,0.0,0.0,0.0,0.0,0.0,0.0,0.0,0.0,0.0,0.0,0.0,0.0,3.0842,3.1738,3.1432,3.152,3.1485,3.1173,3.2103,3.2699,3.249,3.2911,3.2971,3.2342,3.2671,3.2555,3.1765,3.2109,0.0,0.0,0.0,3.1402,3.1104,3.0993,3.0721,3.0264,3.0582,3.0452,2.9954,3.0304,3.0425,3.0308,2.9698,2.9655,2.9982,2.9253,2.911,2.9211,2.8086,2.7656,2.7615,2.7392,2.7211,2.7047,2.6752,0.0,0.0,2.5892,2.5624,2.5178,2.465,2.4199,2.3738,2.3207,2.2719,2.2249,2.164,2.1138,2.0457,1.9099,1.8587,1.8271,1.7849,1.7922,1.7902,1.7363,1.74,1.7206,1.6211,1.5481,1.4978,1.4832,1.4803,1.4927,1.5304,1.5372,1.5465,1.5734,1.5311,0.0,1.4601,1.348,1.2548,1.1982,1.1178,1.0487,0.99,0.9505,0.9199,0.9013,0.9171,0.9175,0.9,0.9548,0.9764,0.9627,0.9387,0.9487,0.0,0.0,0.0,0.0,0.0,0.0,0.0,0.0,0.0,0.0,0.0,0.0,0.0,0.0,0.0,3.0825,3.1609,3.2164,3.244,3.2345,3.2214,3.2139,3.276,3.3109,3.2907,3.2837,3.2496,3.1746,3.2004,3.1943,3.1357,3.1652,3.1777,3.1696,3.0964,3.0737,3.1104,3.0294,2.9768,2.9522,2.9944,0.0,2.8902,2.9409,2.9515,2.9271,2.8992,2.8906,2.8968,2.8812,2.8788,2.883,2.875,2.8593,2.8423,2.7995,2.8071,2.8209,2.7261,2.7105,2.714,2.6213,2.5792,2.5534,2.469,2.4318,0.0,2.3047,2.2549,2.2184,2.1575,2.1065,2.0561,1.9952,1.9346,1.8842,1.8754,1.8189,1.7793,1.8094,1.7538,1.689,1.6411,1.6031,1.5731,1.5526,1.5316,1.5318,1.5661,1.5335,1.5195,1.5507,1.5257,1.4879,1.4391,1.3735,1.3047,1.2355,1.1095,1.0165,0.9675,0.943,0.9205,0.9008,0.9038,0.9034,0.8997,0.9291,0.9567,0.9849,0.9783,0.9731,0.0,0.0,0.0,0.0,0.0,0.0,0.0,0.0,0.0,0.0,0.0,2.8216,2.9309,0.0,3.0699,3.2409,3.2543,3.2401,3.2459,3.2838,3.2939,3.2311,3.2446,3.2686,3.3064,3.2916,3.2625,3.2246,3.2613,3.2567,3.1884,3.2187,3.2282,3.2051,3.1294,3.0999,3.1199,3.0691,3.0314,3.0153,3.0393,3.0097,2.9411,2.9666,2.9649,2.9396,2.9432,2.9459,2.9436,2.9326,2.9282,2.9326,2.9415,2.9072,2.8507,2.8138,2.8076,2.8077,2.7236,2.6943,2.6842,2.6225,2.5744,2.5326,2.4875,2.4454,2.3884,2.2852,2.2359,2.1993,2.1234,2.088,2.0557,1.9979,1.9413,1.8978,1.8911,1.8295,1.7895,1.8403,1.7998,1.741,1.7035,1.6847,1.6425,1.5462,1.5219,1.5261,1.5555,1.5252,1.5126,1.546,1.5109,1.4698,1.4327,1.3379,1.2537,1.1886,1.0876,1.0183,0.995,0.9537,0.9301,0.929,0.9066,0.8946,0.8946,0.9152,0.9296,0.9407,0.9539,0.9607,0.0,0.0,0.0,0.0,0.0,0.0,0.0,2.6957,2.7623,2.8016,2.9176,3.0534,3.1914,3.1892,3.2208,3.3769,3.3415,3.2806,3.2506,3.3225,3.3402,3.2436,3.2254,3.2494,3.3075,3.3044,3.2946,3.2828,3.3394,3.3395,3.2563,3.2939,3.2956,3.2422,3.177,3.1423,3.1383,3.1122,3.0946,3.0752,3.0869,3.0613,3.0078,3.0211,3.019,3.0047,3.0376,3.0377,3.0148,3.0079,2.9942,2.9806,2.976,2.9263,2.8496,2.8276,2.8099,2.7833,2.7229,2.6757,2.6389,2.6183,2.5626,2.5037,2.4908,2.4445,2.3732,2.2662,2.2211,2.1826,2.0954,2.0684,2.045,1.9808,1.942,1.914,1.8849,1.8441,1.8226,1.8566,1.836,1.8013,1.7644,1.7488,1.6895,1.5395,1.5212,1.5278,1.5394,1.5206,1.516,1.53,1.4892,1.4472,1.4124,1.2883,1.1841,1.1213,1.0625,1.0264,1.0172,0.9572,0.9327,0.9541,0.9082,0.8855,0.8911,0.9061,0.9086,0.8973,0.9096,0.9275,2.5807,2.5457,2.589,2.7832,2.7811,2.8056,0.0,3.0663,3.0377,3.1792,3.2213,3.2554,3.3273,3.3208,3.3352,3.429,3.4047,3.374,3.37,3.3462,3.3224,3.3074,3.3535,3.3607,3.2977,3.3178,3.3128,3.2604,3.3391,3.3549,3.2713,3.3167,3.3132,3.2422,3.1641,3.138,3.1649,3.0775,3.0188,2.9926,3.0436,3.0277,2.9593,3.0256,3.0673,3.0882,3.1387,3.0987,2.9968,3.0369,3.0144,2.9508,2.9278,2.9119,2.9008,2.8985,2.8847,2.857,2.7779,2.7356,2.707,2.6324,2.5717,2.5125,2.4285,2.4096,2.3889,2.259,2.2209,2.1978,2.1095,2.0618,2.0269,1.9928,1.9916,1.9753,1.8983,1.8886,1.8908,1.8714,1.8287,1.7931,1.786,1.7463,1.6927,1.6236,1.6163,1.5955,1.5458,1.543,1.5247,1.4752,1.4689,1.4316,1.3387,1.2574,1.1728,1.0826,1.048,1.0108,0.9693,0.9275,0.9123,0.9327,0.8878,0.8719,0.8898,0.8924,0.9051,0.9248,0.8851,0.8793,2.7706,2.8422,2.9135,2.968,3.0342,3.0913,3.119,3.1423,3.186,3.2837,3.3585,3.4226,3.482,3.4573,3.4486,3.5057,3.4436,3.3784,3.352,3.3622,3.3493,3.2848,3.3329,3.3671,3.3666,3.3398,3.333,3.3536,3.3898,3.3789,3.3022,3.2952,3.2627,3.2006,3.1412,3.108,3.1071,3.0793,3.0455,3.0029,3.0416,3.0349,2.994,3.056,3.095,3.1195,3.1257,3.0971,3.0481,3.0287,3.0018,2.9678,2.9157,2.893,2.8908,2.8745,2.8558,2.8233,2.7455,2.6931,2.6476,2.5868,2.5167,2.4559,2.4324,2.3882,2.3306,2.2536,2.2208,2.1828,2.0705,2.0435,2.0367,2.0117,1.985,1.9557,1.9272,1.9017,1.8789,1.8503,1.8281,1.8099,1.7963,1.7777,1.7434,1.6908,1.6384,1.5964,1.5731,1.5415,1.5033,1.4622,1.4,1.3413,1.3008,1.2148,1.1424,1.091,1.0504,1.0208,1.0014,0.9462,0.9207,0.9292,0.8845,0.8631,0.8728,0.8568,0.8544,0.864,0.8332,0.8277,2.9126,3.0236,3.0935,3.0752,3.1833,3.2713,3.1694,3.2327,3.3329,3.4057,3.4853,3.5525,3.5891,3.5468,3.5182,3.5526,3.4679,3.3869,3.3695,3.3829,3.3639,3.2853,3.303,3.342,3.3953,3.352,3.3424,3.3952,3.4127,3.3866,3.3032,3.2815,3.2373,3.1711,3.1375,3.1059,3.0809,3.0874,3.0668,3.0193,3.0397,3.0421,3.0331,3.0994,3.1331,3.1406,3.142,3.12,3.0754,3.035,3.0009,2.9711,2.9021,2.8755,2.8732,2.825,2.8019,2.7786,2.7051,2.6428,2.5897,2.5357,2.4701,2.4134,2.4257,2.3662,2.2818,2.2507,2.2171,2.1647,2.0657,2.0351,2.0221,2.0006,1.9646,1.9303,1.9081,1.8998,1.883,1.8328,1.8286,1.826,1.8053,1.7891,1.7662,1.7275,1.6523,1.5986,1.5896,1.527,1.4729,1.4546,1.3484,1.2779,1.27,1.1838,1.1207,1.0916,1.0472,1.019,1.0115,0.9569,0.9275,0.9275,0.8855,0.8635,0.8617,0.8391,0.825,0.8229,0.8013,0.7944,2.9232,2.9442,2.9582,3.0485,3.1429,3.2395,3.3476,3.4324,3.523,3.6267,3.648,3.638,3.6144,3.5652,3.5372,3.5563,3.4768,3.4265,3.4766,3.4016,3.3407,3.3386,3.2979,3.2922,3.3469,3.3496,3.3407,3.3234,3.3703,3.357,3.2581,3.2947,3.2718,3.1736,3.1689,3.1598,3.1391,3.0856,3.0465,3.0193,3.0216,3.0331,3.06,3.1598,3.1927,3.1726,3.2494,3.1951,3.0536,3.0765,3.0283,2.9363,2.8894,2.8703,2.8591,2.769,2.7452,2.7523,2.676,2.6163,2.563,2.5094,2.4529,2.4059,2.3879,2.3388,2.2845,2.2568,2.2062,2.1543,2.123,2.0442,1.9659,1.9391,1.9405,1.9182,1.8089,1.882,1.9347,1.8247,1.8224,1.8304,1.8043,1.7569,1.7213,1.7186,1.6683,1.6197,1.5927,1.4971,1.4314,1.4309,1.3397,1.2704,1.2437,1.1788,1.1188,1.0743,1.0277,0.9886,0.9624,0.9339,0.9196,0.9196,0.8925,0.8756,0.8691,0.8482,0.8352,0.8302,0.8022,0.7912,2.9072,3.0243,3.1428,3.17,3.276,3.384,3.4181,3.4787,3.5482,3.6238,3.6074,3.5856,3.6177,3.548,3.4857,3.4921,3.4659,3.4302,3.3952,3.3929,3.3752,3.3269,3.2896,3.2733,3.2778,3.3101,3.3482,3.3941,3.3704,3.3472,3.3314,3.2747,3.2395,3.2254,3.1926,3.1714,3.1597,3.1459,3.1226,3.092,3.1179,3.1383,3.1598,3.1743,3.1758,3.1642,3.1717,3.1359,3.07,3.0481,2.9978,2.9335,2.8697,2.8341,2.8158,2.7631,2.7378,2.7187,2.6596,2.6009,2.5551,2.5503,2.4966,2.4297,2.402,2.3262,2.2425,2.2071,2.1693,2.1242,2.0589,2.0275,2.0035,1.9608,1.9214,1.8885,1.8531,1.884,1.8873,1.7851,1.8058,1.825,1.7818,1.7396,1.7003,1.667,1.6271,1.5933,1.5678,1.4796,1.4302,1.4478,1.3471,1.2758,1.267,1.184,1.1214,1.0933,1.0584,1.0276,1.0003,0.9747,0.9506,0.9345,0.8952,0.8722,0.8707,0.8281,0.8056,0.8036,0.7808,0.7739,3.0117,3.1558,3.2864,3.3025,3.4051,3.4992,3.4857,3.5292,3.5759,3.5984,3.5714,3.5471,3.5558,3.486,3.4443,3.4806,3.4572,3.4216,3.3908,3.3837,3.3683,3.3202,3.2824,3.2634,3.2674,3.2663,3.2841,3.3256,3.3119,3.2958,3.2889,3.2581,3.2437,3.2509,3.2126,3.1818,3.1587,3.1357,3.1123,3.0909,3.1486,3.1778,3.1825,3.1709,3.1598,3.145,3.127,3.0987,3.0651,3.0333,2.9961,2.9543,2.8906,2.8526,2.8275,2.7787,2.7381,2.6983,2.6557,2.6053,2.5602,2.5504,2.5032,2.4429,2.4121,2.3323,2.2376,2.1893,2.1567,2.1179,2.027,2.0019,1.9902,1.9426,1.8865,1.8419,1.8357,1.8463,1.8342,1.7555,1.7687,1.7842,1.7512,1.7277,1.6899,1.6272,1.5839,1.555,1.5351,1.4702,1.4241,1.4216,1.3355,1.2693,1.252,1.1773,1.1195,1.0975,1.0568,1.025,1.0065,0.9809,0.9539,0.9256,0.906,0.8831,0.8583,0.8293,0.808,0.7945,0.7801,0.7783,3.2117,3.3103,3.3729,3.4277,3.5076,3.569,3.5446,3.5833,3.6103,3.5573,3.5412,3.5094,3.4223,3.3866,3.4037,3.5047,3.4395,3.3981,3.4527,3.3799,3.3187,3.3164,3.2715,3.2614,3.3142,3.2296,3.1617,3.1322,3.2016,3.216,3.153,3.2319,3.2708,3.2464,3.2197,3.1823,3.137,3.0633,3.0267,3.0291,3.1276,3.1575,3.1324,3.1512,3.145,3.1163,3.1163,3.0858,3.0391,3.0344,3.0188,2.9911,2.9415,2.907,2.8793,2.8066,2.747,2.7,2.6737,2.6274,2.5711,2.5138,2.4772,2.4483,2.4202,2.3497,2.2695,2.2071,2.1714,2.129,2.0363,1.9702,1.9213,1.8891,1.8385,1.7912,1.7579,1.7758,1.7835,1.7322,1.7157,1.7099,1.7127,1.7134,1.6855,1.5992,1.5443,1.5071,1.4995,1.4537,1.4041,1.3528,1.3013,1.2513,1.2041,1.1592,1.1208,1.0904,1.0255,0.9853,0.983,0.9577,0.9308,0.9027,0.9252,0.9041,0.8404,0.8505,0.8366,0.7988,0.7988,0.7988,3.2057,3.2839,3.359,3.4105,3.4619,3.5074,3.5413,3.559,3.5544,3.5002,3.4284,3.3345,3.211,3.216,3.2414,3.2543,3.3008,3.3415,3.3561,3.3375,3.3144,3.2918,3.2602,3.2522,3.2863,3.2348,3.1833,3.1412,3.1553,3.2018,3.2772,3.2164,3.1807,3.1901,3.1491,3.1123,3.0817,3.0965,3.1125,3.1321,3.1975,3.2037,3.1531,3.1564,3.1245,3.0599,3.0599,3.0391,3.0057,2.9725,2.9554,2.9394,2.8587,2.8433,2.8597,2.8041,2.7643,2.7415,2.7244,2.6619,2.5866,2.5802,2.5432,2.4917,2.4368,2.3742,2.3064,2.2151,2.1717,2.1283,2.0416,1.9888,1.9471,1.9008,1.8428,1.7985,1.7881,1.7789,1.7658,1.7527,1.7317,1.6964,1.6329,1.6413,1.6324,1.5696,1.5278,1.4984,1.4805,1.3978,1.3365,1.3224,1.2853,1.245,1.2027,1.183,1.1468,1.0853,1.0788,1.0582,1.0194,1.0112,0.9862,0.9378,0.9097,0.8756,0.8404,0.822,0.8103,0.7988,0.7988,0.7889,3.232,3.2967,3.3632,3.4831,3.5012,3.4936,3.5264,3.5223,3.4803,3.3498,3.2528,3.1568,3.0597,3.0749,3.1264,3.1853,3.2754,3.3448,3.3692,3.3361,3.3106,3.3186,3.2457,3.2275,3.3124,3.2228,3.1736,3.2032,3.1641,3.1616,3.2091,3.1553,3.129,3.1392,3.1024,3.072,3.0429,3.1012,3.1255,3.1183,3.1794,3.1757,3.1064,3.1064,3.0754,3.0209,3.0209,3.0026,2.9684,2.9492,2.9374,2.9223,2.8455,2.8314,2.8467,2.7712,2.7251,2.698,2.6952,2.6339,2.5595,2.5828,2.5514,2.4903,2.4241,2.364,2.3023,2.2046,2.169,2.1374,2.0428,1.9879,1.9456,1.9008,1.835,1.7806,1.7674,1.741,1.7107,1.6754,1.6652,1.6433,1.5843,1.586,1.5844,1.555,1.503,1.4639,1.453,1.3759,1.3158,1.2949,1.2547,1.2152,1.1806,1.1644,1.1353,1.0881,1.0863,1.0758,1.045,1.0168,0.982,0.9333,0.9057,0.87,0.8237,0.8063,0.7988,0.7988,0.7764,0.7672,3.2653,3.3101,3.354,3.5417,3.5274,3.4736,3.4812,3.4511,3.3677,3.1646,3.0628,2.9846,2.9206,2.9495,3.029,3.1644,3.2576,3.3343,3.3903,3.3167,3.2792,3.3339,3.2207,3.1925,3.3269,3.1964,3.1473,3.2481,3.1707,3.1049,3.0709,3.0813,3.0806,3.0691,3.0496,3.0255,3.0013,3.0732,3.0871,3.0421,3.1139,3.1116,3.0391,3.0391,3.0235,2.9994,2.9994,2.9766,2.9389,2.9512,2.9476,2.9343,2.8706,2.8505,2.8428,2.7438,2.6724,2.6274,2.6432,2.5871,2.5182,2.5555,2.5266,2.4616,2.3991,2.3435,2.2811,2.192,2.1686,2.1469,2.0512,1.9828,1.9304,1.8941,1.8209,1.753,1.7265,1.6977,1.651,1.5656,1.5733,1.5808,1.5529,1.5504,1.5481,1.546,1.4858,1.4334,1.4248,1.3709,1.3195,1.2737,1.2259,1.1874,1.1507,1.1307,1.1099,1.0871,1.0706,1.0584,1.0506,1.0009,0.954,0.909,0.9083,0.8689,0.7939,0.8008,0.7984,0.7889,0.7478,0.7428,3.2536,3.2367,3.2234,3.3362,3.3176,3.2831,3.3309,3.2535,3.1489,3.0667,2.9558,2.8352,2.7164,2.8065,2.9054,2.9165,3.0046,3.0975,3.1736,3.1315,3.1138,3.1716,3.1553,3.1506,3.1769,3.1513,3.1166,3.0792,3.0376,3.048,3.1142,3.0498,2.9826,2.9195,2.9149,2.9102,2.9032,2.9734,2.9996,2.9944,3.0602,3.075,3.0391,3.0391,3.0235,2.9994,2.9994,2.9953,2.9849,2.9487,2.9549,2.9782,2.8686,2.8498,2.8706,2.7844,2.7098,2.657,2.6803,2.6108,2.5182,2.5555,2.5128,2.4379,2.4005,2.348,2.2849,2.2189,2.1854,2.1514,2.0791,2.0028,1.9249,1.8698,1.8077,1.754,1.7251,1.7134,1.6794,1.5711,1.5728,1.5805,1.5461,1.5418,1.5388,1.5345,1.5066,1.4625,1.3906,1.3414,1.3013,1.2674,1.2525,1.2199,1.1475,1.1543,1.1344,1.0689,1.0721,1.0566,1.0132,0.9998,0.9629,0.8941,0.8948,0.8522,0.7671,0.8066,0.7933,0.7341,0.7579,0.7495,3.1599,3.1508,3.1534,3.261,3.2471,3.208,3.2294,3.1394,3.0217,2.9084,2.8043,2.7091,2.6159,2.6996,2.7874,2.8065,2.9118,3.0257,3.1151,3.0859,3.0848,3.167,3.109,3.0926,3.1691,3.0935,3.0544,3.0793,2.9984,2.9692,3.0133,2.9642,2.9392,2.9534,2.9534,2.9572,2.9688,3.0255,3.0374,3.0121,3.0434,3.0464,3.0183,2.9953,2.9751,2.9642,2.9487,2.9389,2.9265,2.9068,2.9007,2.8973,2.796,2.7792,2.7964,2.667,2.6155,2.6047,2.5948,2.5431,2.4845,2.5128,2.474,2.4022,2.3365,2.2859,2.2379,2.1534,2.1391,2.1345,2.0828,2.0047,1.9278,1.8808,1.8012,1.7306,1.7179,1.6932,1.6524,1.58,1.5642,1.5597,1.5429,1.5256,1.5166,1.5271,1.5103,1.4688,1.4012,1.366,1.3158,1.2312,1.2213,1.1909,1.12,1.1353,1.1265,1.0704,1.0706,1.0566,1.0178,0.9996,0.9561,0.8814,0.8661,0.8341,0.7814,0.768,0.7591,0.7547,0.7304,0.7067,3.0581,3.0784,3.1135,3.2112,3.1953,3.1517,3.1456,3.0319,2.8954,2.7647,2.6682,2.5937,2.5526,2.6081,2.6779,2.7186,2.8362,2.9519,3.0379,3.0356,3.0555,3.1367,3.0537,3.0304,3.1363,3.018,2.9721,3.0605,2.9632,2.9018,2.9046,2.8769,2.9043,2.9937,2.9911,3.0005,3.0256,3.0653,3.0631,3.0166,3.0219,3.0104,2.9895,2.9363,2.9157,2.9188,2.8824,2.864,2.8588,2.8551,2.843,2.8178,2.7388,2.7131,2.703,2.567,2.5226,2.5258,2.5089,2.4711,2.4368,2.4703,2.4351,2.3666,2.2846,2.2272,2.1754,2.1045,2.0876,2.0873,2.0659,1.992,1.9109,1.8698,1.7825,1.7086,1.7092,1.6784,1.6368,1.5967,1.5666,1.5472,1.5465,1.5188,1.5053,1.5323,1.5084,1.4692,1.4204,1.3902,1.3278,1.2135,1.1916,1.1637,1.1107,1.1177,1.1091,1.0707,1.0633,1.0504,1.0202,0.9871,0.9386,0.871,0.8473,0.8213,0.7908,0.7439,0.7365,0.764,0.7023,0.6759,2.999,3.0388,3.0978,3.1207,3.0855,3.0521,3.0815,2.8972,2.7131,2.6986,2.588,2.4938,2.4873,2.5339,2.574,2.5788,2.6665,2.7461,2.7801,2.8603,2.9197,2.9351,2.9693,2.9759,2.9409,2.9066,2.8811,2.8683,2.8726,2.8754,2.8814,2.835,2.8421,2.9195,2.8978,2.9046,2.949,2.9728,2.968,2.9399,2.9605,2.9659,2.9612,2.8897,2.87,2.8911,2.8269,2.8208,2.8485,2.8111,2.8172,2.8413,2.766,2.701,2.647,2.6174,2.5301,2.4354,2.5168,2.4668,2.3802,2.4566,2.4239,2.3456,2.3083,2.2168,2.1346,2.1529,2.0798,1.9991,2.0273,1.9471,1.8428,1.7785,1.735,1.7107,1.7081,1.7065,1.6869,1.6282,1.5951,1.5739,1.5674,1.5384,1.5268,1.5523,1.5149,1.4682,1.4332,1.3824,1.3236,1.2426,1.2183,1.1914,1.1584,1.1283,1.1,1.0715,1.0476,1.0202,0.9871,0.9568,0.9194,0.8716,0.8565,0.82,0.7651,0.7822,0.7566,0.6901,0.7061,0.699,2.9876,3.0412,3.0993,3.089,3.0602,3.0339,3.0229,2.849,2.6836,2.6609,2.5443,2.4543,2.4767,2.4702,2.4689,2.4909,2.5504,2.6023,2.6201,2.6869,2.755,2.8185,2.8299,2.854,2.9048,2.8875,2.8814,2.8994,2.8667,2.8594,2.8897,2.8873,2.9037,2.943,2.9501,2.9387,2.9097,2.9626,2.9405,2.8462,2.9025,2.9053,2.8578,2.8217,2.8137,2.8198,2.7548,2.7557,2.8035,2.7627,2.7495,2.7406,2.6877,2.6615,2.6415,2.5602,2.512,2.4838,2.4527,2.3912,2.3328,2.3588,2.3187,2.2593,2.2481,2.1863,2.1145,2.0927,2.0344,1.978,1.9752,1.8861,1.7831,1.7372,1.7179,1.7138,1.7303,1.7203,1.7029,1.6737,1.6287,1.5977,1.5946,1.5667,1.5405,1.5313,1.5131,1.4752,1.4151,1.374,1.3211,1.2414,1.2257,1.201,1.1468,1.123,1.0989,1.0724,1.0449,1.0147,0.9816,0.9541,0.9154,0.8599,0.8321,0.8075,0.7835,0.7532,0.7259,0.6991,0.691,0.6651,2.9535,3.0173,3.0794,3.0528,3.0322,3.007,2.9723,2.8176,2.668,2.6189,2.5033,2.4183,2.4354,2.4026,2.3845,2.4253,2.4687,2.502,2.5179,2.5676,2.6345,2.7194,2.713,2.7452,2.8647,2.8767,2.8866,2.901,2.8764,2.8657,2.8839,2.9237,2.9396,2.9261,2.9438,2.9256,2.862,2.9126,2.8834,2.7768,2.8485,2.8505,2.7949,2.7821,2.7691,2.7531,2.6843,2.6793,2.712,2.6686,2.6473,2.6392,2.5989,2.5838,2.5749,2.4842,2.4579,2.4577,2.3774,2.3235,2.283,2.2673,2.2213,2.1735,2.1693,2.1335,2.0845,2.043,1.992,1.9401,1.8872,1.8097,1.7387,1.7151,1.7029,1.7044,1.731,1.7225,1.7026,1.6809,1.6471,1.6134,1.5865,1.5641,1.5427,1.5254,1.5023,1.4685,1.4182,1.3635,1.3107,1.254,1.2269,1.1902,1.1376,1.1221,1.102,1.0805,1.0437,1.011,0.9816,0.9458,0.9016,0.8512,0.818,0.7983,0.7935,0.7376,0.7077,0.7041,0.6804,0.6407,2.8793,2.9599,3.0248,2.9982,2.976,2.9577,2.9333,2.7908,2.641,2.5735,2.4576,2.3647,2.3442,2.3248,2.3283,2.3818,2.4187,2.447,2.4689,2.5216,2.5782,2.626,2.6303,2.6755,2.7917,2.8627,2.8778,2.8252,2.889,2.906,2.852,2.9204,2.9177,2.8252,2.8232,2.8106,2.7895,2.792,2.7768,2.7399,2.7861,2.8105,2.8105,2.7839,2.7454,2.6979,2.6292,2.5867,2.5597,2.5131,2.5187,2.5578,2.5112,2.4597,2.4127,2.4109,2.3655,2.3032,2.31,2.2755,2.2274,2.206,2.1607,2.1061,2.0785,2.0515,2.0299,2.0299,1.9618,1.8615,1.7431,1.7097,1.7102,1.7102,1.689,1.6779,1.7044,1.7092,1.692,1.6316,1.6366,1.6222,1.5347,1.5199,1.5303,1.5569,1.4869,1.4397,1.456,1.3602,1.2912,1.2883,1.2171,1.1608,1.1422,1.1289,1.1143,1.1008,1.0421,1.0008,0.9824,0.921,0.8768,0.8512,0.818,0.7941,0.7811,0.7476,0.7163,0.6888,0.6759,0.6401,2.7465,2.8175,2.8994,2.8412,2.8123,2.797,2.8,2.6981,2.589,2.5257,2.4253,2.3494,2.3537,2.319,2.3145,2.3843,2.4167,2.432,2.4298,2.4671,2.5182,2.5677,2.6722,2.7654,2.8355,2.8727,2.8875,2.8702,2.8716,2.8617,2.8235,2.8609,2.8485,2.7678,2.8157,2.7909,2.6877,2.7634,2.7583,2.6732,2.7754,2.7904,2.7355,2.7363,2.7117,2.6692,2.5964,2.5522,2.5321,2.512,2.4846,2.456,2.4569,2.4429,2.4184,2.3822,2.3568,2.3322,2.2747,2.2147,2.157,2.1375,2.1056,2.0719,2.0436,2.0174,1.9806,1.9181,1.8801,1.8331,1.7343,1.6959,1.6824,1.6813,1.6633,1.6489,1.6767,1.6686,1.6532,1.6544,1.612,1.5715,1.5636,1.5284,1.4877,1.4559,1.4278,1.397,1.3635,1.3057,1.2562,1.2264,1.1908,1.1659,1.16,1.1285,1.1057,1.1,1.0293,0.9868,0.9789,0.921,0.8768,0.8512,0.818,0.7941,0.7789,0.7476,0.7104,0.6734,0.6116,0.5735,2.6281,2.6998,2.7736,2.7059,2.6943,2.6873,2.6496,2.5843,2.5076,2.419,2.3416,2.2933,2.3024,2.28,2.2873,2.3611,2.3781,2.3891,2.4059,2.4245,2.4623,2.5308,2.6822,2.7766,2.7695,2.8287,2.8498,2.8137,2.8261,2.8229,2.7949,2.8258,2.8139,2.7548,2.8044,2.7762,2.6495,2.718,2.7103,2.6313,2.7284,2.7458,2.693,2.6998,2.6753,2.6275,2.5661,2.5151,0.0,2.467,2.4354,2.3997,2.4101,2.4014,2.3769,2.3558,2.3278,2.2937,2.2175,2.1661,2.1277,2.0845,2.0363,1.9911,1.9598,1.9484,1.9266,1.8363,1.8109,1.7932,1.7148,1.6738,1.6551,1.6556,1.6332,1.6184,1.635,1.6355,1.6295,1.6233,1.5851,1.5502,1.5332,1.4917,1.4445,1.4057,1.3827,1.3542,1.3146,1.2652,1.2191,1.1864,1.1586,1.1465,1.1503,1.1241,1.1037,1.1,1.0329,0.9876,0.9789,0.9127,0.8602,0.8318,0.8063,0.7844,0.7692,0.7303,0.6965,0.6681,0.5862,0.5452,0.0,2.5906,2.6366,2.5809,2.5991,2.6031,2.492,2.453,0.0,2.2725,2.2269,2.2102,2.2107,2.2209,2.2513,2.3202,2.3156,2.33,2.4021,2.4016,2.4303,2.5215,2.6681,2.7256,2.6373,2.7427,2.7753,2.6859,2.7583,2.7949,2.7643,2.802,2.8079,2.7689,2.793,2.759,2.6628,2.6596,2.6461,2.617,2.6612,2.6827,2.679,2.6763,2.6405,2.5722,2.533,2.477,2.4152,2.3904,2.378,2.3755,2.3755,2.3456,2.3005,2.3256,2.2812,2.203,2.1503,2.1344,2.1239,2.0465,1.9598,1.8837,1.8504,1.8608,1.8645,1.7842,1.7567,1.742,1.6851,1.6489,1.6284,1.6311,1.6079,1.5877,1.5869,1.6053,1.6054,1.5479,1.5552,1.5468,1.4661,1.4284,1.4082,1.3988,1.3527,1.315,1.3022,1.2354,1.1831,1.1654,1.1244,1.1021,1.1163,1.1158,1.1122,1.098,1.0393,0.998,0.9769,0.8995,0.8393,0.8032,0.789,0.7732,0.7559,0.7085,0.681,0.669,0.5941,0.5514,2.2643,0.0,2.4505,2.3664,2.353,2.3577,0.0,2.3271,2.296,2.2388,2.2102,2.2005,2.2204,2.2273,2.2531,2.3245,2.3474,2.3684,2.411,2.4891,2.568,2.6415,2.7158,2.752,2.7296,2.7471,2.7372,2.6834,2.7424,2.7519,2.6885,2.7581,2.7841,2.7477,2.7531,2.7247,2.6602,2.6695,2.6717,2.6657,2.7073,2.7092,2.679,2.6578,2.608,2.5293,2.4812,2.4336,2.3879,2.3829,2.3555,2.3206,2.3431,2.318,2.2703,2.2779,2.2485,2.2063,2.1797,2.1422,2.0984,2.045,1.9666,1.885,1.8576,1.8337,1.8113,1.7735,1.7424,1.7146,1.6795,1.6362,1.6049,1.6256,1.5955,1.5601,1.5579,1.5456,1.5274,1.5111,1.4933,1.4816,1.4872,1.4468,1.402,1.3803,1.3446,1.2979,1.2349,1.1917,1.1569,1.1281,1.0943,1.0862,1.1041,1.0914,1.075,1.0642,1.0055,0.9644,0.9493,0.921,0.8765,0.8172,0.8113,0.8071,0.804,0.7774,0.7378,0.6829,0.589,0.5445,2.1397,2.2451,2.3401,2.2846,2.2935,2.3018,2.2514,2.225,2.1953,2.1358,2.1271,2.1441,2.1887,2.1988,2.2268,2.2942,2.3285,2.3752,2.4661,2.5538,2.6304,2.683,2.7228,2.7324,2.696,2.6863,2.6735,2.6636,2.6992,2.7163,2.7098,2.7453,2.7664,2.7638,2.7368,2.708,2.6785,2.6665,2.6552,2.6446,2.6483,2.6292,2.5956,2.564,2.5179,2.4612,2.417,2.3828,2.3605,2.3481,2.3163,2.2787,2.3088,2.2787,2.2207,2.2459,2.2207,2.1698,2.1505,2.1097,2.0607,2.0185,1.9458,1.8648,1.8355,1.7951,1.7551,1.7395,1.7151,1.6911,1.6887,1.6458,1.6054,1.6101,1.5779,1.5402,1.5305,1.5127,1.4987,1.4911,1.4696,1.4526,1.4495,1.4061,1.3668,1.3461,1.3178,1.2766,1.2054,1.1843,1.1531,1.0979,1.0798,1.0729,1.0862,1.0581,1.0415,1.0493,1.0129,0.978,0.9517,0.9206,0.8861,0.8433,0.8284,0.8234,0.8292,0.7723,0.7266,0.6867,0.5841,0.5292,2.0884,2.1815,2.271,2.2478,2.2921,2.3058,2.1781,2.1362,2.1035,2.026,2.04,2.0848,2.1551,2.1779,2.2069,2.2719,2.3103,2.3838,2.5329,2.5956,2.6445,2.6846,2.7023,2.6856,2.6163,2.6146,2.6197,2.6298,2.6499,2.6853,2.748,2.7267,2.7297,2.7596,2.7056,2.6749,2.6749,2.647,2.6197,2.5884,2.5527,2.5188,2.4907,2.4512,2.4153,2.3827,2.3493,2.3359,2.3306,2.3057,2.2763,2.2535,2.2812,2.2409,2.1751,2.2257,2.1928,2.1203,2.0903,2.0557,2.0159,1.9822,1.9132,1.8383,1.8132,1.7579,1.7044,1.7129,1.6907,1.6686,1.6867,1.6513,1.6053,1.5932,1.5638,1.5335,1.5088,1.5037,1.4983,1.4769,1.4673,1.4497,1.4031,1.3643,1.3339,1.3193,1.2946,1.2534,1.1939,1.1819,1.1507,1.0795,1.0688,1.0704,1.0673,1.0288,1.019,1.0439,1.0284,0.999,0.9624,0.9116,0.8837,0.8797,0.8414,0.8287,0.8403,0.748,0.699,0.6867,0.5849,0.5252,2.0938,2.1636,2.2034,2.1344,2.159,2.1754,2.0806,2.0575,2.0455,2.0161,2.05,2.1093,2.1808,2.2275,2.2746,2.3289,2.3887,2.4634,2.5625,2.6025,2.6379,2.6839,2.6544,2.6235,2.6115,2.6251,2.6259,2.5998,2.6352,2.6595,2.6612,2.6263,2.6132,2.6281,2.5861,2.5651,2.5651,2.5927,2.5882,2.548,2.519,2.4861,2.4484,2.4199,2.3713,2.3067,2.3116,2.3098,2.2955,2.2818,2.2647,2.251,2.256,2.2232,2.1751,2.2055,2.1649,2.0869,2.014,1.9881,1.9817,1.9556,1.8829,1.8121,1.8298,1.7604,1.6851,1.7298,1.6925,1.6322,1.605,1.5814,1.5646,1.5783,1.5599,1.5353,1.5272,1.5222,1.5034,1.4539,1.462,1.4656,1.4286,1.3954,1.3654,1.346,1.2984,1.2382,1.1734,1.1397,1.1078,1.0751,1.0688,1.0643,1.0551,1.0449,1.0406,1.0342,0.9831,0.9545,0.9596,0.8995,0.8827,0.9212,0.8641,0.8379,0.8403,0.7969,0.7449,0.6867,0.6094,0.574,2.0308,2.0849,2.128,2.1183,2.1829,2.2258,2.1487,2.1224,2.1107,2.0943,2.1015,2.1363,2.2207,2.2387,2.2672,2.3574,2.3947,2.4491,2.5501,2.5736,2.597,2.6432,2.6115,2.5971,2.6251,2.62,2.6265,2.6472,2.6564,2.6576,2.6508,2.6071,2.5819,2.59,2.5577,2.5297,2.5076,2.513,2.513,2.5076,2.4793,2.4397,2.3867,2.3776,2.3374,2.2809,2.2851,2.2783,2.2536,2.2272,2.2027,2.1878,2.2004,2.1751,2.1267,2.1241,2.101,2.0637,1.9935,1.9663,1.9512,1.907,1.8389,1.7751,1.7541,1.7114,1.6642,1.6424,1.6433,1.651,1.6494,1.6192,1.5916,1.6034,1.5696,1.5373,1.5477,1.5264,1.4923,1.4578,1.4553,1.4446,1.4035,1.3791,1.3587,1.3471,1.3066,1.2551,1.1943,1.1685,1.1427,1.1017,1.0899,1.0847,1.0795,1.0606,1.0402,1.0193,0.9944,0.9689,0.9449,0.9329,0.9211,0.9098,0.8824,0.8488,0.8122,0.7602,0.7112,0.6618,0.5833,0.5428,1.983,2.0309,2.0772,2.1186,2.1975,2.2582,2.2234,2.1891,2.1695,2.183,2.1804,2.1965,2.2724,2.2759,2.2991,2.3949,2.4142,2.4513,2.5437,2.5698,2.5892,2.6112,2.6011,2.6009,2.6303,2.6293,2.6403,2.6762,2.6628,2.65,2.6423,2.5771,2.5477,2.557,2.522,2.4889,2.4553,2.4408,2.439,2.4553,2.4224,2.3809,2.3306,2.3381,2.3092,2.2585,2.2727,2.258,2.2138,2.194,2.1629,2.1318,2.1598,2.1369,2.0873,2.0539,2.0358,2.0219,1.9611,1.9209,1.8905,1.8493,1.7926,1.733,1.6972,1.6763,1.6454,1.579,1.6032,1.6546,1.6681,1.6426,1.6136,1.6238,1.5823,1.5478,1.575,1.5412,1.4987,1.4757,1.4581,1.4313,1.3875,1.3625,1.3433,1.3304,1.2964,1.2552,1.2075,1.1898,1.167,1.124,1.111,1.1029,1.0972,1.07,1.0401,1.0125,1.0115,0.9917,0.9427,0.9518,0.9366,0.8915,0.8671,0.8317,0.7793,0.7122,0.6662,0.6403,0.5652,0.5164,1.993,2.0465,2.0901,2.0921,2.1139,2.1495,2.2133,2.1728,2.1521,2.2441,2.281,2.3046,2.3317,2.3888,2.4423,2.4676,2.51,2.5478,2.5735,2.6324,2.6591,2.6309,2.6433,2.6449,2.6134,2.6709,2.6838,2.621,2.6198,2.6139,2.5874,2.4874,2.4502,2.4863,2.4245,2.3902,2.3866,2.3985,2.3967,2.3866,2.3341,2.3073,2.303,2.31,2.2758,2.219,2.2869,2.2611,2.1766,2.2121,2.1884,2.1318,2.1598,2.1369,2.0848,2.0318,1.9817,1.9316,1.87,1.8149,1.7769,1.7988,1.7453,1.6839,1.7317,1.6908,1.6292,1.6166,1.6032,1.5893,1.5602,1.5717,1.5959,1.6156,1.5936,1.5733,1.6012,1.5806,1.544,1.5135,1.4798,1.45,1.4202,1.375,1.3313,1.2971,1.2487,1.2046,1.1771,1.1434,1.1232,1.1195,1.1179,1.1093,1.0834,1.0691,1.0443,1.011,1.0215,1.0142,0.9792,0.9244,0.8946,0.8915,0.8,0.7501,0.751,0.6787,0.6452,0.6469,0.5855,0.5456,1.937,1.9945,2.0443,2.0664,2.0852,2.1154,2.1673,2.1952,2.2302,2.2855,2.3174,2.3337,2.3284,2.3846,2.4251,2.4022,2.4481,2.503,2.5478,2.5875,2.6123,2.6123,2.6257,2.6301,2.6172,2.6427,2.6472,2.6191,2.5945,2.5579,2.5032,2.4492,2.4275,2.4415,2.4194,2.4053,2.4053,2.3774,2.3598,2.3555,2.3427,2.3232,2.3005,2.3074,2.2877,2.2501,2.2761,2.2571,2.2046,2.1793,2.1524,2.1267,2.1053,2.0822,2.0565,1.9869,1.948,1.9223,1.866,1.8197,1.7795,1.7572,1.7136,1.6621,1.6093,1.5889,1.5678,1.5121,1.5146,1.5414,1.5646,1.5793,1.5937,1.6144,1.5936,1.5761,1.6035,1.5839,1.5453,1.4888,1.4679,1.4441,1.3963,1.3716,1.3444,1.296,1.2655,1.2313,1.187,1.1669,1.1565,1.1565,1.1459,1.1336,1.1248,1.0989,1.0777,1.0546,1.0456,1.0132,0.9525,0.9441,0.915,0.8667,0.8151,0.7712,0.7309,0.6732,0.6265,0.5865,0.5685,0.5251,1.9002,1.9536,2.0108,2.0443,2.0655,2.0928,2.1454,2.2048,2.271,2.3402,2.3587,2.3617,2.3536,2.3781,2.3898,2.363,2.4022,2.4563,2.5139,2.5419,2.5678,2.5935,2.6104,2.6198,2.6172,2.6249,2.6218,2.6008,2.5743,2.5333,2.4709,2.4381,2.4257,2.4404,2.4176,2.4028,2.3954,2.3506,2.318,2.2987,2.3089,2.309,2.3045,2.2997,2.2884,2.2703,2.2703,2.2428,2.1959,2.1687,2.1394,2.113,2.0668,2.0333,2.005,1.9506,1.9116,1.8831,1.8476,1.801,1.754,1.7266,1.6834,1.6314,1.5514,1.5325,1.5214,1.4515,1.4584,1.499,1.5498,1.5674,1.5825,1.6093,1.5937,1.5777,1.6057,1.5839,1.5453,1.5007,1.4739,1.4471,1.4052,1.3756,1.3422,1.2894,1.2711,1.2431,1.1916,1.1815,1.1806,1.1806,1.1711,1.1646,1.1589,1.1195,1.0906,1.086,1.0466,0.9984,0.9382,0.9381,0.9089,0.852,0.8108,0.7576,0.6969,0.6458,0.5921,0.5362,0.535,0.495,1.9001,1.9402,1.9975,2.0321,2.0511,2.0814,2.1542,2.1914,2.2557,2.4172,2.4179,2.3949,2.4168,2.3818,2.357,2.376,2.3961,2.4264,2.4742,2.5081,2.5438,2.5841,2.606,2.6172,2.6095,2.6378,2.6283,2.5541,2.5547,2.5447,2.51,2.4528,2.4379,2.4783,2.4147,2.368,2.3406,2.3155,2.2686,2.2106,2.2106,2.246,2.3091,2.2832,2.2703,2.2703,2.2703,2.2166,2.136,2.1878,2.1623,2.0873,2.0591,1.9998,1.9298,1.9298,1.8724,1.799,1.799,1.7437,1.676,1.7025,1.6547,1.5892,1.5884,1.5453,1.4934,1.4665,1.4611,1.4667,1.4922,1.5209,1.5516,1.5989,1.5901,1.5765,1.6031,1.5839,1.5601,1.5601,1.5037,1.459,1.459,1.3937,1.3251,1.2787,1.2536,1.2247,1.1842,1.1806,1.1806,1.1806,1.1922,1.1932,1.1823,1.1194,1.086,1.0969,1.0181,0.9633,0.9499,0.8995,0.8652,0.8489,0.7632,0.6969,0.6491,0.5894,0.5419,0.5098,0.4889,0.461,1.8709,1.9291,2.0003,1.9856,2.0979,2.2124,2.2348,2.2495,2.2924,2.4053,2.3938,2.3578,2.3503,2.3737,2.3845,2.3642,2.3872,2.4315,2.4929,2.5098,2.5121,2.5064,2.5892,2.6072,2.5083,2.5491,2.5604,2.5055,2.4883,2.4715,2.4467,2.43,2.4257,2.436,2.4201,2.3954,2.368,2.3431,2.3105,2.2736,2.2308,2.2358,2.2806,2.2547,2.2645,2.3037,2.2852,2.2494,2.195,2.1457,2.0883,2.0292,1.9843,1.9506,1.922,1.862,1.8365,1.8278,1.7876,1.7549,1.7266,1.6989,1.6562,1.607,1.5449,1.5152,1.4941,1.4631,1.4702,1.4883,1.4914,1.527,1.5664,1.5781,1.5756,1.5707,1.5725,1.5661,1.5453,1.4977,1.4739,1.4471,1.4052,1.3765,1.3469,1.3105,1.2791,1.2423,1.1859,1.1806,1.1806,1.1806,1.1855,1.1734,1.1466,1.1355,1.1017,1.0325,0.9997,0.9781,0.964,0.9216,0.8773,0.8309,0.7652,0.7108,0.6655,0.6237,0.5666,0.5026,0.5165,0.4751,1.9209,1.9757,2.045,2.0325,2.1513,2.2847,2.3303,2.3296,2.339,2.4066,2.3763,2.3426,2.3549,2.3718,2.3806,2.3639,2.3814,2.4123,2.4538,2.4481,2.4442,2.4452,2.5049,2.5178,2.4495,2.4781,2.4932,2.4695,2.4554,2.448,2.444,2.4293,2.4225,2.4265,2.4119,2.3854,2.3506,2.3331,2.2987,2.2485,2.2106,2.2103,2.2365,2.206,2.2274,2.2841,2.2311,2.1972,2.171,2.1043,2.039,1.975,1.9428,1.9089,1.8724,1.82,1.8049,1.809,1.7739,1.7447,1.7204,1.6864,1.6414,1.591,1.5445,1.5162,1.4974,1.4861,1.4899,1.4948,1.4904,1.5206,1.5507,1.5507,1.5573,1.5653,1.5599,1.5601,1.5453,1.4918,1.4679,1.4441,1.3992,1.3783,1.3594,1.3264,1.2814,1.2333,1.1867,1.1833,1.1849,1.1815,1.1841,1.1752,1.1408,1.1318,1.0966,1.0215,1.0006,0.9792,0.9469,0.9102,0.8607,0.8012,0.7649,0.7108,0.6415,0.6006,0.5474,0.4853,0.4943,0.4578,2.0121,2.0571,2.1144,2.1246,2.211,2.3196,2.428,2.4196,2.3906,2.4125,2.3646,2.337,2.3967,2.3806,2.3641,2.3834,2.3848,2.3828,2.3767,2.3564,2.3563,2.3948,2.3854,2.39,2.4249,2.4282,2.4355,2.4461,2.4455,2.4566,2.4728,2.4379,2.4236,2.4347,2.3978,2.353,2.3005,2.3005,2.256,2.1751,2.1725,2.1769,2.1895,2.1477,2.1677,2.2296,2.1369,2.0924,2.0855,2.0636,2.0035,1.9246,1.922,1.8724,1.799,1.7964,1.7822,1.7629,1.755,1.7183,1.673,1.6654,1.613,1.5582,1.5748,1.5446,1.5072,1.5271,1.5167,1.4969,1.4952,1.5095,1.5278,1.5199,1.54,1.5601,1.5601,1.5601,1.5472,1.5116,1.4799,1.45,1.4202,1.3903,1.3564,1.3204,1.2625,1.2152,1.1837,1.1914,1.1947,1.1823,1.1931,1.1843,1.1503,1.1193,1.0864,1.0376,1.013,0.9703,0.9111,0.8784,0.8316,0.7671,0.7511,0.6967,0.6012,0.5532,0.505,0.4624,0.4506,0.4262,2.009,2.0555,2.1223,2.1106,2.2484,2.4054,2.4687,2.4568,2.4252,2.3944,2.3479,2.3273,2.3758,2.4052,2.4225,2.4258,2.4277,2.4092,2.3557,2.3432,2.3357,2.3248,2.3809,2.4126,2.4005,2.4261,2.4387,2.4257,2.4251,2.4288,2.433,2.4058,2.389,2.3931,2.3641,2.3331,2.3005,2.3005,2.2661,2.2004,2.1801,2.1769,2.1885,2.1526,2.1639,2.2037,2.109,2.0712,2.0688,2.0129,1.9539,1.8974,1.8698,1.8344,1.7964,1.7766,1.7782,1.7809,1.7139,1.6982,1.6981,1.6304,1.5934,1.5812,1.5857,1.561,1.5371,1.5556,1.5563,1.5477,1.52,1.5529,1.5777,1.53,1.54,1.5601,1.5601,1.5601,1.5423,1.4828,1.465,1.4441,1.3903,1.3753,1.3504,1.2904,1.2685,1.2393,1.1867,1.1839,1.1817,1.1815,1.1931,1.175,1.1162,1.1277,1.1038,1.013,0.9948,0.9628,0.9117,0.8784,0.8254,0.7466,0.7182,0.6673,0.5988,0.5978,0.5593,0.4837,0.4904,0.4583,2.0681,2.1002,2.1572,2.2228,2.3284,2.4321,2.4783,2.4571,2.4184,2.3745,2.3363,2.3237,2.3711,2.4141,2.4355,2.4141,2.4254,2.4131,2.3354,2.3339,2.322,2.2782,2.3363,2.3724,2.3463,2.379,2.3981,2.3859,2.3943,2.3912,2.3705,2.3622,2.3555,2.3431,2.3281,2.308,2.2812,2.2804,2.251,2.1903,2.1776,2.1534,2.1237,2.1343,2.1428,2.1442,2.1036,2.0662,2.0381,2.0238,1.959,1.8674,1.8812,1.8519,1.7983,1.8023,1.7937,1.7757,1.7425,1.7144,1.6922,1.6568,1.6176,1.5881,1.5983,1.5671,1.5342,1.5602,1.5642,1.5591,1.5278,1.5547,1.5755,1.5311,1.54,1.5601,1.5601,1.5601,1.5394,1.4739,1.459,1.4411,1.3813,1.3693,1.3414,1.2595,1.2595,1.2483,1.1897,1.1806,1.1809,1.189,1.1906,1.1796,1.1507,1.1391,1.1059,1.0399,1.0183,0.9795,0.9123,0.8644,0.8094,0.7402,0.7087,0.6677,0.6146,0.6065,0.5683,0.5093,0.5125,0.4646,2.1115,2.1334,2.175,2.3326,2.3844,2.4083,2.4547,2.4337,2.3885,2.3507,2.3313,2.3337,2.373,2.4141,2.4277,2.3867,2.4082,2.3997,2.3088,2.3149,2.3083,2.2463,2.2864,2.314,2.3028,2.3297,2.3499,2.345,2.3693,2.3648,2.3153,2.3316,2.3306,2.308,2.298,2.2804,2.251,2.251,2.2207,2.1623,2.1573,2.1206,2.0529,2.107,2.1122,2.0778,2.0845,2.0529,2.0004,2.0328,1.9653,1.8483,1.9066,1.8796,1.8102,1.8342,1.8074,1.7626,1.7748,1.7291,1.673,1.6899,1.6459,1.5914,1.6207,1.5854,1.5416,1.5674,1.572,1.5618,1.5335,1.5421,1.5548,1.5325,1.5432,1.5572,1.5542,1.5572,1.5394,1.4739,1.456,1.4381,1.3873,1.3753,1.3384,1.2505,1.2599,1.2565,1.1999,1.191,1.1922,1.203,1.1894,1.1836,1.2009,1.15,1.107,1.0803,1.049,0.9977,0.9252,0.8533,0.7931,0.7483,0.7093,0.6706,0.6284,0.6025,0.569,0.5279,0.5214,0.4641,2.0177,2.0427,2.1144,2.2591,2.3023,2.3185,2.3587,2.3636,2.3507,2.321,2.3437,2.3711,2.3769,2.4141,2.4277,2.3867,2.3851,2.3576,2.2609,2.2719,2.2742,2.2367,2.2588,2.2941,2.3376,2.3462,2.3426,2.3232,2.3809,2.3864,2.322,2.3316,2.3381,2.3356,2.2904,2.2485,2.2182,2.2182,2.1903,2.1343,2.113,2.0822,2.0514,2.0818,2.0716,2.0291,2.0001,1.969,1.9415,1.9456,1.9074,1.8521,1.8846,1.8741,1.8409,1.8159,1.7867,1.7535,1.7044,1.6815,1.667,1.648,1.6303,1.6252,1.6808,1.6518,1.6044,1.6292,1.6224,1.5957,1.5618,1.558,1.5591,1.5558,1.558,1.5512,1.5235,1.5383,1.5394,1.4739,1.4411,1.4232,1.4142,1.3903,1.3564,1.3144,1.3025,1.2825,1.2457,1.232,1.2247,1.2264,1.1964,1.1846,1.1992,1.1411,1.1055,1.1141,1.0349,0.9844,0.9724,0.8512,0.7832,0.7739,0.6965,0.6473,0.6284,0.6251,0.5885,0.52,0.519,0.4762,2.0274,2.0878,2.1697,2.2572,2.294,2.3139,2.3419,2.3426,2.3295,2.3123,2.3474,2.3711,2.3454,2.3769,2.3926,2.3474,2.3633,2.3521,2.2741,2.2786,2.2718,2.2254,2.2755,2.3165,2.3151,2.362,2.3688,2.3178,2.3297,2.3193,2.2722,2.2635,2.2728,2.2937,2.2535,2.2257,2.2106,2.1954,2.1674,2.1292,2.0873,2.0539,2.0266,2.0395,2.0343,2.0158,2.0204,2.0031,1.9796,1.9841,1.9519,1.9029,1.9306,1.9123,1.8703,1.8381,1.7996,1.7573,1.7291,1.6789,1.6279,1.6446,1.6238,1.5955,1.6241,1.6089,1.5843,1.5954,1.5898,1.5779,1.5631,1.5601,1.5542,1.5353,1.5324,1.5235,1.4888,1.5245,1.5394,1.4739,1.4381,1.4082,1.3693,1.3607,1.3408,1.2891,1.2747,1.2625,1.2424,1.2228,1.219,1.2296,1.2178,1.2059,1.2,1.1394,1.1014,1.102,1.0166,0.9623,0.9623,0.8528,0.7792,0.7522,0.6712,0.624,0.6202,0.5953,0.5577,0.5042,0.5,0.447,2.0188,2.0892,2.1532,2.2227,2.2594,2.2849,2.3173,2.3118,2.3027,2.3016,2.3452,2.363,2.3113,2.3452,2.363,2.3113,2.3329,2.3338,2.2785,2.2796,2.267,2.2147,2.2654,2.3004,2.2913,2.328,2.3335,2.2895,2.275,2.2507,2.2198,2.2132,2.2299,2.2686,2.2384,2.2156,2.2004,2.1649,2.1394,2.119,2.0719,2.0359,2.0112,2.0112,1.9983,1.9817,2.0188,2.0178,1.9894,2.0006,1.9749,1.9292,1.9497,1.9292,1.884,1.844,1.7986,1.7562,1.7259,1.667,1.605,1.6369,1.6103,1.5738,1.5863,1.5803,1.572,1.572,1.572,1.572,1.5631,1.5542,1.5413,1.5264,1.5175,1.4997,1.4679,1.5067,1.5304,1.4709,1.4441,1.4112,1.3534,1.356,1.3453,1.2961,1.2885,1.2841,1.2638,1.2477,1.2399,1.2491,1.2266,1.2139,1.2157,1.138,1.0878,1.0887,1.0085,0.9521,0.941,0.8515,0.7792,0.7389,0.6473,0.5993,0.5988,0.5688,0.5306,0.4906,0.4753,0.4227,1.9382,1.9497,1.9658,2.0975,2.1431,2.1767,2.2386,2.2539,2.2592,2.2782,2.334,2.3585,2.2937,2.334,2.3585,2.2915,2.2835,2.2766,2.2463,2.2438,2.235,2.2128,2.192,2.2089,2.284,2.2188,2.1877,2.2215,2.225,2.2108,2.1846,2.2188,2.2554,2.2962,2.2728,2.2283,2.1725,2.119,2.0925,2.0925,2.0617,2.0359,2.0112,2.0112,1.9672,1.9,1.952,1.9457,1.9005,1.9256,1.919,1.8919,1.8947,1.8936,1.879,1.7945,1.7626,1.7452,1.6374,1.6129,1.6222,1.5936,1.5795,1.5801,1.6299,1.6272,1.6057,1.6057,1.6057,1.5998,1.569,1.5353,1.5205,1.5512,1.5324,1.4997,1.4679,1.4878,1.5026,1.4679,1.459,1.45,1.4202,1.4055,1.3953,1.3922,1.3968,1.3897,1.3585,1.3418,1.326,1.3069,1.2194,1.1904,1.2533,1.1308,1.0622,1.0894,1.0202,0.9595,0.9136,0.8414,0.7857,0.7584,0.6431,0.5747,0.5642,0.5604,0.5355,0.4909,0.4561,0.4184,1.9092,1.9083,1.9069,2.0412,2.0712,2.0918,2.1877,2.2109,2.2284,2.2877,2.3064,2.3,2.2508,2.3166,2.3585,2.2915,2.2904,2.286,2.2463,2.2397,2.2331,2.2109,2.1992,2.2016,2.2307,2.2112,2.1978,2.1954,2.1743,2.1712,2.1935,2.1824,2.2048,2.2719,2.2434,2.2004,2.1445,2.1078,2.0822,2.0642,2.0385,2.0086,1.9828,1.948,1.9168,1.8895,1.8881,1.9096,1.947,1.9354,1.936,1.9444,1.9043,1.8909,1.8794,1.7932,1.772,1.7742,1.696,1.636,1.5975,1.6035,1.5747,1.5402,1.5606,1.5718,1.5779,1.5779,1.5779,1.575,1.5631,1.5649,1.5679,1.5706,1.5656,1.5473,1.5197,1.535,1.5503,1.5381,1.5381,1.5289,1.5013,1.4634,1.4392,1.4392,1.3857,1.3453,1.3477,1.3117,1.2849,1.2784,1.235,1.2022,1.1899,1.1136,1.0492,1.0217,0.9749,0.9251,0.8722,0.8024,0.7357,0.6837,0.5901,0.5512,0.5711,0.5158,0.482,0.4623,0.3964,0.3424,1.8538,1.8548,1.8577,1.9877,2.0198,2.0444,2.1447,2.166,2.1854,2.245,2.2573,2.2445,2.1959,2.2568,2.294,2.2274,2.2399,2.2432,2.2145,2.2126,2.2154,2.2128,2.192,2.1848,2.1992,2.1822,2.1667,2.1642,2.1339,2.1361,2.1789,2.1679,2.1926,2.2585,2.2106,2.1649,2.1292,2.095,2.0642,2.0359,2.0086,1.9879,1.9672,1.9156,1.8895,1.8869,1.8567,1.8823,1.9465,1.9249,1.9306,1.9441,1.8918,1.8743,1.8638,1.7761,1.7669,1.7864,1.6963,1.6348,1.5943,1.6,1.5652,1.521,1.5314,1.5443,1.5572,1.5453,1.5596,1.575,1.575,1.5922,1.6046,1.5866,1.5961,1.6045,1.5857,1.5898,1.5898,1.5711,1.5649,1.5556,1.5244,1.4857,1.4555,1.4459,1.3904,1.3516,1.3416,1.3094,1.284,1.2767,1.2504,1.2117,1.1694,1.1186,1.0545,0.9844,0.9477,0.9062,0.8494,0.7759,0.7154,0.6717,0.5813,0.5502,0.5752,0.4965,0.4499,0.4301,0.3494,0.2673,0.0,0.0,0.0,1.9233,1.9847,2.0307,2.0996,2.1151,2.1227,2.1468,2.1849,2.1961,2.133,2.1575,2.1662,2.1016,2.1235,2.1478,2.1497,2.161,2.1802,2.2065,2.1664,2.1554,2.1956,2.12,2.0874,2.1252,2.1054,2.1045,2.1405,2.1799,2.22,2.2585,2.1751,2.1292,2.1292,2.0771,2.0359,2.0086,1.9828,1.9698,1.9672,1.913,1.8895,1.8869,1.8541,1.8578,1.8859,1.8906,1.8902,1.8861,1.8549,1.8403,1.828,1.7437,1.7501,1.7769,1.6348,1.5995,1.6154,1.5825,1.5489,1.5271,1.5526,1.5601,1.5553,1.5226,1.5574,1.6028,1.605,1.6203,1.6251,1.5929,1.6297,1.671,1.671,1.6495,1.6147,1.5545,1.5389,1.5233,1.49,1.4728,1.451,1.4157,1.4248,1.4146,1.3465,1.34,1.3302,1.3101,1.2605,1.2209,1.2026,1.1499,1.0812,0.9872,0.9505,0.9023,0.8422,0.7697,0.7279,0.7279,0.6241,0.5674,0.5674,0.4993,0.4452,0.3971,0.3218,0.1989,1.6634,0.0,0.0,0.0,0.0,0.0,1.9943,2.0154,2.0469,2.1681,2.1579,2.1353,2.1587,2.1443,2.1173,2.07,2.0992,2.133,2.1481,2.1652,2.1767,2.1683,2.1522,2.1486,2.168,2.0926,2.0681,2.1335,2.1075,2.1165,2.1799,2.2217,2.25,2.2585,2.1928,2.1496,2.1292,2.0771,2.0282,1.9802,1.9724,1.9609,1.9402,1.8803,1.8672,1.8869,1.8134,1.7981,1.8279,1.8728,1.8749,1.8562,1.8701,1.8484,1.8065,1.784,1.7707,1.7555,1.6885,1.6553,1.6376,1.6093,1.5928,1.5821,1.5639,1.575,1.5881,1.5942,1.6218,1.658,1.6926,1.7033,1.7087,1.6979,1.7065,1.7163,1.6947,1.6861,1.6754,1.6583,1.6135,1.5846,1.5985,1.5358,1.4781,1.4684,1.4119,1.3597,1.3433,1.3137,1.2955,1.2905,1.2534,1.2295,1.2209,1.1607,1.0871,1.0144,0.9783,0.9204,0.8304,0.755,0.707,0.6856,0.6045,0.5494,0.5178,0.4534,0.4128,0.3971,0.2645,0.104,1.6366,1.6486,1.6715,1.7686,0.0,0.0,1.9735,1.9739,1.9905,2.1213,2.0945,2.0592,2.094,2.0776,2.0573,2.05,2.0583,2.0787,2.1158,2.1232,2.1307,2.1453,2.135,2.1284,2.1339,2.1047,2.0934,2.1172,2.1309,2.1545,2.2019,2.2164,2.2207,2.2207,2.1674,2.1241,2.0976,2.0565,2.0075,1.9532,1.9428,1.935,1.9272,1.8567,1.8489,1.8843,1.7977,1.7756,1.8022,1.8371,1.8414,1.8277,1.8735,1.8603,1.8141,1.8027,1.7784,1.742,1.6961,1.6608,1.6312,1.6146,1.6028,1.5912,1.6079,1.6263,1.6418,1.66,1.6807,1.7077,1.7421,1.7518,1.7518,1.7518,1.7443,1.7302,1.7021,1.6751,1.6623,1.6753,1.6364,1.6006,1.6082,1.5323,1.4637,1.4506,1.3851,1.3334,1.3169,1.2939,1.2807,1.2807,1.2634,1.2404,1.2114,1.1545,1.085,1.0027,0.9522,0.8923,0.8187,0.7443,0.6995,0.6842,0.5851,0.4955,0.4133,0.4167,0.3837,0.3063,0.1972,0.0538,1.6447,1.689,1.7406,1.8153,1.8679,0.0,1.9874,1.962,1.9453,2.0311,2.0101,1.9789,1.9903,1.9922,2.0026,2.0358,2.0173,2.0159,2.072,2.0613,2.0697,2.1231,2.1154,2.1073,2.1108,2.1354,2.1415,2.1109,2.1703,2.2068,2.2114,2.1878,2.1725,2.17,2.1165,2.0771,2.0488,2.0189,1.9802,1.9298,1.9052,1.9078,1.9272,1.8436,1.8372,1.8843,1.7977,1.7742,1.7969,1.7974,1.794,1.8005,1.859,1.8619,1.8269,1.8018,1.7696,1.7303,1.6655,1.6283,1.6057,1.6057,1.5839,1.5747,1.6653,1.6881,1.6932,1.7141,1.7368,1.754,1.7744,1.7764,1.7764,1.7732,1.7549,1.7278,1.6981,1.6431,1.6071,1.6342,1.6104,1.5779,1.5463,1.4833,1.4244,1.3875,1.3555,1.3202,1.284,1.2823,1.2831,1.2765,1.2765,1.2534,1.1873,1.1427,1.075,0.9827,0.9056,0.849,0.8123,0.7421,0.7054,0.6982,0.5715,0.4391,0.3068,0.3928,0.3451,0.1782,0.1367,0.0394,1.6029,1.6314,1.6892,1.7219,1.7873,0.0,1.8974,1.8822,1.882,1.9618,1.9348,1.9184,1.9984,2.0143,2.0066,1.9825,2.0108,2.0492,2.0776,2.0536,2.0418,2.0658,2.0774,2.1064,2.1591,2.1275,2.1393,2.2208,2.2414,2.2366,2.2106,2.2055,2.1928,2.17,2.1165,2.0771,2.0488,2.0024,1.9635,1.9298,1.926,1.926,1.9272,1.862,1.8541,1.8843,1.7977,1.7622,1.7676,1.7672,1.7661,1.7674,1.8255,1.8152,1.7655,1.7638,1.7214,1.6655,1.6312,1.5957,1.569,1.569,1.5661,1.5747,1.6653,1.6816,1.6903,1.767,1.8046,1.8205,1.8248,1.8258,1.8215,1.8067,1.7637,1.7179,1.6946,1.6431,1.5941,1.5724,1.5398,1.5094,1.5029,1.4441,1.3884,1.3564,1.3169,1.2906,1.2807,1.2929,1.2917,1.259,1.2616,1.244,1.2011,1.1259,1.0585,1.0127,0.9422,0.8717,0.8123,0.7655,0.7288,0.7016,0.5878,0.4906,0.4113,0.3519,0.2685,0.1724,0.1289,0.0648,1.6238,1.6466,1.7063,1.7297,1.7845,0.0,0.0,1.874,1.8681,1.9328,1.9114,1.8991,1.9505,1.9599,1.9607,1.9606,1.984,2.0153,2.046,2.0455,2.0541,2.0906,2.0847,2.0953,2.1373,2.1183,2.141,2.2242,2.2332,2.2207,2.1928,2.1776,2.1522,2.1113,2.0848,2.0514,2.0101,1.9713,1.9376,1.9104,1.8803,1.8803,1.9078,1.8344,1.8239,1.862,1.7898,1.7608,1.7582,1.7432,1.7252,1.7163,1.776,1.7807,1.7479,1.7303,1.6861,1.6283,1.6146,1.5779,1.5353,1.5353,1.5245,1.5299,1.6346,1.7071,1.7632,1.8365,1.8487,1.8398,1.8398,1.8398,1.8366,1.8258,1.7951,1.7512,1.6923,1.6463,1.5951,1.5319,1.4898,1.4637,1.4637,1.408,1.3588,1.3433,1.3145,1.2962,1.2962,1.2948,1.2856,1.266,1.2482,1.2138,1.1523,1.09,1.0291,0.9688,0.8984,0.8356,0.7827,0.7455,0.6841,0.5975,0.5471,0.4753,0.385,0.3164,0.2558,0.2003,0.1386,0.0711,1.6965,1.7218,1.7744,1.7718,1.8132,1.8611,0.0,0.0,0.0,1.8783,1.8718,1.8632,1.8693,1.8691,1.8807,1.9124,1.9327,1.9547,1.9882,2.0108,2.045,2.1001,2.0818,2.0721,2.0849,2.0956,2.1343,2.2063,2.1927,2.1762,2.1683,2.1445,2.1037,2.0514,2.0437,2.0205,1.9698,1.9376,1.9104,1.8895,1.8331,1.8331,1.8791,1.8016,1.7898,1.8291,1.7766,1.7529,1.7503,1.7044,1.6765,1.6673,1.7215,1.7329,1.7214,1.6926,1.6508,1.6087,1.6028,1.5572,1.4997,1.5086,1.5,1.5094,1.598,1.7163,1.8236,1.8528,1.839,1.8188,1.8188,1.8188,1.8223,1.8293,1.8018,1.7578,1.676,1.6335,1.5817,1.4871,1.4506,1.431,1.431,1.382,1.3418,1.3352,1.3236,1.3115,1.3048,1.2927,1.2789,1.2612,1.2227,1.168,1.0873,1.0401,0.9866,0.9156,0.8456,0.7927,0.7526,0.7054,0.6223,0.5043,0.4983,0.4505,0.3516,0.3086,0.2661,0.227,0.1475,0.0735,1.8386,1.874,1.9078,1.7968,1.8414,1.8876,1.7913,0.0,1.7632,1.7312,0.0,1.729,1.7556,0.0,0.0,1.7727,1.8341,1.8816,1.8872,1.9201,1.9525,1.9781,2.0025,2.0236,2.0371,2.0394,2.0989,2.2431,2.1393,2.0977,2.1676,2.1445,2.1037,2.0514,2.0266,2.0009,1.9698,1.9208,1.8921,1.8895,1.8541,1.8396,1.8448,1.8122,1.799,1.8016,1.749,1.7252,1.7173,1.6375,1.6159,1.6359,1.6608,1.6558,1.6327,1.6234,1.6176,1.6057,1.575,1.5215,1.4709,1.4997,1.5533,1.5971,1.5812,1.6666,1.7599,1.7296,1.7321,1.7414,1.7414,1.7414,1.752,1.7861,1.7276,1.6535,1.6308,1.5788,1.5077,1.4182,1.3973,1.3973,1.3973,1.3759,1.347,1.3168,1.3256,1.3233,1.289,1.2978,1.2746,1.1904,1.151,1.1063,1.0507,0.9707,0.9201,0.9117,0.8456,0.7927,0.7526,0.6552,0.5852,0.5423,0.5027,0.468,0.4367,0.3552,0.2825,0.221,0.1448,0.0901,1.8502,1.8726,1.8961,1.7947,1.8136,1.8376,1.7655,1.7362,1.7205,1.7026,0.0,0.0,0.0,0.0,0.0,0.0,1.7969,1.8175,1.817,1.8513,1.8984,1.9518,1.9428,1.9393,1.9633,1.9718,2.0229,2.1305,2.0527,2.0344,2.1121,2.0909,2.0626,2.0266,1.9672,1.9224,1.8942,1.8402,1.8035,1.7867,1.7917,1.7947,1.7938,1.783,1.778,1.7753,1.7358,1.7093,1.6842,1.6178,1.5865,1.5832,1.5833,1.5863,1.5905,1.584,1.5809,1.575,1.5413,1.5007,1.458,1.45,1.4809,1.5264,1.5519,1.6095,1.6714,1.6922,1.707,1.7137,1.7278,1.7308,1.7344,1.752,1.7238,1.6793,1.6402,1.5836,1.5222,1.4485,1.3765,1.3293,1.3427,1.3185,1.2898,1.2764,1.2744,1.2716,1.2544,1.2397,1.2172,1.1887,1.1455,1.1,1.0556,0.9946,0.9433,0.9123,0.8456,0.7755,0.6958,0.6504,0.6005,0.5495,0.5127,0.4658,0.4157,0.3561,0.2891,0.2174,0.1438,0.1034,1.9088,1.926,1.9359,1.8093,1.8043,1.812,1.7364,1.7123,1.7049,1.7049,1.7314,0.0,0.0,0.0,1.7621,1.7852,0.0,1.7642,1.7641,1.7728,1.8141,1.8993,1.8718,1.8644,1.9157,1.8871,1.9075,2.0119,1.9395,1.933,2.0353,2.0243,2.005,1.9856,1.9161,1.8662,1.8397,1.7726,1.727,1.7027,1.7115,1.7236,1.7373,1.729,1.7318,1.7477,1.712,1.6775,1.6444,1.5885,1.5532,1.5341,1.5121,1.5231,1.5471,1.5564,1.5542,1.5413,1.5175,1.4818,1.4441,1.4055,1.4049,1.4336,1.4888,1.5291,1.5692,1.6123,1.6343,1.6511,1.6702,1.6761,1.6806,1.7077,1.7062,1.6861,1.6356,1.595,1.5394,1.4462,1.3661,1.3112,1.2841,1.2668,1.2572,1.2572,1.2608,1.2562,1.2345,1.2062,1.1808,1.1712,1.1269,1.0809,1.04,0.9924,0.9383,0.869,0.8323,0.7622,0.6552,0.6483,0.6191,0.5529,0.5147,0.4595,0.3915,0.349,0.2989,0.2458,0.153,0.1025,2.0706,2.1054,2.1027,1.8596,1.8455,1.8447,1.6814,1.6829,1.7175,1.7175,1.7547,1.8018,1.8481,1.8101,1.7781,1.8049,1.7603,0.0,0.0,1.6723,1.6741,1.7748,1.7836,1.8186,1.9101,1.7663,1.7439,1.9294,1.7955,1.7771,1.9367,1.9508,1.9435,1.9244,1.8941,1.8662,1.8397,1.7353,1.6827,1.6789,1.6288,1.6317,1.6807,1.6497,1.6664,1.7173,1.659,1.6191,1.5885,1.5282,1.5027,1.4972,1.4579,1.4583,1.49,1.5427,1.5383,1.5116,1.5116,1.4699,1.4172,1.3822,1.3623,1.3582,1.3792,1.4194,1.4519,1.4339,1.4661,1.5099,1.5309,1.5364,1.5584,1.6509,1.6461,1.6192,1.5974,1.5892,1.5346,1.3503,1.3696,1.3696,1.2266,1.2463,1.2777,1.2777,1.3237,1.3258,1.2429,1.2303,1.1935,1.1043,1.0643,1.0246,0.9752,0.9361,0.869,0.7627,0.7889,0.7622,0.6552,0.6489,0.6197,0.5526,0.5048,0.4507,0.3915,0.3422,0.3196,0.3127,0.175,0.0876,2.1003,2.1268,2.1306,1.9619,1.9119,1.8726,1.7538,1.7236,1.721,1.721,1.7836,1.837,1.8402,1.8384,1.8226,1.7765,1.7222,1.6811,0.0,1.6244,1.6227,1.6915,1.7243,1.7417,1.748,1.7061,1.7199,1.8145,1.7709,1.7803,1.8753,1.9198,1.9355,1.9189,1.8419,1.8042,1.8127,1.7012,1.6371,1.6198,1.6201,1.6126,1.5932,1.5859,1.6022,1.6325,1.5763,1.5544,1.5577,1.4987,1.4629,1.4456,1.428,1.4147,1.413,1.4722,1.4858,1.4709,1.4311,1.4043,1.3831,1.3514,1.3558,1.3707,1.3842,1.3973,1.4116,1.4188,1.415,1.4179,1.4405,1.4242,1.4216,1.4902,1.5166,1.5289,1.5291,1.5227,1.4813,1.3524,1.3004,1.252,1.1794,1.1999,1.2236,1.2074,1.2037,1.1842,1.1418,1.1306,1.1156,1.0907,1.0719,1.0478,1.0187,0.9503,0.8651,0.756,0.7894,0.7622,0.6552,0.66,0.6374,0.5834,0.5275,0.4759,0.4221,0.3792,0.3463,0.3163,0.2242,0.1596,2.1496,2.1648,2.1606,2.023,1.9734,1.9255,1.812,1.7987,1.8037,1.7616,1.8372,1.9003,1.8795,1.8616,1.8285,1.7694,1.6949,1.6291,0.0,1.5768,1.5823,1.598,1.6346,1.6603,1.6697,1.6351,1.6404,1.7098,1.681,1.6949,1.7754,1.8418,1.871,1.8547,1.8117,1.7773,1.7553,1.6706,1.6056,1.5624,1.5695,1.5595,1.5355,1.5407,1.5527,1.5745,1.5491,1.5252,1.5014,1.4708,1.4386,1.401,1.3837,1.3717,1.3708,1.4288,1.4401,1.4202,1.3564,1.34,1.342,1.3243,1.3314,1.346,1.3552,1.3615,1.3626,1.3684,1.3544,1.3445,1.3798,1.3501,1.3303,1.3974,1.4224,1.4328,1.4421,1.4353,1.4035,1.3132,1.2564,1.2015,1.1388,1.1584,1.1789,1.1652,1.1666,1.1541,1.1055,1.0912,1.0858,1.0826,1.0745,1.0558,1.0181,0.9303,0.839,0.756,0.776,0.7459,0.6522,0.6698,0.6576,0.6039,0.5478,0.494,0.4422,0.4005,0.3618,0.3243,0.264,0.2189]},{"header":{"parameterUnit":"m.s-1","parameterCategory":1,"la1":30.6,"la2":29.2853,"lo1":-89.7004,"lo2":-87.6739,"dy":0.0162,"dx":0.0183,"nx":112,"ny":82,"refTime":"2023-08-26T12:00:00:Z","depth":0,"parameterNumber":3,"parameterNumberName":"V-component_of_WINDS"},"data":[0.0,0.0,0.0,0.0,0.0,0.0,0.0,0.0,0.0,0.0,0.0,0.0,0.0,0.0,0.0,0.0,0.0,0.0,0.0,0.0,0.0,0.0,0.0,0.0,0.0,0.0,0.0,0.0,0.0,0.0,0.0,0.0,0.0,0.0,0.0,0.0,0.0,0.0,0.0,0.0,0.0,0.0,0.0,0.0,0.0,0.0,0.0,0.0,0.0,0.0,0.0,0.0,0.0,0.0,0.0,0.0,0.0,0.0,0.0,0.0,0.0,0.0,0.0,0.0,0.0,0.0,0.0,0.0,0.0,0.0,0.0,0.0,0.0,0.0,0.0,0.0,0.0,0.0,0.0,0.0,0.0,0.0,0.0,0.0,0.0,0.0,0.0,0.0,0.0,0.0,2.1373,2.2451,2.3328,2.3893,2.4003,2.3889,2.3583,2.3035,0.0,0.0,0.0,0.0,0.0,0.0,0.0,0.0,0.0,0.0,0.0,0.0,0.0,0.0,0.0,0.0,0.0,0.0,0.0,0.0,0.0,0.0,0.0,0.0,0.0,0.0,0.0,0.0,0.0,0.0,0.0,0.0,0.0,0.0,0.0,0.0,0.0,0.0,0.0,0.0,0.0,0.0,0.0,0.0,0.0,0.0,0.0,0.0,0.0,0.0,0.0,0.0,0.0,0.0,0.0,0.0,0.0,0.0,0.0,0.0,0.0,0.0,0.0,0.0,0.0,0.0,0.0,0.0,0.0,0.0,0.0,0.0,0.0,0.0,0.0,0.0,0.0,0.0,0.0,0.0,0.0,0.0,0.0,0.0,0.0,0.0,0.0,0.0,0.0,0.0,0.0,0.0,0.0,0.0,0.0,0.0,0.0,0.0,0.0,0.0,0.0,0.0,0.0,0.0,2.0553,2.3517,2.3908,2.4257,2.4913,2.4294,2.4122,2.4693,0.0,0.0,0.0,0.0,0.0,0.0,0.0,0.0,0.0,0.0,0.0,0.0,0.0,0.0,0.0,0.0,0.0,0.0,0.0,0.0,0.0,0.0,0.0,0.0,0.0,0.0,0.0,0.0,0.0,0.0,0.0,0.0,0.0,0.0,0.0,0.0,0.0,0.0,0.0,0.0,0.0,0.0,0.0,0.0,0.0,0.0,0.0,0.0,0.0,0.0,0.0,0.0,0.0,0.0,0.0,0.0,0.0,0.0,0.0,0.0,0.0,0.0,0.0,0.0,0.0,0.0,0.0,0.0,0.0,0.0,0.0,0.0,0.0,0.0,0.0,0.0,0.0,0.0,0.0,0.0,0.0,0.0,0.0,0.0,0.0,0.0,0.0,0.0,0.0,0.0,0.0,0.0,0.0,0.0,0.0,0.0,0.0,0.0,0.0,0.0,0.0,0.0,0.0,2.1167,2.1726,2.3833,2.394,2.4065,2.4574,2.4158,2.3863,2.3851,2.3116,0.0,0.0,0.0,0.0,0.0,0.0,0.0,0.0,0.0,0.0,0.0,0.0,0.0,0.0,0.0,0.0,0.0,0.0,0.0,0.0,0.0,0.0,0.0,0.0,0.0,0.0,0.0,0.0,0.0,0.0,0.0,0.0,0.0,0.0,0.0,0.0,0.0,0.0,0.0,0.0,0.0,0.0,0.0,0.0,0.0,0.0,0.0,0.0,0.0,0.0,0.0,0.0,0.0,0.0,0.0,0.0,0.0,0.0,0.0,0.0,0.0,0.0,0.0,0.0,0.0,0.0,0.0,0.0,0.0,0.0,0.0,0.0,0.0,0.0,0.0,0.0,0.0,0.0,0.0,0.0,0.0,0.0,0.0,0.0,0.0,0.0,0.0,0.0,0.0,0.0,0.0,0.0,0.0,0.0,0.0,0.0,0.0,0.0,0.0,0.0,0.0,0.0,2.2585,2.3154,2.3908,2.3894,2.3998,2.4338,2.3878,2.3437,2.3075,2.2478,0.0,0.0,0.0,0.0,0.0,0.0,0.0,0.0,0.0,0.0,0.0,0.0,0.0,0.0,0.0,0.0,0.0,0.0,0.0,0.0,0.0,0.0,0.0,0.0,0.0,0.0,0.0,0.0,0.0,0.0,0.0,0.0,0.0,0.0,0.0,0.0,0.0,0.0,0.0,0.0,0.0,0.0,0.0,0.0,0.0,0.0,0.0,0.0,0.0,0.0,0.0,0.0,0.0,0.0,0.0,0.0,0.0,0.0,0.0,0.0,0.0,0.0,0.0,0.0,0.0,0.0,0.0,0.0,0.0,0.0,0.0,0.0,0.0,0.0,0.0,0.0,0.0,0.0,0.0,0.0,0.0,0.0,0.0,0.0,0.0,0.0,0.0,0.0,0.0,0.0,0.0,0.0,0.0,0.0,0.0,0.0,0.0,0.0,0.0,0.0,0.0,0.0,2.2504,2.3908,2.3996,2.3991,2.4277,2.5048,2.3746,2.3143,2.3784,2.1715,0.0,0.0,0.0,0.0,0.0,0.0,0.0,0.0,0.0,0.0,0.0,0.0,0.0,0.0,0.0,0.0,0.0,0.0,0.0,0.0,0.0,0.0,0.0,0.0,0.0,0.0,0.0,0.0,0.0,0.0,0.0,0.0,0.0,0.0,0.0,0.0,0.0,0.0,0.0,0.0,0.0,0.0,0.0,0.0,0.0,0.0,0.0,0.0,0.0,0.0,0.0,0.0,0.0,0.0,0.0,0.0,0.0,0.0,0.0,0.0,0.0,0.0,0.0,0.0,0.0,0.0,0.0,0.0,0.0,0.0,0.0,0.0,0.0,0.0,0.0,0.0,0.0,0.0,0.0,0.0,0.0,0.0,0.0,0.0,0.0,0.0,0.0,0.0,0.0,0.0,0.0,0.0,0.0,0.0,0.0,0.0,0.0,0.0,0.0,0.0,0.0,0.0,2.3022,2.4091,2.4631,2.4709,2.4611,2.4465,2.3891,2.3245,2.2556,0.0,0.0,0.0,0.0,0.0,0.0,0.0,0.0,0.0,0.0,0.0,0.0,0.0,0.0,0.0,0.0,0.0,0.0,0.0,0.0,0.0,0.0,0.0,0.0,0.0,0.0,0.0,0.0,0.0,0.0,0.0,0.0,0.0,0.0,0.0,0.0,0.0,0.0,0.0,0.0,0.0,0.0,0.0,0.0,0.0,0.0,0.0,0.0,0.0,0.0,0.0,0.0,0.0,0.0,0.0,0.0,0.0,0.0,0.0,0.0,0.0,0.0,0.0,0.0,0.0,0.0,0.0,0.0,0.0,0.0,0.0,0.0,0.0,0.0,0.0,0.0,0.0,0.0,0.0,0.0,0.0,0.0,0.0,0.0,0.0,0.0,0.0,0.0,0.0,0.0,0.0,0.0,0.0,0.0,0.0,0.0,0.0,0.0,0.0,0.0,0.0,0.0,2.2108,2.319,2.4034,2.461,2.4719,2.4538,2.4032,2.3802,2.3091,2.177,0.0,0.0,0.0,0.0,0.0,0.0,0.0,0.0,0.0,0.0,0.0,0.0,0.0,0.0,0.0,0.0,0.0,0.0,0.0,0.0,0.0,0.0,0.0,0.0,0.0,0.0,0.0,0.0,0.0,0.0,0.0,0.0,0.0,0.0,0.0,0.0,0.0,0.0,0.0,0.0,0.0,0.0,0.0,0.0,0.0,0.0,0.0,0.0,0.0,0.0,0.0,0.0,0.0,0.0,0.0,0.0,0.0,0.0,0.0,0.0,0.0,0.0,0.0,0.0,0.0,0.0,0.0,0.0,0.0,0.0,0.0,0.0,0.0,0.0,0.0,0.0,0.0,0.0,0.0,0.0,0.0,0.0,0.0,0.0,0.0,0.0,0.0,0.0,0.0,0.0,0.0,0.0,0.0,0.0,0.0,0.0,0.0,0.0,0.0,0.0,0.0,0.0,2.1504,2.2854,2.38,2.38,2.3935,2.4001,2.4001,2.3329,2.2557,0.0,0.0,0.0,0.0,0.0,0.0,0.0,0.0,0.0,0.0,0.0,0.0,0.0,0.0,0.0,0.0,0.0,0.0,0.0,0.0,0.0,0.0,0.0,0.0,0.0,0.0,0.0,0.0,0.0,0.0,0.0,0.0,0.0,0.0,0.0,0.0,0.0,0.0,0.0,0.0,0.0,0.0,0.0,0.0,0.0,0.0,0.0,0.0,0.0,0.0,0.0,0.0,0.0,0.0,0.0,0.0,0.0,0.0,0.0,0.0,0.0,0.0,0.0,0.0,0.0,0.0,0.0,0.0,0.0,0.0,0.0,0.0,0.0,0.0,0.0,0.0,0.0,0.0,0.0,0.0,0.0,0.0,0.0,0.0,0.0,0.0,0.0,0.0,0.0,0.0,0.0,0.0,0.0,0.0,0.0,0.0,0.0,0.0,0.0,0.0,0.0,0.0,0.0,2.2264,2.3718,2.4724,2.4724,2.4788,2.4631,2.4124,2.3922,2.3208,2.1779,0.0,0.0,0.0,0.0,0.0,0.0,0.0,0.0,0.0,0.0,0.0,0.0,0.0,0.0,0.0,0.0,0.0,0.0,0.0,0.0,0.0,0.0,0.0,0.0,0.0,0.0,0.0,0.0,0.0,0.0,0.0,0.0,0.0,0.0,0.0,0.0,0.0,0.0,0.0,0.0,0.0,0.0,0.0,0.0,0.0,0.0,0.0,0.0,0.0,0.0,0.0,0.0,0.0,0.0,0.0,0.0,0.0,0.0,0.0,0.0,0.0,0.0,0.0,0.0,0.0,0.0,0.0,0.0,0.0,0.0,0.0,0.0,0.0,0.0,0.0,0.0,0.0,0.0,0.0,0.0,0.0,0.0,0.0,0.0,0.0,0.0,0.0,0.0,0.0,0.0,0.0,0.0,0.0,0.0,0.0,0.0,0.0,0.0,0.0,0.0,0.0,0.0,2.2635,2.3826,2.4751,2.5072,2.5141,2.4845,2.4084,2.441,2.3922,2.2283,0.0,0.0,0.0,0.0,0.0,0.0,0.0,0.0,0.0,0.0,0.0,0.0,0.0,0.0,0.0,0.0,0.0,0.0,0.0,0.0,0.0,0.0,0.0,0.0,0.0,0.0,0.0,0.0,0.0,0.0,0.0,0.0,0.0,0.0,0.0,0.0,0.0,0.0,0.0,0.0,0.0,0.0,0.0,0.0,0.0,0.0,0.0,0.0,0.0,0.0,0.0,0.0,0.0,0.0,0.0,0.0,0.0,0.0,0.0,0.0,0.0,0.0,0.0,0.0,0.0,0.0,0.0,0.0,0.0,0.0,0.0,0.0,0.0,0.0,0.0,0.0,0.0,0.0,0.0,0.0,0.0,0.0,0.0,0.0,0.0,0.0,0.0,0.0,0.0,0.0,0.0,0.0,0.0,0.0,0.0,0.0,0.0,0.0,0.0,0.0,0.0,0.0,2.2756,2.3561,2.4314,2.5145,2.5223,2.4943,2.419,2.4934,2.4729,2.3115,0.0,0.0,0.0,0.0,0.0,0.0,0.0,0.0,0.0,0.0,0.0,0.0,0.0,0.0,0.0,0.0,0.0,0.0,0.0,0.0,0.0,0.0,0.0,0.0,0.0,0.0,0.0,0.0,0.0,0.0,0.0,0.0,0.0,0.0,0.0,0.0,0.0,0.0,0.0,0.0,0.0,0.0,0.0,0.0,0.0,0.0,0.0,0.0,0.0,0.0,0.0,0.0,0.0,0.0,0.0,0.0,0.0,0.0,0.0,0.0,1.8279,1.8096,0.0,0.0,0.0,0.0,0.0,0.0,0.0,0.0,0.0,0.0,0.0,0.0,0.0,0.0,0.0,0.0,0.0,0.0,0.0,0.0,0.0,0.0,0.0,0.0,0.0,0.0,0.0,0.0,0.0,0.0,0.0,0.0,0.0,0.0,0.0,0.0,0.0,0.0,0.0,0.0,2.3495,2.4324,2.5145,2.5975,2.6103,2.608,2.5946,2.6187,2.5617,2.3934,2.2804,0.0,0.0,0.0,0.0,0.0,0.0,0.0,0.0,0.0,0.0,0.0,0.0,0.0,0.0,0.0,0.0,0.0,0.0,0.0,0.0,0.0,0.0,0.0,0.0,0.0,0.0,0.0,0.0,0.0,0.0,0.0,0.0,0.0,0.0,0.0,0.0,0.0,0.0,0.0,0.0,0.0,0.0,0.0,0.0,0.0,0.0,0.0,0.0,0.0,0.0,0.0,0.0,0.0,0.0,0.0,0.0,0.0,0.0,0.0,2.0079,1.9367,0.0,0.0,0.0,0.0,0.0,0.0,0.0,0.0,0.0,0.0,0.0,0.0,0.0,0.0,0.0,0.0,0.0,0.0,0.0,0.0,0.0,0.0,0.0,0.0,0.0,0.0,0.0,0.0,0.0,0.0,0.0,0.0,0.0,0.0,0.0,0.0,0.0,0.0,0.0,0.0,2.4345,2.5165,2.5992,2.6857,2.6947,2.6793,2.6489,2.6867,2.659,2.5325,2.3808,0.0,0.0,0.0,0.0,0.0,0.0,0.0,0.0,0.0,0.0,0.0,0.0,0.0,0.0,0.0,0.0,0.0,0.0,0.0,0.0,0.0,0.0,0.0,0.0,0.0,0.0,0.0,0.0,0.0,0.0,0.0,0.0,0.0,0.0,0.0,0.0,0.0,0.0,0.0,0.0,0.0,0.0,0.0,0.0,0.0,0.0,0.0,0.0,0.0,0.0,0.0,0.0,0.0,2.3317,2.3642,2.3255,2.4459,2.5109,2.5018,2.2061,2.11,2.16,2.1558,0.0,0.0,0.0,0.0,0.0,0.0,0.0,0.0,0.0,0.0,0.0,0.0,0.0,0.0,0.0,0.0,0.0,0.0,0.0,0.0,0.0,0.0,2.4386,2.5095,2.5951,2.592,2.3357,0.0,0.0,0.0,0.0,0.0,0.0,0.0,0.0,0.0,0.0,0.0,2.5595,2.6176,2.6889,2.7905,2.7845,2.7487,2.6899,2.7492,2.7593,2.6763,2.4889,2.3657,0.0,0.0,0.0,0.0,0.0,0.0,0.0,0.0,0.0,0.0,0.0,0.0,0.0,0.0,0.0,0.0,0.0,0.0,0.0,0.0,0.0,0.0,0.0,0.0,0.0,0.0,0.0,0.0,0.0,0.0,0.0,0.0,1.9226,1.9267,0.0,0.0,0.0,0.0,0.0,0.0,0.0,0.0,0.0,0.0,0.0,0.0,0.0,2.2125,2.3068,2.3601,2.3772,2.3614,2.4839,2.5224,2.4898,2.5605,2.609,2.6367,2.5991,0.0,2.5615,2.5309,0.0,0.0,0.0,0.0,0.0,0.0,0.0,0.0,0.0,0.0,0.0,0.0,0.0,0.0,0.0,0.0,0.0,0.0,0.0,0.0,0.0,0.0,2.8318,2.8595,2.929,2.9463,2.793,2.5711,2.4002,2.3857,2.355,2.3295,0.0,0.0,0.0,0.0,0.0,0.0,2.7954,2.7634,2.7846,2.9439,2.9016,2.8597,2.8558,2.872,2.8504,2.7671,2.7427,2.6685,2.5218,2.4233,0.0,0.0,0.0,0.0,0.0,0.0,0.0,0.0,0.0,0.0,0.0,0.0,0.0,0.0,0.0,0.0,0.0,0.0,0.0,0.0,0.0,0.0,0.0,0.0,0.0,0.0,0.0,0.0,0.0,1.9793,2.0513,2.0703,2.0938,2.091,0.0,0.0,0.0,0.0,0.0,0.0,0.0,0.0,0.0,2.3811,2.3671,2.4104,2.5177,2.5495,2.5827,2.6215,2.7074,2.7527,2.7596,2.8183,2.8857,2.9536,2.9651,2.9913,3.0089,2.7639,2.6714,2.6806,0.0,0.0,0.0,0.0,2.6626,2.6876,2.7771,2.7736,2.7384,2.7824,0.0,0.0,0.0,0.0,0.0,0.0,0.0,2.7343,2.9383,3.0085,3.0517,3.1515,3.2156,3.2396,3.194,3.0463,2.8809,2.7181,2.707,2.6856,2.5679,2.6164,0.0,0.0,0.0,2.8363,2.9114,2.9308,2.9673,3.0503,3.0288,3.0115,3.019,3.0253,2.9984,2.9219,2.8815,2.8112,2.7014,2.5749,2.4732,0.0,0.0,0.0,0.0,0.0,0.0,0.0,0.0,0.0,0.0,0.0,0.0,0.0,0.0,0.0,0.0,0.0,0.0,0.0,0.0,0.0,0.0,0.0,0.0,0.0,0.0,0.0,0.0,2.116,2.1796,2.2128,2.251,2.2537,0.0,0.0,0.0,0.0,0.0,0.0,2.4164,2.4792,2.5479,2.6163,2.6116,2.655,2.7601,2.7659,2.7891,2.8382,2.895,2.9342,2.9551,3.0377,3.1197,3.1939,3.2254,3.2777,3.3168,2.9897,2.8701,2.8908,2.8728,2.906,2.9645,2.972,2.9655,2.971,3.129,3.1389,3.0891,3.1124,3.1042,3.0569,2.9192,0.0,0.0,0.0,0.0,2.9549,3.1458,3.2039,3.2448,3.3751,3.4282,3.4456,3.4403,3.4066,3.3037,3.0612,3.0533,3.0289,2.8436,2.8678,0.0,2.818,2.9125,3.0037,3.0299,3.0688,3.1141,3.1692,3.1581,3.1482,3.1548,3.1606,3.1304,3.0564,3.0035,2.9414,2.8741,2.7348,2.6362,2.5987,0.0,0.0,0.0,0.0,0.0,0.0,0.0,0.0,0.0,0.0,0.0,0.0,0.0,0.0,0.0,0.0,0.0,0.0,0.0,0.0,0.0,0.0,0.0,0.0,0.0,0.0,0.0,0.0,0.0,2.3396,2.4981,0.0,0.0,0.0,0.0,2.5929,2.5491,2.5767,2.7028,2.7126,2.7782,2.9159,2.9716,3.0183,3.0586,3.0586,3.0161,2.9347,2.9951,3.0101,2.9929,3.1367,3.2107,3.2332,3.3094,3.3561,3.3683,3.2661,3.2361,3.2477,3.1842,3.17,3.1826,3.184,3.2306,3.2998,3.3433,3.3643,3.3883,3.4944,3.4088,3.256,3.255,3.1325,0.0,0.0,3.1902,3.2205,3.4689,3.4943,3.4638,3.5029,3.5297,3.5248,3.4571,3.4588,3.4418,3.3378,3.2748,3.2117,3.1307,0.0,3.1283,3.0622,3.0685,3.113,3.1966,3.1506,3.169,3.3281,3.2853,3.2444,3.2533,3.2539,3.2211,3.1489,3.1469,3.1153,3.0413,2.9619,2.8485,2.6968,2.6037,0.0,0.0,0.0,0.0,0.0,0.0,0.0,0.0,0.0,0.0,0.0,0.0,0.0,0.0,0.0,0.0,0.0,0.0,0.0,0.0,0.0,0.0,0.0,0.0,0.0,0.0,0.0,0.0,2.5382,2.6205,0.0,2.5784,2.6722,2.7238,2.6929,2.7839,2.86,2.9077,2.966,3.0223,3.0736,3.0805,3.1162,3.1897,3.1384,3.1326,3.1715,3.2295,3.2421,3.2243,3.3196,3.3784,3.406,3.4332,3.4757,3.5182,3.4878,3.4273,3.3546,3.3421,3.3647,3.4011,3.3731,3.4124,3.4825,3.503,3.5291,3.5622,3.6344,3.5854,3.5027,3.5143,3.4801,3.4485,3.5132,3.5322,3.5575,3.658,3.6524,3.6317,3.6578,3.6482,3.6292,3.6169,3.6296,3.6303,3.602,3.4544,3.3085,3.2364,3.2338,3.2216,3.1634,3.1936,3.2397,3.2863,3.269,3.2799,3.3465,3.3283,3.3207,3.3279,3.3293,3.2809,3.1648,3.1628,3.1128,2.9905,2.961,2.9197,2.8671,2.7816,2.6823,0.0,0.0,0.0,0.0,0.0,0.0,0.0,0.0,0.0,0.0,0.0,0.0,0.0,0.0,0.0,0.0,0.0,0.0,0.0,0.0,0.0,0.0,0.0,0.0,0.0,2.5052,2.5915,2.695,2.7775,2.8052,2.7556,2.8533,2.9109,2.8934,2.9942,3.0703,3.0976,3.1622,3.2035,3.2167,3.2426,3.2703,3.3011,3.2711,3.2769,3.3191,3.3749,3.4012,3.4029,3.5057,3.5576,3.5671,3.5859,3.6103,3.6389,3.6223,3.5644,3.4866,3.4926,3.5278,3.5661,3.5352,3.5625,3.6147,3.6415,3.6739,3.7085,3.75,3.7371,3.7072,3.6959,3.7065,3.7222,3.7261,3.7306,3.7394,3.7553,3.736,3.709,3.7113,3.695,3.6841,3.7038,3.7395,3.7626,3.7427,3.6095,3.4774,3.4069,3.3799,3.3549,3.3237,3.3376,3.3782,3.4498,3.4647,3.4948,3.5563,3.5403,3.517,3.5014,3.4486,3.3687,3.249,3.2218,3.1698,3.075,3.0477,3.0246,2.9996,2.9153,2.8465,2.7932,0.0,0.0,0.0,0.0,0.0,0.0,0.0,0.0,0.0,0.0,0.0,0.0,0.0,0.0,0.0,0.0,0.0,0.0,0.0,0.0,0.0,0.0,0.0,2.5843,2.6984,2.7927,2.8095,2.9793,3.0732,3.0256,3.0682,3.1314,3.2103,3.1803,3.193,3.2687,3.2884,3.3123,3.3516,3.4712,3.4939,3.4053,3.466,3.4497,3.359,3.4264,3.4736,3.5094,3.6735,3.7317,3.7026,3.7541,3.7557,3.7145,3.6706,3.6523,3.6492,3.6523,3.6585,3.6708,3.6708,3.6862,3.7122,3.7569,3.7935,3.8298,3.8534,3.8618,3.8562,3.8054,3.8078,3.8241,3.8117,3.7847,3.7608,3.7838,3.7511,3.709,3.6679,3.6719,3.6876,3.7005,3.78,3.8283,3.7588,3.7455,3.7217,3.6533,3.5834,3.5435,3.5542,3.5017,0.0,3.6926,3.7273,3.8002,3.9576,3.9119,3.8358,3.7573,3.6036,3.4817,3.4053,3.3309,3.296,3.305,3.2397,3.1634,3.0834,3.0057,2.965,2.9612,0.0,0.0,0.0,0.0,0.0,0.0,0.0,0.0,0.0,0.0,0.0,0.0,0.0,0.0,0.0,0.0,0.0,0.0,0.0,0.0,0.0,2.7169,2.8184,2.804,2.8588,2.9454,3.0631,3.1342,3.1929,3.2391,3.2707,3.3014,3.338,3.3317,3.3351,3.3557,3.3847,3.4021,3.4167,3.4288,3.4535,3.4879,3.4569,3.4628,3.5082,3.5758,3.6025,3.5919,3.6997,3.7231,3.68,3.694,3.7018,3.7033,3.677,3.6708,3.6847,3.6693,3.6662,3.6723,3.6877,3.7494,3.8218,3.811,3.8531,3.9088,3.8818,3.9163,3.9709,3.9818,3.9941,4.0074,4.0034,3.9722,3.9404,3.9432,3.9242,3.8814,3.8232,3.7983,3.7912,3.8066,3.846,3.872,3.8534,3.8617,3.825,3.6772,3.5945,3.5747,3.6495,3.5965,3.608,3.7814,3.7585,3.7684,3.8792,3.8742,3.8343,3.7705,3.6652,3.5491,3.4229,3.3436,3.283,3.2323,3.2157,3.1709,3.0974,3.0687,3.0279,0.0,0.0,0.0,0.0,0.0,0.0,0.0,0.0,0.0,0.0,0.0,0.0,0.0,0.0,0.0,0.0,0.0,0.0,0.0,0.0,0.0,0.0,2.907,3.0152,3.0333,3.0488,3.0985,3.2047,3.2733,3.3322,3.3882,3.4289,3.4434,3.4288,3.4598,3.4697,3.4543,3.5033,3.5402,3.5573,3.541,3.5627,3.6247,3.5875,3.6026,3.6807,3.7541,3.7612,3.7194,3.8518,3.8693,3.7994,3.8247,3.8325,3.8278,3.7951,3.7826,3.781,0.0,0.0,0.0,0.0,3.7642,3.8255,3.8121,3.8524,3.9119,3.9243,3.9695,4.0293,4.0594,4.0809,4.0888,4.0598,4.04,4.0186,3.9917,3.982,3.9547,3.8647,3.8373,3.8319,3.8522,3.8944,3.932,3.9406,3.9814,0.0,3.8517,3.7091,3.6443,3.7427,3.7188,3.7519,3.926,3.9418,3.9678,4.0569,4.0382,3.9911,3.9231,3.7822,0.0,0.0,0.0,3.3297,3.2564,3.2642,0.0,0.0,0.0,3.176,3.128,3.1958,0.0,0.0,3.2723,3.3172,0.0,0.0,0.0,0.0,0.0,0.0,0.0,0.0,0.0,0.0,0.0,0.0,0.0,0.0,0.0,0.0,3.0809,3.2121,3.2584,3.2498,3.2533,3.2885,3.3941,3.4722,3.4918,3.5486,3.559,3.4949,3.5654,3.5919,3.5473,3.6213,0.0,0.0,0.0,3.734,3.769,3.7681,3.7852,3.8218,3.9012,3.9064,3.8512,4.026,4.056,3.9767,4.0273,4.0305,4.0014,3.9533,3.925,3.9029,3.787,3.746,3.749,3.7701,3.7929,3.8093,3.8206,0.0,0.0,3.9823,4.0367,4.0738,4.0923,4.1236,4.1323,4.0502,4.0464,4.0502,3.9856,3.9859,3.9774,3.8622,3.8481,3.8631,3.8828,3.9439,4.0091,4.0412,4.0991,4.1284,4.0762,3.8866,3.7721,3.8701,3.8753,3.9333,4.1069,4.1877,4.2633,4.345,4.2938,0.0,4.1449,3.9357,3.7775,3.7015,3.5386,3.4169,3.3489,3.3563,3.3243,3.2362,3.321,3.3654,3.3661,3.5172,3.6045,3.6243,3.392,3.4501,0.0,0.0,0.0,0.0,0.0,0.0,0.0,0.0,0.0,0.0,0.0,0.0,0.0,0.0,0.0,3.1266,3.2412,3.3343,3.3999,3.4196,3.432,3.439,3.5093,3.5622,3.5755,3.6032,3.5972,3.549,3.6254,3.6464,3.5835,3.6613,3.7124,3.7193,3.6943,3.7081,3.769,3.7494,3.7465,3.7659,3.837,0.0,3.8137,3.9027,3.9436,3.9423,3.9677,3.974,3.9598,3.9566,3.9487,3.9409,3.9031,3.8952,3.9076,3.9384,3.9904,4.0428,4.0274,4.0661,4.12,4.1195,4.1782,4.2443,4.2126,4.2656,0.0,4.1847,4.1584,4.1559,4.0953,4.0955,4.0904,4.0073,4.0109,4.0349,4.039,4.0733,4.129,4.1926,4.1823,4.1415,4.0682,4.0245,4.0321,4.132,4.0898,4.1106,4.2811,4.2639,4.2689,4.349,4.3537,4.3213,4.2472,4.0755,3.942,3.8742,3.672,3.5162,3.4448,3.4516,3.4132,3.3255,3.4177,3.4622,3.4632,3.5605,3.6744,3.8083,3.7575,3.771,0.0,0.0,0.0,0.0,0.0,0.0,0.0,0.0,0.0,0.0,0.0,2.8682,2.9469,0.0,3.1445,3.3378,3.3846,3.4144,3.4732,3.5447,3.5673,3.503,3.5331,3.5905,3.6722,3.696,3.6957,3.677,3.7435,3.763,3.7084,3.7853,3.8387,3.858,3.809,3.828,3.9222,3.8627,3.8626,3.9296,3.9653,3.9535,3.9074,3.9908,4.0115,3.9817,4.0371,4.0593,4.0562,4.0689,4.0721,4.0689,4.0625,4.0198,3.969,3.9953,4.033,4.071,4.0761,4.1096,4.1581,4.2019,4.2635,4.3157,4.2922,4.3388,4.3704,4.2309,4.1997,4.1969,4.1395,4.1312,4.1343,4.1192,4.0987,4.0931,4.1435,4.1455,4.1714,4.2899,4.2986,4.289,4.304,4.3114,4.265,4.1219,4.1392,4.2001,4.2808,4.2627,4.2713,4.3507,4.334,4.3069,4.2741,4.0874,3.9462,3.8725,3.7314,3.6334,3.5953,3.6065,3.5884,3.5443,3.5944,3.6216,3.6216,3.705,3.79,3.8717,3.9168,3.9352,0.0,0.0,0.0,0.0,0.0,0.0,0.0,2.7945,2.8605,2.8822,3.0147,3.155,3.2441,3.2845,3.3572,3.516,3.5174,3.5103,3.5435,3.6418,3.6732,3.571,3.5822,3.6446,3.7549,3.7888,3.8025,3.7972,3.867,3.8928,3.8507,3.9212,3.9757,3.9993,3.9365,3.9593,4.0715,3.9879,3.9967,4.0949,4.1057,4.081,4.0234,4.1108,4.1269,4.0792,4.1665,4.2002,4.1975,4.2072,4.2026,4.1931,4.1964,4.131,4.0322,4.0476,4.0647,4.0782,4.1188,4.145,4.1824,4.2779,4.3342,4.364,4.3579,4.393,4.4053,4.2677,4.2384,4.232,4.1799,4.1542,4.1526,4.188,4.1587,4.1459,4.2149,4.2159,4.2422,4.3806,4.4189,4.4584,4.5445,4.5631,4.4519,4.1244,4.1936,4.27,4.2368,4.2643,4.3033,4.3356,4.325,4.2939,4.252,4.0705,3.9188,3.8315,3.7752,3.7406,3.7229,3.7348,3.7409,3.7396,3.747,3.7604,3.7752,3.8479,3.8874,3.9061,3.9794,4.0073,2.7796,2.7269,2.7612,2.8947,2.902,2.9435,0.0,3.1752,3.1594,3.3429,3.3945,3.4267,3.4986,3.5262,3.5609,3.6174,3.651,3.6741,3.6777,3.7204,3.747,3.7342,3.7821,3.8069,3.7894,3.8547,3.8745,3.8216,3.9444,4.0026,3.9552,4.0191,4.0372,3.9993,3.9468,3.9627,4.0509,4.0197,4.0152,4.0396,4.0991,4.1011,4.0544,4.1075,4.1738,4.2456,4.3151,4.3392,4.3249,4.2921,4.2505,4.2093,4.2254,4.2269,4.2108,4.2124,4.2219,4.2407,4.2929,4.32,4.3426,4.3973,4.4376,4.4579,4.4152,4.4611,4.4988,4.3685,4.3353,4.3252,4.2777,4.2097,4.1615,4.178,4.2347,4.2725,4.2388,4.3499,4.4679,4.4972,4.519,4.5375,4.5486,4.564,4.5425,4.4306,4.4333,4.391,4.247,4.3724,4.4202,4.2844,4.4061,4.4143,4.1979,4.1047,3.9914,3.8466,3.836,3.8055,3.7397,3.7462,3.746,3.7409,3.7519,3.7957,3.8637,3.8751,3.9203,3.9959,4.0129,4.0182,3.0137,3.0646,3.1209,3.1448,3.2219,3.297,3.3084,3.3294,3.3795,3.5021,3.5819,3.6503,3.7177,3.7034,3.7062,3.7758,3.7375,3.7071,3.731,3.7795,3.8066,3.7955,3.8468,3.8948,3.9158,3.9233,3.9546,4.0189,4.0803,4.0944,4.0462,4.092,4.0881,4.0327,4.0297,4.0504,4.0953,4.0772,4.083,4.1048,4.1199,4.1249,4.1209,4.1821,4.26,4.3483,4.3871,4.4026,4.3939,4.3456,4.3119,4.288,4.2622,4.254,4.2508,4.2666,4.2791,4.2959,4.3461,4.3787,4.4064,4.4468,4.4824,4.5115,4.4799,4.5213,4.5556,4.4589,4.4361,4.4201,4.3227,4.2663,4.2522,4.3202,4.3368,4.3415,4.3671,4.4463,4.5153,4.5228,4.5319,4.5728,4.6871,4.6691,4.632,4.614,4.579,4.5317,4.4654,4.4847,4.4605,4.3466,4.2849,4.2299,4.1812,4.0686,3.9758,3.9173,3.9203,3.912,3.8807,3.8945,3.9006,3.8986,3.909,3.9338,3.9676,3.9671,3.9876,4.0215,4.028,4.057,3.1856,3.2852,3.3429,3.3013,3.4249,3.535,3.4324,3.4856,3.5898,3.7086,3.7787,3.8389,3.8955,3.8495,3.8227,3.8813,3.8053,3.7574,3.8044,3.8447,3.8613,3.8466,3.893,3.9521,4.0196,3.9948,4.0232,4.1417,4.1677,4.1588,4.1157,4.1579,4.1529,4.0955,4.1213,4.1452,4.1589,4.1298,4.1304,4.1605,4.1456,4.1584,4.1987,4.2906,4.3722,4.4388,4.4665,4.4819,4.4747,4.4314,4.4074,4.3945,4.328,4.3035,4.3051,4.3088,4.3146,4.325,4.3713,4.4093,4.4406,4.4762,4.5083,4.5389,4.5323,4.5637,4.589,4.539,4.5207,4.4941,4.3985,4.3395,4.324,4.4027,4.4061,4.3999,4.4478,4.5235,4.5812,4.5721,4.5906,4.6504,4.7965,4.7692,4.7319,4.7462,4.7149,4.6674,4.592,4.5226,4.4748,4.4684,4.2604,4.1393,4.1784,4.0615,3.982,3.9698,3.9777,3.985,3.9829,4.0245,4.0474,4.0474,4.0568,4.0735,4.0979,4.0786,4.0775,4.1019,4.1101,4.1472,3.2182,3.2413,3.2603,3.2835,3.4037,3.543,3.6612,3.7212,3.8237,4.0723,4.0427,3.9832,4.0098,3.9596,3.9112,3.8938,3.8657,3.8687,3.9339,3.9217,3.9071,3.909,3.9433,3.9938,4.0601,4.0679,4.0752,4.0994,4.162,4.1827,4.1515,4.2171,4.2399,4.2067,4.2053,4.2171,4.2374,4.1652,4.1406,4.1605,4.1588,4.2036,4.29,4.4299,4.5072,4.5309,4.5819,4.6057,4.6026,4.5826,4.5537,4.5161,4.444,4.4145,4.4078,4.3728,4.3509,4.3464,4.3937,4.425,4.4561,4.4865,4.5177,4.5428,4.5567,4.5778,4.6008,4.6144,4.5738,4.5294,4.5398,4.4343,4.3326,4.349,4.4167,4.4647,4.4216,4.5859,4.7289,4.6845,4.7398,4.7995,4.8177,4.8352,4.8439,4.8448,4.8624,4.7799,4.5289,4.442,4.4718,4.6439,4.4512,4.2803,4.1986,4.1279,4.0515,3.9746,3.9828,3.9927,3.9991,4.086,4.1373,4.1373,4.1432,4.1868,4.2718,4.1924,4.199,4.2836,4.2889,4.2949,3.2537,3.3847,3.5251,3.5322,3.6785,3.8333,3.8762,3.932,4.0061,4.1322,4.0998,4.0617,4.1116,4.0324,3.9572,3.9515,3.9434,3.933,3.9273,3.955,3.965,3.9342,3.9553,3.984,4.0207,4.0649,4.1346,4.2431,4.242,4.2554,4.3074,4.3114,4.3038,4.2851,4.3047,4.3203,4.3241,4.3003,4.2979,4.3199,4.3062,4.3444,4.4299,4.4915,4.562,4.6364,4.6692,4.6932,4.6993,4.6436,4.5832,4.5225,4.4614,4.4008,4.3567,4.4272,4.4567,4.4638,4.5038,4.5334,4.5684,4.6425,4.6893,4.7111,4.6639,4.6847,4.7081,4.66,4.6389,4.6211,4.5907,4.5405,4.4999,4.523,4.561,4.5874,4.5723,4.6778,4.7606,4.7039,4.7044,4.7388,4.8136,4.7875,4.785,4.8587,4.8804,4.8587,4.7807,4.6573,4.6237,4.7449,4.4938,4.3072,4.2772,4.2158,4.1399,4.0625,4.1201,4.1601,4.1667,4.2009,4.2224,4.226,4.2345,4.2513,4.2795,4.2601,4.2684,4.2966,4.3047,4.3338,3.3855,3.5397,3.6902,3.7124,3.8615,4.0077,4.0142,4.0644,4.1273,4.1853,4.1312,4.085,4.1085,4.0191,3.9622,4.0083,4.0079,3.9973,3.9876,4.0192,4.0321,4.001,4.022,4.0525,4.0893,4.1201,4.1659,4.2375,4.2582,4.2904,4.335,4.3631,4.3786,4.3733,4.4015,4.4046,4.3827,4.3607,4.3583,4.3735,4.4091,4.4603,4.524,4.5655,4.63,4.7013,4.7132,4.7319,4.7538,4.7045,4.6635,4.6206,4.5593,4.5048,4.4652,4.5233,4.557,4.5808,4.6056,4.6343,4.6727,4.7403,4.783,4.8009,4.7596,4.7819,4.8053,4.7287,4.7394,4.7568,4.6688,4.6456,4.6464,4.6326,4.6473,4.661,4.6676,4.7096,4.7395,4.7109,4.6684,4.6708,4.7708,4.771,4.7887,4.8721,4.8659,4.867,4.9061,4.7994,4.7317,4.761,4.5543,4.3905,4.3305,4.2906,4.2334,4.1503,4.2092,4.2492,4.2536,4.2917,4.3138,4.3199,4.3201,4.3407,4.3776,4.3553,4.3593,4.3936,4.3962,4.4282,3.5945,3.6845,3.7542,3.8153,3.9429,4.0607,4.0821,4.1312,4.1853,4.2254,4.1417,4.0505,4.007,3.9347,3.9199,4.0495,4.0539,4.0632,4.1194,4.1138,4.0982,4.1,4.136,4.1886,4.2564,4.2328,4.1814,4.0958,4.2247,4.2921,4.2611,4.3776,4.4557,4.4735,4.4879,4.4666,4.403,4.3547,4.3326,4.331,4.4718,4.5462,4.5683,4.65,4.7013,4.725,4.725,4.7404,4.7704,4.7688,4.7787,4.7868,4.7073,4.692,4.7044,4.648,4.6518,4.6883,4.7078,4.7338,4.7601,4.7907,4.8097,4.8245,4.8343,4.8646,4.881,4.8151,4.8699,4.9183,4.7754,4.7565,4.7554,4.6757,4.6749,4.6891,4.7016,4.6949,4.692,4.7112,4.6506,4.6195,4.6975,4.7886,4.8606,4.8855,4.8335,4.8166,4.9048,4.8493,4.7784,4.7079,4.6332,4.5215,4.3602,4.3643,4.334,4.245,4.2611,4.2786,4.2792,4.3649,4.4146,4.4245,4.4118,4.4561,4.548,4.4666,4.4732,4.5594,4.5594,4.5594,3.6675,3.7652,3.8811,3.945,4.0399,4.1294,4.1878,4.2087,4.2125,4.1713,4.0633,3.9432,3.848,3.854,3.8887,3.939,4.0221,4.0898,4.103,4.1031,4.1067,4.1199,4.1449,4.1908,4.2731,4.2975,4.2775,4.2066,4.2351,4.327,4.4849,4.4422,4.4438,4.5138,4.4662,4.4396,4.4371,4.4792,4.4919,4.4782,4.5612,4.6235,4.6582,4.6795,4.715,4.7571,4.7571,4.7704,4.7869,4.734,4.7124,4.704,4.5748,4.5614,4.6156,4.6267,4.687,4.7725,4.8586,4.8709,4.8582,4.9367,4.9778,4.9907,4.9481,4.9568,4.9672,4.9102,4.921,4.9314,4.8537,4.8461,4.8419,4.7721,4.7696,4.7865,4.7904,4.7897,4.7945,4.7993,4.7903,4.7739,4.7506,4.8179,4.8787,4.9033,4.892,4.8725,4.833,4.7762,4.7288,4.7084,4.6944,4.6163,4.4497,4.5034,4.4846,4.343,4.4613,4.5384,4.5513,4.5731,4.5906,4.5967,4.5346,4.5175,4.548,4.5315,4.5376,4.5594,4.5594,4.5612,3.7016,3.7799,3.8774,4.0423,4.1039,4.136,4.1748,4.1884,4.1523,3.9966,3.8894,3.7914,3.6994,3.7426,3.8266,3.9247,4.0629,4.1675,4.198,4.1894,4.1947,4.2381,4.2156,4.2492,4.3907,4.3455,4.3332,4.3987,4.345,4.3516,4.4475,4.4236,4.4326,4.478,4.4513,4.4438,4.4639,4.5281,4.5636,4.5637,4.626,4.6806,4.7268,4.7268,4.7471,4.782,4.782,4.7704,4.7504,4.7485,4.7237,4.6824,4.6152,4.6147,4.6511,4.6465,4.6963,4.7748,4.8748,4.9083,4.9167,5.0014,5.0481,5.0568,4.9978,5.0265,5.0593,4.9662,5.0032,5.0507,4.9548,4.9434,4.9392,4.8644,4.8354,4.8265,4.8314,4.8078,4.7647,4.6985,4.7187,4.7388,4.7094,4.7747,4.8493,4.9039,4.8874,4.8544,4.8087,4.7785,4.7346,4.6593,4.6622,4.6363,4.5445,4.5849,4.5962,4.5434,4.6361,4.6947,4.7017,4.7078,4.6953,4.6654,4.6191,4.5822,4.555,4.5581,4.5594,4.5594,4.5633,4.5847,3.7192,3.7579,3.8077,4.0742,4.1073,4.0761,4.085,4.0901,4.0224,3.7798,3.6867,3.6246,3.5508,3.6181,3.7447,3.9165,4.0771,4.2059,4.2861,4.2643,4.2736,4.3596,4.2935,4.3144,4.5114,4.3843,4.3668,4.5589,4.4606,4.3731,4.3302,4.3802,4.4046,4.3984,4.4166,4.4332,4.4496,4.5189,4.566,4.5961,4.6657,4.7235,4.7704,4.7704,4.7803,4.8001,4.8001,4.7636,4.7089,4.7749,4.7633,4.7072,4.7189,4.7265,4.7312,4.699,4.6995,4.7338,4.8366,4.8978,4.9423,5.0154,5.0606,5.0751,5.0228,5.0835,5.146,5.0187,5.1011,5.1992,5.061,5.0337,5.0206,4.9424,4.8866,4.8491,4.8503,4.7942,4.703,4.5631,4.6018,4.657,4.6664,4.7453,4.8364,4.9313,4.8885,4.839,4.8294,4.8206,4.7579,4.6125,4.6255,4.6435,4.6367,4.6537,4.6908,4.7562,4.78,4.7867,4.7884,4.7991,4.7688,4.6901,4.6862,4.646,4.5603,4.571,4.5714,4.5612,4.576,4.6243,3.776,3.7647,3.7658,3.9366,3.9319,3.8997,3.9564,3.8989,3.803,3.7037,3.5977,3.4895,3.3846,3.5126,3.6485,3.6996,3.8241,3.9647,4.1034,4.0718,4.0902,4.2473,4.2496,4.2871,4.4129,4.3976,4.3744,4.3722,4.3584,4.3987,4.5049,4.4117,4.3347,4.2879,4.2911,4.2943,4.299,4.4448,4.5212,4.5294,4.6731,4.752,4.7704,4.7704,4.7803,4.8001,4.8001,4.7934,4.7769,4.7304,4.7404,4.7719,4.6697,4.6675,4.7189,4.7567,4.7412,4.7262,4.8919,4.9427,4.9423,5.0154,5.0675,5.1039,5.1043,5.1373,5.1699,5.1646,5.1958,5.21,5.1298,5.0762,5.0227,4.9517,4.9414,4.9276,4.8632,4.8384,4.8089,4.7385,4.7873,4.8464,4.8575,4.9367,5.0235,5.1187,5.0659,4.9974,4.9409,4.8167,4.7224,4.6993,4.7679,4.7925,4.734,4.7966,4.8175,4.7724,4.8357,4.8791,4.8843,4.887,4.8546,4.7804,4.7842,4.7126,4.5688,4.6334,4.6318,4.5703,4.6377,4.6826,3.6916,3.6891,3.7126,3.9079,3.9043,3.8657,3.9088,3.8211,3.6902,3.5558,3.4592,3.3754,3.2849,3.4129,3.5477,3.5922,3.7479,3.9166,4.0597,4.0673,4.117,4.275,4.245,4.2762,4.4377,4.3621,4.3419,4.4388,4.3475,4.3202,4.3895,4.3331,4.3218,4.3735,4.3735,4.3945,4.4432,4.5603,4.6273,4.6438,4.7259,4.7704,4.7836,4.7473,4.7323,4.7438,4.7534,4.7319,4.689,4.7609,4.7509,4.6934,4.659,4.6599,4.677,4.6486,4.6465,4.6749,4.8228,4.8723,4.8893,5.0194,5.0865,5.1078,5.0394,5.0968,5.1777,5.1118,5.1643,5.2338,5.2041,5.1552,5.1052,5.081,5.0601,5.0351,4.9981,4.9612,4.9296,4.9082,4.905,4.9188,4.9691,5.0194,5.0792,5.1657,5.1503,5.1013,5.0312,4.9153,4.7954,4.6766,4.7437,4.7877,4.7566,4.8333,4.8915,4.9041,4.944,4.971,4.9751,4.9827,4.9475,4.8741,4.8808,4.8229,4.7011,4.6994,4.6771,4.6342,4.6777,4.7287,3.5885,3.6123,3.6697,3.8782,3.8762,3.8361,3.8715,3.7524,3.5915,3.4409,3.3581,3.2975,3.2453,3.3457,3.4547,3.5072,3.6879,3.86,3.986,4.0514,4.134,4.2682,4.2272,4.2583,4.4275,4.3101,4.2992,4.4897,4.3622,4.2669,4.2461,4.2602,4.3312,4.4594,4.4659,4.5065,4.593,4.6698,4.7225,4.7523,4.7721,4.7886,4.8017,4.7335,4.7003,4.6938,4.6979,4.668,4.6253,4.7693,4.7492,4.6321,4.6612,4.6581,4.6233,4.5662,4.5685,4.6158,4.7623,4.8172,4.8478,5.0231,5.1052,5.1115,4.9987,5.0843,5.1958,5.073,5.1348,5.2318,5.2361,5.181,5.1365,5.1724,5.1494,5.125,5.1454,5.0898,5.0376,5.0546,5.0067,4.9923,5.0783,5.107,5.1436,5.2253,5.2281,5.1987,5.1434,5.0666,4.9338,4.7135,4.7352,4.7783,4.8109,4.8775,4.9515,5.0239,5.0294,5.0361,5.0424,5.0489,5.0184,4.9394,4.9633,4.9242,4.8223,4.7981,4.7677,4.7238,4.7886,4.8476,3.5465,3.5896,3.6471,3.7605,3.7389,3.7107,3.7926,3.6301,3.457,3.4386,3.3613,3.2907,3.2858,3.3436,3.3965,3.4028,3.5225,3.6484,3.74,3.8654,3.9866,4.0912,4.1532,4.2108,4.2591,4.2589,4.2715,4.313,4.371,4.3598,4.2619,4.2882,4.335,4.4056,4.4199,4.4621,4.5357,4.6273,4.6814,4.6991,4.7783,4.8163,4.8146,4.7621,4.7238,4.7063,4.6586,4.6714,4.7231,4.6727,4.6827,4.7229,4.6723,4.6199,4.579,4.6678,4.6357,4.5803,4.8155,4.8808,4.8802,5.0298,5.1105,5.147,5.1467,5.191,5.2422,5.2136,5.1885,5.1657,5.1547,5.056,4.9868,5.0929,5.1203,5.1408,5.228,5.1751,5.1158,5.1347,5.137,5.168,5.2597,5.2886,5.3245,5.4025,5.3603,5.3166,5.314,5.2507,5.1409,4.9721,4.8976,4.8922,4.9803,4.9992,5.0135,5.0277,5.0367,5.0424,5.0489,5.0548,5.022,4.9433,5.0173,4.9838,4.8304,4.974,4.9701,4.8338,5.0643,5.1362,3.5408,3.6284,3.7224,3.7765,3.7748,3.7759,3.8345,3.6384,3.4503,3.4678,3.3308,3.2275,3.2792,3.2743,3.2801,3.332,3.4192,3.5169,3.6104,3.7067,3.8358,4.0206,4.0793,4.1671,4.3167,4.3471,4.3792,4.4329,4.4355,4.4402,4.4392,4.4407,4.4767,4.5536,4.5537,4.5796,4.6396,4.7125,4.7172,4.656,4.7772,4.7938,4.7038,4.6845,4.6712,4.6583,4.6017,4.6148,4.6773,4.7196,4.6911,4.6238,4.6728,4.6743,4.6452,4.6727,4.6811,4.6961,4.8266,4.8356,4.8163,4.9944,5.0733,5.1044,5.1093,5.1742,5.2419,5.196,5.1729,5.1613,5.1624,5.104,5.0706,5.1731,5.2001,5.2261,5.3153,5.2651,5.2215,5.2883,5.2656,5.2669,5.3616,5.3861,5.4059,5.441,5.4217,5.3876,5.3512,5.2772,5.19,5.085,5.0446,5.0024,4.9429,4.9884,5.0218,5.0315,5.0373,5.0435,5.05,5.0553,5.0465,5.0206,5.057,5.0451,4.9817,5.0022,5.0062,4.9943,5.0979,5.1604,3.5082,3.628,3.7439,3.7657,3.7823,3.7973,3.8345,3.643,3.4575,3.4557,3.3031,3.1911,3.2613,3.2322,3.2261,3.3077,3.3824,3.4596,3.5587,3.6288,3.7537,3.98,4.0174,4.1134,4.3435,4.4244,4.4877,4.5481,4.5313,4.5473,4.6097,4.617,4.6254,4.6432,4.632,4.6481,4.6875,4.7298,4.7111,4.6386,4.7642,4.7675,4.6688,4.6764,4.666,4.6391,4.5799,4.5828,4.6271,4.6927,4.6554,4.5655,4.6289,4.6552,4.6512,4.6295,4.6656,4.7274,4.7945,4.7904,4.7796,4.9465,5.0186,5.0438,5.0796,5.1667,5.2497,5.2031,5.181,5.1632,5.1328,5.1192,5.1314,5.2011,5.2215,5.2457,5.3274,5.3014,5.2791,5.3516,5.3457,5.3397,5.3885,5.3991,5.4134,5.4426,5.4288,5.4097,5.3867,5.3202,5.257,5.2106,5.1849,5.1173,4.9771,5.0487,5.0891,5.0697,5.0734,5.0681,5.05,5.0568,5.0649,5.0696,5.0751,5.0941,5.1185,5.0677,5.0759,5.1316,5.19,5.2658,3.4277,3.5589,3.6776,3.6942,3.7122,3.7267,3.746,3.6044,3.4535,3.392,3.2837,3.2067,3.2266,3.2406,3.2717,3.3391,3.4184,3.4987,3.5881,3.6561,3.7689,3.9487,3.9646,4.0518,4.2886,4.4613,4.572,4.6047,4.6572,4.7018,4.7347,4.7892,4.7496,4.6047,4.6014,4.6091,4.631,4.6295,4.6386,4.6514,4.724,4.7594,4.7594,4.7796,4.7432,4.6669,4.6118,4.5954,4.606,4.5337,4.5439,4.6026,4.5302,4.5184,4.5437,4.5402,4.5684,4.6132,4.7101,4.7572,4.7972,4.8971,4.9472,4.9919,5.0963,5.1998,5.2794,5.2794,5.2384,5.1671,5.0267,5.0546,5.1204,5.1204,5.1315,5.1639,5.2457,5.2605,5.2661,5.2851,5.3531,5.3901,5.3303,5.3224,5.3478,5.4296,5.3844,5.3729,5.4576,5.4178,5.3784,5.3791,5.3115,5.2361,5.1522,5.2271,5.2422,5.1652,5.1654,5.1338,5.0538,5.0614,5.0693,5.0696,5.0751,5.1224,5.2073,5.2162,5.2206,5.2322,5.4071,5.5373,3.2587,3.3877,3.5329,3.5047,3.508,3.5401,3.6122,3.5083,3.4048,3.4132,3.3077,3.2373,3.3112,3.2927,3.3054,3.4329,3.4675,3.5139,3.6194,3.6319,3.7247,3.9729,4.1844,4.3566,4.4832,4.6029,4.6719,4.678,4.7091,4.7334,4.7518,4.7613,4.7231,4.6349,4.6745,4.6621,4.5915,4.6739,4.6769,4.5954,4.771,4.8029,4.7083,4.7755,4.7626,4.6879,4.6303,4.6102,4.6213,4.5966,4.576,4.5648,4.6086,4.6249,4.6334,4.6565,4.6694,4.6905,4.7489,4.7427,4.7263,4.8293,4.9157,5.0019,5.1062,5.1628,5.2021,5.2255,5.2185,5.1855,5.0999,5.0593,5.0555,5.1176,5.0906,5.0748,5.1602,5.1834,5.1842,5.1879,5.2217,5.2422,5.216,5.2223,5.2422,5.2835,5.271,5.2711,5.3081,5.2985,5.2703,5.2212,5.2494,5.259,5.2323,5.2112,5.1882,5.1614,5.1162,5.0768,5.0505,5.0614,5.0693,5.0696,5.0751,5.1224,5.2116,5.2162,5.2845,5.4114,5.5288,5.6035,3.1286,3.257,3.3985,3.3378,3.3872,3.4474,3.4569,3.3985,3.339,3.3219,3.2526,3.2151,3.2805,3.2866,3.3242,3.4394,3.4562,3.5007,3.6306,3.6371,3.7245,3.9965,4.2613,4.4327,4.4646,4.5934,4.6675,4.6483,4.7093,4.7567,4.7686,4.7913,4.7711,4.7061,4.7313,4.7071,4.6181,4.6959,4.7003,4.6331,4.798,4.8286,4.7417,4.7962,4.7831,4.7158,4.6472,4.6083,0.0,4.6033,4.5803,4.555,4.6113,4.6378,4.646,4.6611,4.6752,4.6963,4.7285,4.7394,4.7439,4.8227,4.9236,5.0304,5.0971,5.1683,5.2223,5.2217,5.2223,5.2077,5.1436,5.0666,5.0193,5.0767,5.0265,4.9902,5.0792,5.0996,5.1097,5.1486,5.1645,5.1711,5.1761,5.1598,5.1651,5.2122,5.1941,5.1895,5.2359,5.2199,5.2028,5.1903,5.2126,5.2393,5.2704,5.2322,5.1926,5.1614,5.1195,5.0807,5.0505,5.0629,5.0721,5.0729,5.1086,5.1713,5.2644,5.3015,5.3809,5.4907,5.5197,5.5671,0.0,3.1496,3.2632,3.1978,3.3081,3.4039,3.2921,3.2775,0.0,3.1531,3.1473,3.1638,3.1682,3.2466,3.3299,3.3917,3.409,3.4747,3.6378,3.6849,3.7919,4.0255,4.2286,4.3355,4.2984,4.4812,4.5848,4.5427,4.6769,4.7686,4.7819,4.8594,4.8695,4.8019,4.7833,4.7489,4.7005,4.7068,4.7189,4.7395,4.8133,4.846,4.8392,4.8407,4.8068,4.7374,4.6653,4.5979,4.5423,4.5554,4.5619,4.5632,4.5632,4.5787,4.6015,4.5889,4.6067,4.6447,4.6779,4.7452,4.8268,4.8728,4.9672,5.0633,5.0839,5.2005,5.3111,5.2562,5.2407,5.2251,5.1575,5.0748,5.0116,5.0107,4.9485,4.9139,5.0044,5.0149,5.0436,5.1432,5.1573,5.1598,5.1874,5.129,5.1103,5.1979,5.1495,5.131,5.2108,5.1709,5.163,5.2431,5.1921,5.1849,5.2658,5.2779,5.2467,5.1658,5.166,5.1344,5.0549,5.0692,5.0835,5.0893,5.1825,5.2717,5.3571,5.4502,5.497,5.4985,5.4246,5.4762,2.7806,0.0,3.067,3.0289,3.0492,3.09,0.0,3.152,3.1602,3.1532,3.1638,3.1943,3.2611,3.2943,3.3522,3.483,3.5007,3.5571,3.7393,3.9166,4.0701,4.1715,4.3462,4.4526,4.4434,4.5607,4.6122,4.5442,4.6907,4.7665,4.7218,4.844,4.9146,4.9127,4.9097,4.8405,4.702,4.7729,4.8075,4.8153,4.8905,4.8939,4.8392,4.8508,4.7846,4.6584,4.6665,4.6254,4.5567,4.5594,4.5736,4.5914,4.58,4.5927,4.6165,4.6127,4.6228,4.6517,4.7417,4.7973,4.855,5.0299,5.0736,5.0753,5.1561,5.2143,5.2511,5.2433,5.2455,5.2382,5.1593,5.083,5.0233,5.0125,4.9565,4.9105,4.9316,4.9969,5.0351,4.9911,5.0413,5.0936,5.0919,5.0873,5.0877,5.1179,5.1072,5.087,5.0585,5.0487,5.0488,5.0753,5.0668,5.0965,5.1805,5.2471,5.2544,5.1729,5.1727,5.1408,5.0602,5.1249,5.1684,5.1781,5.3292,5.4207,5.4409,5.5316,5.5803,5.5873,5.5744,5.5907,2.7203,2.8511,2.9751,2.9639,3.0161,3.0685,3.067,3.0766,3.0883,3.0823,3.1168,3.1713,3.2449,3.2946,3.3604,3.4703,3.5179,3.6228,3.8664,4.0328,4.1739,4.2885,4.3787,4.4371,4.4593,4.5152,4.55,4.5558,4.6752,4.7465,4.7412,4.8647,4.9335,4.935,4.95,4.9169,4.826,4.8416,4.8523,4.8581,4.8649,4.8486,4.818,4.7906,4.7355,4.6594,4.6429,4.6079,4.571,4.5774,4.5892,4.608,4.593,4.608,4.6362,4.624,4.6362,4.6732,4.7808,4.8884,4.9981,5.1162,5.1443,5.141,5.2013,5.2318,5.2454,5.2465,5.2299,5.2048,5.1974,5.1414,5.0723,5.0298,4.995,4.9699,4.977,4.9865,5.0193,5.0949,5.0523,5.045,5.1718,5.1028,5.0568,5.1472,5.1303,5.0964,5.0696,5.0665,5.0577,5.03,5.0259,5.0474,5.0965,5.1861,5.2213,5.172,5.211,5.1978,5.1193,5.2043,5.2777,5.3242,5.4214,5.4893,5.528,5.5835,5.6133,5.6183,5.5867,5.5922,2.7402,2.8559,2.9497,2.9527,3.066,3.1483,3.043,3.0296,3.0287,2.9966,3.053,3.1312,3.2063,3.2944,3.3782,3.457,3.5533,3.715,3.9998,4.0989,4.2065,4.3702,4.3776,4.3879,4.425,4.4442,4.4865,4.5664,4.6539,4.7282,4.7958,4.8752,4.9182,4.915,4.9316,4.9394,4.9394,4.8879,4.8627,4.8617,4.801,4.7748,4.7719,4.7088,4.6834,4.6826,4.6294,4.5968,4.5863,4.612,4.6222,4.6204,4.6067,4.6265,4.6578,4.6338,4.6495,4.7001,4.8074,4.9706,5.134,5.1555,5.1773,5.2002,5.238,5.2444,5.2457,5.2717,5.2131,5.1546,5.2104,5.1684,5.101,5.0434,5.0362,5.0455,5.0733,5.026,5.048,5.2696,5.1383,5.0662,5.3059,5.1707,5.0777,5.2186,5.1805,5.1344,5.1205,5.1192,5.0983,5.038,5.0283,5.0359,5.0486,5.1283,5.182,5.189,5.2598,5.2774,5.2246,5.3051,5.389,5.4767,5.4866,5.5241,5.6014,5.6105,5.6168,5.6183,5.5356,5.5494,2.741,2.8744,2.9811,2.9445,2.999,3.0497,2.9922,2.9797,2.9832,2.9891,3.0464,3.1382,3.2831,3.3693,3.4693,3.625,3.7767,3.9328,4.1058,4.2005,4.2889,4.3798,4.4068,4.4207,4.4279,4.5014,4.5596,4.5835,4.6578,4.7427,4.8445,4.8057,4.8129,4.8847,4.8319,4.7989,4.7989,4.8506,4.8485,4.7858,4.7879,4.7567,4.697,4.6986,4.6664,4.6202,4.6876,4.671,4.604,4.6978,4.6887,4.6216,4.6191,4.635,4.6578,4.6435,4.6625,4.715,4.8398,4.9517,5.0551,5.1448,5.1469,5.1349,5.286,5.2519,5.1862,5.3237,5.2577,5.1376,5.0806,5.0061,4.9623,5.0153,5.0333,5.0613,5.1453,5.2119,5.254,5.2314,5.2494,5.2849,5.3314,5.3119,5.2794,5.24,5.2319,5.1823,5.045,5.0367,5.0358,5.0309,5.0283,5.0612,5.1429,5.1649,5.2016,5.2745,5.3042,5.3451,5.4077,5.4299,5.4762,5.5609,5.574,5.5859,5.6014,5.6038,5.6109,5.6183,5.5369,5.5485,2.6858,2.8015,2.9056,2.9801,3.078,3.1385,3.0829,3.0773,3.0854,3.1013,3.1341,3.2048,3.3551,3.4227,3.5206,3.7272,3.8698,4.0014,4.1411,4.2412,4.3274,4.4045,4.4279,4.4589,4.5014,4.5495,4.5953,4.6375,4.6772,4.7214,4.7699,4.7583,4.7676,4.8077,4.7851,4.7514,4.71,4.7513,4.7513,4.71,4.7249,4.6928,4.6278,4.6852,4.7009,4.6896,4.7309,4.7299,4.6984,4.7023,4.6837,4.6518,4.6459,4.6578,4.6801,4.6812,4.7259,4.7891,4.8652,4.952,5.0419,5.1005,5.113,5.1189,5.2045,5.1899,5.1601,5.249,5.2119,5.148,5.1526,5.0966,5.048,5.0852,5.1039,5.1382,5.2248,5.2473,5.2693,5.3357,5.3039,5.2988,5.4027,5.3445,5.2892,5.3043,5.3144,5.2786,5.1605,5.1904,5.2081,5.1691,5.1276,5.1168,5.1617,5.1697,5.2296,5.3689,5.3815,5.4259,5.5173,5.5194,5.5411,5.5865,5.5909,5.5961,5.6016,5.6089,5.6153,5.6174,5.4925,5.481,2.6436,2.754,2.8557,2.9943,3.1202,3.2065,3.1975,3.1927,3.2013,3.244,3.2787,3.3383,3.466,3.5383,3.6439,3.842,3.9541,4.0595,4.1816,4.2981,4.3956,4.4552,4.4882,4.5334,4.6021,4.6297,4.6549,4.6884,4.7005,4.7077,4.7121,4.7035,4.7106,4.7278,4.7245,4.6934,4.636,4.6701,4.6667,4.636,4.6533,4.6352,4.5863,4.6831,4.7279,4.735,4.7715,4.7742,4.7475,4.705,4.685,4.6778,4.6649,4.6754,4.702,4.7167,4.7671,4.8365,4.8615,4.9237,4.9981,5.0552,5.0797,5.0962,5.1658,5.1686,5.1498,5.195,5.1631,5.1304,5.1917,5.1507,5.0984,5.1402,5.1654,5.2044,5.3063,5.2878,5.2919,5.4361,5.3599,5.3186,5.4633,5.3648,5.2891,5.3608,5.3611,5.3308,5.2697,5.3257,5.3468,5.2881,5.227,5.1888,5.19,5.2156,5.2893,5.4298,5.4578,5.5012,5.5771,5.5756,5.5782,5.5895,5.5933,5.6066,5.6338,5.623,5.6287,5.6474,5.463,5.4247,2.6508,2.791,2.9234,2.9364,3.0119,3.1203,3.266,3.2556,3.2553,3.3864,3.4791,3.5616,3.6556,3.7952,3.9276,4.0267,4.1061,4.1883,4.2777,4.4246,4.5313,4.5568,4.6307,4.6927,4.7147,4.7632,4.7739,4.7284,4.7201,4.7278,4.7469,4.6233,4.5901,4.6638,4.6081,4.5732,4.5663,4.6569,4.6534,4.5663,4.5933,4.6025,4.6002,4.6971,4.7051,4.6587,4.808,4.7943,4.6743,4.7439,4.7334,4.6778,4.6649,4.6754,4.7032,4.722,4.7475,4.7808,4.801,4.8221,4.8737,5.036,5.0507,5.0509,5.2902,5.2624,5.1672,5.257,5.1631,5.0405,5.0537,4.9846,4.9482,5.1142,5.1619,5.2171,5.3841,5.4228,5.4292,5.4459,5.4511,5.4591,5.4791,5.4141,5.3646,5.377,5.3162,5.2703,5.2685,5.28,5.2843,5.2811,5.2734,5.2752,5.2806,5.3592,5.4198,5.4381,5.5116,5.5566,5.5708,5.5802,5.589,5.5895,5.6033,5.6496,5.7283,5.6547,5.6626,5.7331,5.4844,5.4179,2.5999,2.742,2.8793,2.9307,3.0128,3.1105,3.2169,3.297,3.3815,3.4901,3.5812,3.6543,3.6947,3.8347,3.9382,3.9248,4.0294,4.1606,4.2931,4.4148,4.5133,4.5764,4.6587,4.7144,4.7216,4.7431,4.7451,4.725,4.6806,4.6383,4.6103,4.5641,4.5535,4.5858,4.5622,4.5476,4.5476,4.5975,4.6065,4.5736,4.6415,4.6469,4.6015,4.6983,4.7297,4.7174,4.7786,4.7789,4.7345,4.7204,4.7027,4.6801,4.694,4.7043,4.7156,4.7454,4.7615,4.7803,4.8612,4.8995,4.9226,4.9969,5.012,5.0129,5.0752,5.0489,5.0104,5.0642,5.0227,4.9736,5.0196,4.9617,4.9325,5.1104,5.1619,5.2163,5.3916,5.434,5.4451,5.4608,5.4665,5.4728,5.4852,5.4632,5.4298,5.3853,5.4006,5.4005,5.3544,5.4028,5.4409,5.4409,5.3913,5.3619,5.3638,5.4011,5.4491,5.5054,5.5905,5.6203,5.5794,5.6799,5.7163,5.6724,5.7314,5.7847,5.8215,5.7419,5.6922,5.669,5.4666,5.3611,2.5738,2.7137,2.8552,2.9366,3.0264,3.1211,3.2222,3.3469,3.4763,3.6037,3.6847,3.743,3.7803,3.857,3.9094,3.8846,3.9979,4.1339,4.2677,4.3916,4.4984,4.5781,4.6672,4.7201,4.7216,4.7173,4.7056,4.686,4.6382,4.5939,4.5568,4.5434,4.55,4.5776,4.5588,4.5489,4.5528,4.5761,4.5927,4.598,4.6628,4.6758,4.6475,4.7151,4.751,4.7597,4.7597,4.7554,4.7429,4.6909,4.6743,4.6906,4.7111,4.7256,4.7377,4.7604,4.7762,4.7959,4.8766,4.9148,4.9359,4.9704,4.9769,4.9654,4.9582,4.9355,4.9185,4.9396,4.9335,4.9417,5.0201,4.9901,4.9812,5.153,5.2028,5.2525,5.3991,5.434,5.4451,5.4576,5.4649,5.472,5.4829,5.4663,5.4464,5.423,5.4514,5.4659,5.4453,5.4995,5.5396,5.5396,5.5097,5.4791,5.4524,5.4566,5.4983,5.5868,5.6817,5.6983,5.6254,5.76,5.8003,5.7221,5.8148,5.8535,5.8335,5.7804,5.7233,5.6661,5.4935,5.3874,2.5884,2.7233,2.8693,2.9498,3.0409,3.1521,3.3053,3.4069,3.528,3.74,3.8045,3.8466,3.9342,3.8915,3.87,3.9543,4.0425,4.1243,4.2004,4.366,4.5075,4.579,4.6652,4.7216,4.7258,4.7101,4.6751,4.6136,4.6088,4.6144,4.6289,4.5709,4.579,4.6548,4.5956,4.5671,4.5812,4.5939,4.613,4.641,4.641,4.676,4.741,4.7535,4.7597,4.7597,4.7597,4.7332,4.6801,4.6518,4.6637,4.702,4.7145,4.7399,4.7689,4.7689,4.7917,4.8197,4.8197,4.84,4.8762,4.9621,4.9453,4.9093,4.9998,4.9765,4.923,4.9311,4.9327,4.9514,5.0375,5.0534,5.0849,5.2502,5.2937,5.3222,5.4121,5.434,5.4409,5.4409,5.4568,5.4689,5.4689,5.4133,5.4024,5.4978,5.4434,5.426,5.5269,5.5396,5.5396,5.5396,5.6091,5.6288,5.5473,5.5484,5.5868,5.6762,5.7742,5.7955,5.7145,5.8018,5.8109,5.7225,5.8213,5.8335,5.7525,5.759,5.7597,5.7548,5.588,5.512,2.5226,2.6735,2.8435,2.8823,3.1177,3.3465,3.3925,3.4763,3.6158,3.8493,3.9207,3.9288,3.8923,3.9603,4.013,3.9887,4.0477,4.1485,4.28,4.347,4.3952,4.43,4.594,4.6735,4.5898,4.6164,4.6369,4.6447,4.5829,4.552,4.5654,4.5522,4.55,4.5755,4.5575,4.5528,4.5671,4.58,4.5965,4.6105,4.6314,4.6809,4.7548,4.7671,4.8014,4.8433,4.8521,4.8171,4.7476,4.7015,4.6973,4.7232,4.7464,4.7604,4.772,4.7957,4.8473,4.9049,4.9197,4.9729,5.0323,5.0047,4.986,4.9734,4.9562,4.9368,4.935,5.0095,5.0236,5.0346,5.1273,5.1861,5.2355,5.285,5.298,5.3239,5.417,5.4392,5.4451,5.4584,5.4649,5.472,5.4829,5.4701,5.4654,5.4983,5.4857,5.4901,5.5345,5.5396,5.5396,5.5396,5.5626,5.5651,5.5428,5.5969,5.6514,5.6923,5.8369,5.8841,5.7993,5.9446,5.9592,5.8199,5.9116,5.9223,5.8411,5.8418,5.7848,5.6731,5.6208,5.5343,2.6167,2.7699,2.9409,2.9921,3.2464,3.514,3.6055,3.6523,3.7296,3.9129,3.9451,3.9425,3.9533,4.0114,4.0516,4.0433,4.0783,4.1416,4.2395,4.2563,4.2765,4.3164,4.4443,4.5131,4.4706,4.4994,4.5446,4.6019,4.5518,4.5381,4.5845,4.5569,4.5561,4.5938,4.5662,4.5581,4.5761,4.5851,4.598,4.6228,4.641,4.6931,4.7757,4.7511,4.7972,4.8914,4.8815,4.8282,4.75,4.7543,4.753,4.7461,4.7636,4.7772,4.7917,4.8118,4.8759,4.9534,4.9661,5.0137,5.0592,5.013,4.9868,4.9703,4.9645,4.9691,4.9952,5.0882,5.1115,5.1182,5.1764,5.249,5.3094,5.3094,5.3319,5.3703,5.4288,5.4409,5.4451,5.46,5.4665,5.4728,5.4845,5.4898,5.4905,5.4985,5.5092,5.5202,5.5383,5.567,5.5747,5.5435,5.5708,5.5887,5.5918,5.6415,5.7081,5.7934,5.9001,5.9512,5.9367,6.0451,6.0287,5.8635,5.9865,5.9774,5.8281,5.8678,5.818,5.6903,5.6503,5.5828,2.8015,2.9515,3.1018,3.1985,3.4128,3.6587,3.8904,3.8911,3.8631,3.9368,3.9111,3.9185,4.0738,4.0516,4.0386,4.1178,4.1305,4.1271,4.1217,4.1333,4.1648,4.2328,4.2649,4.3116,4.386,4.3976,4.4337,4.5169,4.5217,4.5601,4.6445,4.579,4.5821,4.6645,4.6001,4.5749,4.6015,4.6015,4.6191,4.6578,4.659,4.7086,4.7974,4.7263,4.7773,4.9208,4.8637,4.7979,4.7327,4.8104,4.8146,4.771,4.772,4.7917,4.8197,4.8207,4.8884,4.9783,4.9645,4.9815,5.0092,4.9953,4.955,4.9233,5.0041,5.0422,5.0779,5.1657,5.1932,5.1989,5.2035,5.2644,5.3282,5.3224,5.3816,5.4409,5.4409,5.4409,5.4405,5.4505,5.4633,5.4713,5.4791,5.4867,5.4912,5.5,5.5095,5.5242,5.539,5.6052,5.6205,5.5473,5.6129,5.6626,5.6696,5.6918,5.7737,5.9413,5.9733,6.0199,6.0963,6.1051,6.0367,5.8759,6.0355,5.9987,5.7499,5.845,5.8454,5.7549,5.6853,5.6519,2.823,2.9526,3.0916,3.2078,3.4956,3.8031,3.9893,4.0288,4.0114,3.9752,3.9711,4.0058,4.0996,4.1503,4.1854,4.2016,4.2049,4.1886,4.1426,4.1363,4.1495,4.178,4.2898,4.3749,4.4039,4.4567,4.5032,4.5323,4.5371,4.544,4.5638,4.5606,4.565,4.5849,4.5779,4.5851,4.6015,4.6015,4.6142,4.6459,4.6554,4.7086,4.8022,4.7927,4.8817,5.0307,4.9015,4.8794,4.9185,4.8149,4.7759,4.7861,4.7927,4.8022,4.8207,4.8238,4.9272,5.0465,4.9251,4.976,5.075,4.9534,4.9039,4.9119,5.0007,5.0371,5.0771,5.2306,5.2752,5.2777,5.2899,5.3495,5.391,5.3357,5.3816,5.4409,5.4409,5.4409,5.446,5.4625,5.4673,5.4728,5.4867,5.4905,5.4927,5.5071,5.5082,5.5188,5.5383,5.5549,5.5594,5.5435,5.6129,5.6646,5.6764,5.8016,5.9016,5.9535,6.0872,6.1438,6.1002,6.1051,6.0652,5.973,6.0119,5.9431,5.758,5.8406,5.8091,5.6708,5.7134,5.7043,2.896,3.031,3.1907,3.4516,3.6947,3.9063,4.0293,4.0742,4.0701,3.9962,3.9961,4.035,4.1068,4.1813,4.2185,4.1813,4.2063,4.1954,4.0913,4.1146,4.1303,4.11,4.2475,4.3524,4.3666,4.4333,4.4806,4.4872,4.5269,4.5329,4.4997,4.5437,4.5736,4.58,4.5876,4.5977,4.6067,4.6115,4.6216,4.6506,4.6566,4.698,4.7628,4.8008,4.8484,4.8947,4.9037,4.89,4.8679,4.9161,4.8792,4.802,4.8846,4.9042,4.8908,4.9351,5.013,5.0939,5.0517,5.0778,5.1222,5.0804,5.0438,5.0368,5.1277,5.166,5.2003,5.3311,5.3665,5.3599,5.3282,5.3774,5.4161,5.3395,5.3816,5.4409,5.4409,5.4409,5.4468,5.4649,5.4689,5.4736,5.489,5.492,5.4949,5.5102,5.5102,5.5168,5.5377,5.5396,5.5556,5.5938,5.6014,5.6556,5.7851,5.8431,5.9131,6.0123,6.1467,6.1846,6.1041,6.1505,6.1225,6.0014,6.0445,6.006,5.8781,5.9261,5.9024,5.8215,5.8212,5.7821,2.9466,3.1077,3.3056,3.7059,3.8578,3.9348,4.0254,4.0655,4.065,4.0057,4.0125,4.0472,4.1102,4.1813,4.2049,4.1339,4.1711,4.167,4.0345,4.076,4.1112,4.0786,4.1947,4.2953,4.3367,4.3931,4.4311,4.4337,4.5092,4.5247,4.4536,4.5332,4.5863,4.5977,4.6028,4.6115,4.6216,4.6216,4.6362,4.6637,4.6661,4.6871,4.7214,4.7745,4.7722,4.7361,4.8737,4.8659,4.7778,4.9842,4.9734,4.8387,4.9669,5.0023,4.9904,5.0565,5.0952,5.1191,5.1727,5.1676,5.1491,5.2011,5.1906,5.1749,5.2599,5.2992,5.3324,5.4103,5.4375,5.4242,5.3591,5.3892,5.4221,5.3554,5.3929,5.4417,5.4426,5.4417,5.4468,5.4649,5.4697,5.4744,5.4875,5.4905,5.4956,5.5123,5.5261,5.5389,5.5555,5.5734,5.6091,5.6747,5.6256,5.6747,5.9025,5.8649,5.901,6.0686,6.1653,6.1896,6.1219,6.2191,6.2073,6.0673,6.1074,6.0921,6.0102,6.0168,6.0122,5.9963,5.9224,5.8566,2.855,3.0607,3.3309,3.6596,3.7524,3.802,3.9647,4.0026,4.0057,4.0049,4.0595,4.1068,4.117,4.1813,4.2049,4.1339,4.1258,4.1146,4.0526,4.0464,4.0765,4.1682,4.1874,4.2527,4.4022,4.4242,4.4349,4.4451,4.5075,4.5178,4.4546,4.5332,4.5825,4.5838,4.6065,4.6228,4.6374,4.6374,4.6506,4.6766,4.6906,4.7043,4.7178,4.7173,4.7644,4.8463,4.7991,4.8204,4.882,4.8383,4.8577,4.9208,4.9336,4.9876,5.0665,5.0838,5.0983,5.1016,5.0481,5.0805,5.1305,5.0627,5.0931,5.1644,5.241,5.2789,5.3098,5.392,5.4227,5.4306,5.4242,5.4334,5.4371,5.4259,5.4334,5.4434,5.4472,5.443,5.4468,5.4649,5.4736,5.4783,5.4806,5.4867,5.4912,5.5014,5.5724,5.6252,5.6334,5.7044,5.7619,5.7695,5.7678,5.8062,5.9108,5.9223,5.9648,6.0665,6.1637,6.2155,6.2055,6.3061,6.3503,6.3318,6.2032,6.0946,6.0102,6.0105,5.975,5.9068,5.8952,5.887,2.9293,3.1807,3.4346,3.67,3.7665,3.8367,3.961,3.9969,4.0045,4.01,4.0709,4.1068,4.0675,4.117,4.1441,4.0709,4.0933,4.0997,4.0452,4.074,4.1091,4.1255,4.2405,4.3338,4.3655,4.4423,4.4785,4.4524,4.4814,4.4912,4.4714,4.5152,4.5586,4.6005,4.6204,4.6338,4.641,4.6483,4.6613,4.6789,4.702,4.7167,4.7243,4.7187,4.7422,4.7925,4.8033,4.8359,4.892,4.9575,4.9871,5.006,5.0957,5.1402,5.1473,5.1547,5.1352,5.1127,5.1305,5.1102,5.0856,5.1377,5.1894,5.239,5.2711,5.3247,5.381,5.4184,5.4323,5.4357,5.44,5.4409,5.4426,5.4439,5.4447,5.4472,5.4608,5.451,5.4468,5.4649,5.4744,5.4822,5.492,5.5344,5.5714,5.5836,5.6189,5.6657,5.7221,5.7223,5.7351,5.7848,5.7913,5.8297,5.9146,5.9306,5.9973,6.1322,6.242,6.298,6.298,6.3965,6.4334,6.3855,6.3199,6.2659,6.227,6.1823,6.1427,6.1081,6.0575,6.0147,2.9825,3.2171,3.4126,3.627,3.7464,3.8359,3.9438,3.9741,3.9884,4.0116,4.0722,4.098,4.0286,4.0722,4.098,4.0286,4.0612,4.0832,4.0427,4.0914,4.1162,4.0736,4.2327,4.3379,4.3207,4.4073,4.453,4.4274,4.4349,4.4473,4.4584,4.4879,4.5406,4.613,4.6277,4.6386,4.6459,4.6625,4.6743,4.6836,4.7088,4.7245,4.7309,4.7309,4.7363,4.7475,4.7997,4.834,4.8627,5.0225,5.0703,5.0587,5.1887,5.2381,5.2296,5.1982,5.1686,5.1461,5.1769,5.1305,5.0806,5.2016,5.2671,5.3026,5.3233,5.3781,5.4375,5.4375,5.4375,5.4375,5.44,5.4426,5.4422,5.4464,5.4489,5.4538,5.4665,5.4559,5.4493,5.4657,5.4728,5.4814,5.4919,5.5677,5.6306,5.6421,5.6799,5.7329,5.8054,5.7769,5.7866,5.8765,5.8493,5.8679,5.9752,5.9587,6.0157,6.1941,6.2789,6.3469,6.392,6.4676,6.4925,6.4539,6.4637,6.4448,6.4017,6.3417,6.3019,6.2777,6.2123,6.1417,2.9284,3.0421,3.1383,3.4609,3.6066,3.7138,3.8676,3.9039,3.9279,4.0115,4.0786,4.1006,4.0386,4.0786,4.1006,4.0399,4.0309,4.0393,4.0473,4.0532,4.058,4.0702,4.0903,4.1654,4.3069,4.2793,4.2821,4.3482,4.3551,4.3624,4.3756,4.4502,4.5236,4.5993,4.6152,4.6326,4.659,4.6836,4.6998,4.6998,4.7133,4.7245,4.7309,4.7309,4.7493,4.785,4.764,4.7708,4.8016,4.8883,4.9747,5.0602,5.0675,5.1762,5.306,5.1659,5.1645,5.2158,5.0867,5.0863,5.1448,5.1619,5.2275,5.313,5.3837,5.4171,5.4317,5.4317,5.4317,5.4334,5.4383,5.4439,5.448,5.4434,5.4447,5.4538,5.4665,5.4571,5.453,5.4665,5.4689,5.4713,5.4791,5.5595,5.6224,5.6232,5.7628,5.873,5.8843,5.9602,6.0437,6.1318,6.0103,5.9843,6.143,6.0277,6.0242,6.1979,6.2216,6.3024,6.4749,6.5004,6.5468,6.6247,6.6408,6.5686,6.4088,6.4052,6.3603,6.2816,6.2764,6.2281,2.8539,2.9526,3.0553,3.3762,3.4857,3.5689,3.7797,3.8294,3.8645,3.9926,4.0404,4.0395,3.9732,4.0481,4.1006,4.0399,4.0226,4.0251,4.0473,4.051,4.0546,4.0667,4.1307,4.1957,4.2511,4.2876,4.3252,4.3614,4.3196,4.3429,4.454,4.4377,4.4833,4.607,4.6253,4.6459,4.6719,4.6929,4.7043,4.7122,4.7234,4.732,4.7428,4.7615,4.7741,4.7892,4.7855,4.84,4.9428,4.9768,5.0435,5.1323,5.2056,5.2395,5.2437,5.2077,5.2108,5.2266,5.1909,5.1691,5.1648,5.2243,5.2738,5.3165,5.3432,5.3928,5.4357,5.4357,5.4357,5.4366,5.44,5.4801,5.5362,5.5922,5.6098,5.6149,5.6224,5.6183,5.6141,5.6174,5.6174,5.62,5.6274,5.71,5.7725,5.7725,5.8418,5.9153,5.9709,5.9629,5.9647,5.9981,6.0032,6.0098,6.0163,6.0269,6.086,6.2095,6.2209,6.3075,6.4885,6.5054,6.5526,6.6446,6.6614,6.6334,6.569,6.4638,6.392,6.3621,6.3118,6.2719,2.7875,2.8802,2.9801,3.3081,3.4118,3.488,3.7053,3.7516,3.79,3.918,3.9695,3.9722,3.901,3.9787,4.034,3.9773,3.9793,3.9954,4.0158,4.0436,4.0643,4.0702,4.139,4.1913,4.219,4.2542,4.2928,4.329,4.2917,4.3255,4.4612,4.4448,4.4893,4.6179,4.641,4.6625,4.6789,4.6986,4.7122,4.7245,4.732,4.7407,4.7493,4.7788,4.7892,4.7902,4.7978,4.8717,4.9892,5.031,5.0957,5.1825,5.26,5.2745,5.2451,5.2136,5.2332,5.272,5.2401,5.2146,5.2148,5.2744,5.3052,5.3261,5.3516,5.3967,5.4417,5.4451,5.4614,5.4813,5.4813,5.5414,5.6191,5.6851,5.7189,5.7369,5.7421,5.7207,5.6964,5.7015,5.7032,5.7058,5.7142,5.797,5.865,5.8674,5.9049,5.958,6.0203,5.9834,5.9609,5.9904,6.0279,6.0398,6.0163,6.0538,6.1168,6.2155,6.2251,6.2984,6.4521,6.4653,6.4998,6.5634,6.6034,6.6217,6.6157,6.5358,6.4844,6.4544,6.4006,6.3616,0.0,0.0,0.0,3.2328,3.3735,3.4734,3.6321,3.6728,3.6999,3.7896,3.8668,3.8964,3.8332,3.8822,3.913,3.8505,3.9009,3.9455,3.9489,4.0271,4.0789,4.0692,4.0906,4.1405,4.2121,4.1719,4.1752,4.2568,4.2753,4.3149,4.3886,4.4694,4.5454,4.6179,4.6578,4.6789,4.6789,4.7066,4.7245,4.732,4.7428,4.7482,4.7493,4.7798,4.7892,4.7902,4.7988,4.8476,4.9289,5.0232,5.115,5.1997,5.2109,5.2699,5.3279,5.1833,5.2306,5.3493,5.2146,5.2214,5.2942,5.3,5.314,5.3366,5.4146,5.4409,5.4463,5.4556,5.5107,5.5668,5.5743,5.639,5.7026,5.7077,5.7663,5.8155,5.8155,5.7525,5.7015,5.7142,5.7184,5.7226,5.7354,5.8124,5.8742,5.8828,5.9489,6.0076,6.0272,6.0286,6.0628,6.1471,6.0936,6.0858,6.169,6.1115,6.1121,6.2111,6.2208,6.2713,6.3703,6.3834,6.3883,6.3883,6.4817,6.5261,6.5261,6.6218,6.6257,6.5505,6.5507,6.5087,2.5013,0.0,0.0,0.0,0.0,0.0,3.3815,3.4732,3.5768,3.7459,3.8238,3.8721,3.8994,3.934,3.9353,3.8676,3.8563,3.8779,3.9409,3.9671,3.9831,3.9832,4.0584,4.1441,4.2264,4.1857,4.211,4.3442,4.3091,4.3395,4.4694,4.5489,4.6003,4.6179,4.6495,4.6696,4.6789,4.7066,4.7278,4.7439,4.7472,4.7561,4.7646,4.7886,4.7937,4.7902,4.8101,4.8659,4.9465,5.0257,5.1165,5.2146,5.2719,5.2837,5.2651,5.2934,5.3308,5.3728,5.3451,5.3514,5.3773,5.3899,5.3988,5.406,5.4317,5.4813,5.5385,5.6058,5.6792,5.7704,5.8905,5.9403,5.9591,5.9581,5.9759,5.9731,5.9102,5.8802,5.867,5.8678,5.8803,5.8881,5.8884,5.9253,5.956,5.9584,5.9962,6.0242,6.0279,6.0344,6.0463,6.0714,6.0592,6.0601,6.0858,6.0776,6.0873,6.1236,6.1334,6.1818,6.2813,6.2908,6.3278,6.3891,6.4247,6.4414,6.4441,6.5351,6.573,6.5505,6.5493,6.5734,2.4581,2.5205,2.5894,2.8791,0.0,0.0,3.3212,3.3889,3.4651,3.6466,3.7115,3.7535,3.7923,3.8414,3.8744,3.8606,3.8207,3.8185,3.8917,3.9055,3.9192,3.9512,4.01,4.0886,4.1824,4.1928,4.2333,4.3348,4.3629,4.4296,4.5586,4.6079,4.6362,4.6362,4.6613,4.6812,4.6975,4.7156,4.7367,4.7593,4.7636,4.7668,4.7699,4.7978,4.8008,4.7912,4.8161,4.8783,4.9601,5.0388,5.1287,5.2247,5.2997,5.3085,5.2873,5.3489,5.3735,5.3813,5.4,5.411,5.42,5.429,5.4326,5.4482,5.5165,5.5681,5.6328,5.7536,5.8492,5.9431,6.0755,6.1093,6.1093,6.1093,6.083,6.0464,5.9975,5.9645,5.9438,5.9401,5.951,5.9607,5.9627,5.9786,5.9958,5.999,6.0144,6.0301,6.0337,6.0387,6.0415,6.0415,6.0412,6.0459,6.0558,6.0629,6.0757,6.0938,6.098,6.1307,6.1922,6.2016,6.2304,6.2792,6.3677,6.4301,6.4673,6.5218,6.5669,6.6023,6.5712,6.5818,2.4996,2.564,2.6423,2.9696,3.0519,0.0,3.3447,3.3642,3.3694,3.5048,3.5573,3.5792,3.5952,3.6788,3.7663,3.8238,3.7939,3.7814,3.831,3.8412,3.8722,3.941,3.9629,4.0158,4.1371,4.2079,4.2661,4.3161,4.4436,4.5562,4.6363,4.6518,4.659,4.6602,4.6847,4.7066,4.719,4.7276,4.7439,4.7689,4.7829,4.7819,4.7699,4.8028,4.8095,4.7912,4.8161,4.8746,4.9537,5.0407,5.1372,5.2383,5.3048,5.341,5.3531,5.3657,5.3764,5.3851,5.4055,5.4209,5.4317,5.4317,5.434,5.4692,5.6218,5.6762,5.7276,5.9169,6.0323,6.1168,6.1881,6.2079,6.2079,6.1966,6.1327,6.0755,6.0717,6.0139,5.9589,5.9556,5.9581,5.9668,5.9791,5.991,6.0052,6.0099,6.0212,6.033,6.0408,6.0492,6.053,6.0544,6.0544,6.0592,6.0725,6.0731,6.0775,6.0971,6.1051,6.1132,6.1182,6.1271,6.1314,6.1283,6.2944,6.4303,6.5358,6.539,6.5847,6.6656,6.5923,6.5663,2.3961,2.4943,2.6198,2.7656,2.9454,0.0,3.1345,3.2073,3.2886,3.3598,3.4024,3.4564,3.5639,3.6668,3.7199,3.6752,3.7619,3.8388,3.8414,3.7921,3.7852,3.8699,3.9433,4.0735,4.301,4.2905,4.3501,4.5407,4.5828,4.6112,4.641,4.6435,4.6495,4.6602,4.6847,4.7066,4.719,4.7388,4.7551,4.7689,4.7746,4.7746,4.7699,4.7957,4.7988,4.7912,4.8161,4.8416,4.8646,4.9561,5.0931,5.2536,5.3205,5.3571,5.3737,5.3783,5.3879,5.4055,5.42,5.4306,5.4383,5.4383,5.4392,5.4692,5.6218,5.7229,5.8465,6.1496,6.2932,6.3618,6.3769,6.3806,6.3656,6.3008,6.2277,6.1554,6.0848,6.0139,5.9624,5.9723,5.9807,5.9844,5.9861,6.0005,6.0137,6.025,6.0337,6.0394,6.0415,6.0988,6.143,6.1538,6.1493,6.1488,6.1613,6.112,6.0804,6.0922,6.0995,6.106,6.1182,6.1242,6.1287,6.1279,6.1752,6.2777,6.4361,6.51,6.5609,6.5837,6.5651,6.5973,2.4244,2.4937,2.6087,2.7514,2.9014,0.0,0.0,3.1894,3.2561,3.3225,3.3528,3.3911,3.4563,3.5495,3.6159,3.6204,3.6876,3.7507,3.7829,3.792,3.8229,3.9009,3.9571,4.0573,4.2288,4.2602,4.3536,4.5477,4.6042,4.6362,4.6495,4.6566,4.6684,4.687,4.7032,4.7178,4.7356,4.7518,4.7657,4.7809,4.7886,4.7886,4.7819,4.8022,4.8062,4.7957,4.819,4.8296,4.8389,4.9397,5.037,5.1389,5.2507,5.3316,5.3794,5.3851,5.3991,5.4209,5.429,5.4357,5.4439,5.4439,5.451,5.4819,5.6308,5.8213,6.0368,6.2881,6.3944,6.4294,6.4294,6.4294,6.4182,6.3806,6.3122,6.2353,6.1544,6.0778,6.0188,5.9908,5.9893,5.9958,5.9958,6.0091,6.0204,6.0279,6.0702,6.0981,6.0981,6.1743,6.232,6.24,6.2396,6.2265,6.1985,6.1621,6.129,6.0953,6.1022,6.115,6.126,6.1267,6.1535,6.2057,6.2534,6.3024,6.3516,6.4414,6.5106,6.5555,6.5141,6.5191,2.545,2.5891,2.6808,2.8081,2.9158,3.0148,0.0,0.0,0.0,3.2411,3.2584,3.2724,3.2914,3.3676,3.4549,3.5177,3.5689,3.6236,3.681,3.7619,3.8411,3.9135,3.9674,4.0341,4.1196,4.1973,4.322,4.5173,4.5587,4.6012,4.6566,4.6719,4.6905,4.7178,4.7212,4.7312,4.7482,4.7657,4.7809,4.7892,4.8068,4.8068,4.7933,4.8187,4.819,4.8042,4.8238,4.8325,4.8418,4.9326,4.9834,5.0194,5.1825,5.2939,5.3674,5.3888,5.41,5.4308,5.4326,5.4417,5.4538,5.4513,5.4902,5.5605,5.6778,5.9366,6.2186,6.3566,6.4134,6.4354,6.4354,6.4354,6.4344,6.4324,6.3753,6.2984,6.2276,6.15,6.0748,6.0061,5.999,6.0037,6.0037,6.0312,6.0523,6.0537,6.1282,6.1867,6.1881,6.2665,6.3211,6.3048,6.3084,6.283,6.2062,6.1945,6.1637,6.1036,6.1137,6.1247,6.1297,6.1314,6.1797,6.2766,6.332,6.3434,6.3144,6.3519,6.4163,6.4999,6.4358,6.4136,2.7648,2.8584,2.9483,2.8616,3.0086,3.1222,2.9339,0.0,3.0008,2.9426,0.0,2.9574,3.0369,0.0,0.0,3.2022,3.3868,3.5342,3.5445,3.6111,3.6867,3.7748,3.9249,4.0587,4.1479,4.1641,4.2916,4.5863,4.4413,4.4352,4.6484,4.6719,4.6905,4.7178,4.7243,4.7352,4.7482,4.7767,4.7881,4.7892,4.7988,4.8002,4.7982,4.8148,4.8197,4.8187,4.8381,4.8466,4.8494,4.8852,4.9458,5.0256,5.1981,5.2817,5.3093,5.3938,5.4282,5.4317,5.4366,5.4518,5.4657,5.4538,5.6011,5.7835,5.8122,6.048,6.3059,6.3305,6.3945,6.4568,6.4568,6.4568,6.4539,6.4405,6.3917,6.3225,6.2356,6.1603,6.0896,6.0228,6.0076,6.0076,6.0076,6.0806,6.1391,6.1456,6.2197,6.2761,6.2832,6.3611,6.3897,6.3265,6.3258,6.2941,6.2165,6.1504,6.1108,6.1002,6.1137,6.1247,6.1297,6.137,6.1833,6.2774,6.2141,6.252,6.3953,6.2555,6.2358,6.3282,6.3186,6.3548,2.8086,2.8733,2.9372,2.8582,2.9523,3.0246,2.881,2.8896,2.9172,2.8869,0.0,0.0,0.0,0.0,0.0,0.0,3.3137,3.4002,3.4535,3.5281,3.6226,3.7445,3.7975,3.8737,4.0143,4.071,4.1939,4.4108,4.3095,4.3441,4.588,4.6148,4.6532,4.7243,4.6985,4.6917,4.7032,4.7246,4.7136,4.6698,4.7682,4.7921,4.7424,4.8007,4.8275,4.8285,4.8428,4.8522,4.8569,4.8794,4.9102,4.9646,5.1487,5.2499,5.3058,5.4014,5.4349,5.4366,5.4422,5.4576,5.4772,5.5319,5.6126,5.7217,5.8686,6.0068,6.1439,6.288,6.3568,6.3955,6.4483,6.4596,6.4587,6.4539,6.4332,6.3925,6.3139,6.2356,6.1624,6.0919,6.0525,6.043,6.088,6.1373,6.1673,6.1701,6.2463,6.3027,6.3061,6.3409,6.3731,6.3943,6.3546,6.319,6.287,6.2139,6.1507,6.1041,6.1137,6.1229,6.1364,6.1886,6.2368,6.2807,6.2955,6.3149,6.3418,6.2711,6.2316,6.2267,6.2757,6.3195,2.901,2.9551,2.9953,2.8675,2.9121,2.9533,2.8163,2.8356,2.8764,2.8764,2.9651,0.0,0.0,0.0,3.2036,3.2667,0.0,3.3135,3.3798,3.4237,3.5035,3.6485,3.6539,3.719,3.9115,3.9124,3.9936,4.2121,4.1297,4.1931,4.4856,4.5334,4.5974,4.6993,4.669,4.6555,4.6702,4.671,4.6423,4.5846,4.7104,4.7517,4.7093,4.7747,4.8152,4.8344,4.8513,4.8633,4.8705,4.889,4.9167,4.9596,5.1253,5.2361,5.3186,5.4054,5.4426,5.4422,5.4489,5.4587,5.485,5.5595,5.5958,5.645,5.8486,5.9391,6.0135,6.2202,6.2912,6.3272,6.415,6.4377,6.4406,6.4577,6.4662,6.4472,6.3675,6.3093,6.2467,6.1566,6.0989,6.0869,6.1566,6.192,6.2139,6.2139,6.2849,6.3336,6.314,6.3155,6.3322,6.3777,6.3302,6.2906,6.2777,6.2221,6.1633,6.1104,6.1155,6.1246,6.137,6.2006,6.2507,6.2804,6.3189,6.3232,6.2886,6.2676,6.2233,6.1709,6.2325,6.2648,3.1172,3.2112,3.2456,2.905,2.9463,2.9882,2.6941,2.7529,2.869,2.869,3.0013,3.1365,3.209,3.2529,3.2706,3.2603,3.289,0.0,0.0,3.2601,3.2724,3.4139,3.5147,3.6676,3.9056,3.6671,3.6562,4.0394,3.878,3.9336,4.3244,4.4335,4.5304,4.6317,4.6442,4.6555,4.6702,4.6183,4.592,4.5893,4.6156,4.6642,4.7298,4.7407,4.7803,4.8494,4.8697,4.8831,4.889,4.9123,4.9732,5.0646,5.1694,5.2585,5.3389,5.4134,5.443,5.4505,5.4505,5.4619,5.4799,5.4928,5.5541,5.6436,5.7309,5.8699,6.0187,6.1194,6.1961,6.274,6.3613,6.3841,6.3989,6.4563,6.4817,6.4643,6.3772,6.3591,6.3162,6.1864,6.1461,6.1461,6.1842,6.248,6.2975,6.2975,6.3638,6.3913,6.3203,6.3109,6.2861,6.2231,6.2142,6.1852,6.1141,6.1044,6.1104,6.1285,6.1212,6.1246,6.137,6.1416,6.1878,6.2765,6.1982,6.2024,6.2886,6.2054,6.1636,6.16,6.1694,6.1751,3.1958,3.2672,3.2926,3.0945,3.0522,3.0077,2.8101,2.8196,2.8714,2.8714,3.0432,3.2019,3.236,3.2953,3.3264,3.2847,3.2518,3.2336,0.0,3.1794,3.189,3.3468,3.4396,3.527,3.6239,3.592,3.6675,3.9079,3.8635,3.9579,4.2619,4.4087,4.5253,4.6256,4.6021,4.617,4.6766,4.6268,4.5753,4.5193,4.6393,4.6585,4.5783,4.6387,4.7116,4.792,4.8067,4.8467,4.903,4.9214,4.9484,4.9901,5.0845,5.145,5.194,5.3884,5.4616,5.4657,5.4722,5.4791,5.5087,5.6291,5.6883,5.7369,5.8783,5.9635,6.0243,6.1149,6.1599,6.2033,6.2863,6.31,6.3306,6.4071,6.425,6.4301,6.4622,6.4195,6.353,6.2619,6.201,6.1711,6.1934,6.2093,6.2405,6.3034,6.3399,6.3316,6.256,6.1945,6.1695,6.2056,6.1574,6.1378,6.1704,6.1299,6.107,6.1293,6.1251,6.1246,6.137,6.2465,6.2959,6.2737,6.3061,6.3102,6.2827,6.1993,6.1582,6.1638,6.2264,6.2245,3.2709,3.3217,3.343,3.1946,3.1427,3.0852,2.9211,2.9568,3.0131,2.9609,3.1702,3.3546,3.3305,3.3584,3.3632,3.2974,3.2088,3.1462,0.0,3.1072,3.135,3.2494,3.301,3.3668,3.4665,3.457,3.5279,3.7196,3.7155,3.8292,4.1137,4.3063,4.4551,4.5548,4.5847,4.6149,4.6484,4.6214,4.5657,4.4898,4.6072,4.6106,4.5073,4.5963,4.6829,4.7662,4.8032,4.8559,4.9205,4.9257,4.9556,4.9988,5.0644,5.1081,5.1609,5.3556,5.4456,5.4791,5.4912,5.5153,5.5631,5.6797,5.7382,5.7869,5.9291,5.9717,5.9915,6.0783,6.1095,6.1277,6.2079,6.2344,6.2586,6.336,6.3504,6.3641,6.4221,6.3916,6.3307,6.2622,6.2101,6.1812,6.201,6.1934,6.2094,6.2676,6.2753,6.2458,6.1713,6.1104,6.0994,6.1595,6.1133,6.1047,6.1665,6.133,6.1146,6.1293,6.1268,6.1306,6.1412,6.2415,6.2899,6.2718,6.3004,6.3206,6.3244,6.2137,6.1926,6.2533,6.2835,6.2696]}]]